<?xml version="1.0" encoding="UTF-8" standalone="no" ?>
<gpx xmlns="http://www.topografix.com/GPX/1/1" xmlns:xsi="http://www.w3.org/2001/XMLSchema-instance" xsi:schemaLocation="http://www.topografix.com/GPX/1/1 http://www.topografix.com/GPX/1/1/gpx.xsd" version="1.1" creator="VisuGPX - https://www.visugpx.com">
  <metadata>
    <name>Estaragne Campbiel col d'Estaragne</name>
    <desc><![CDATA[[url]https://picasaweb.google.com/105108571230570121986/EstaragneCampbielColDEstaragne#[/url]
[img]https://lh6.googleusercontent.com/-9fHNpkbNbDo/U5RiHbJMAEI/AAAAAAAARoY/_LCya5Ui10g/s800/Estaragne%2520Campbiel%2520col%2520d%2527Estaragne%2520001.JPG[/img]]]></desc>
  </metadata>
  <trk>
    <name><![CDATA[Estaragne Campbiel col d'Estaragne]]></name>
    <trkseg>
      <trkpt lat="42.81547" lon="0.14668">
        <ele>2013</ele>
        <time>2014-06-08T03:48:14Z</time>
      </trkpt>
      <trkpt lat="42.81552" lon="0.14654">
        <ele>2015</ele>
        <time>2014-06-08T03:48:36Z</time>
      </trkpt>
      <trkpt lat="42.81552" lon="0.14655">
        <ele>2020</ele>
        <time>2014-06-08T03:48:38Z</time>
      </trkpt>
      <trkpt lat="42.81552" lon="0.14654">
        <ele>2024</ele>
        <time>2014-06-08T03:48:40Z</time>
      </trkpt>
      <trkpt lat="42.81553" lon="0.14654">
        <ele>2029</ele>
        <time>2014-06-08T03:48:42Z</time>
      </trkpt>
      <trkpt lat="42.81553" lon="0.14654">
        <ele>2033</ele>
        <time>2014-06-08T03:48:44Z</time>
      </trkpt>
      <trkpt lat="42.81552" lon="0.14655">
        <ele>2037</ele>
        <time>2014-06-08T03:48:46Z</time>
      </trkpt>
      <trkpt lat="42.81552" lon="0.14655">
        <ele>2041</ele>
        <time>2014-06-08T03:48:49Z</time>
      </trkpt>
      <trkpt lat="42.81552" lon="0.14655">
        <ele>2044</ele>
        <time>2014-06-08T03:48:51Z</time>
      </trkpt>
      <trkpt lat="42.81552" lon="0.14655">
        <ele>2048</ele>
        <time>2014-06-08T03:48:54Z</time>
      </trkpt>
      <trkpt lat="42.81553" lon="0.14656">
        <ele>2053</ele>
        <time>2014-06-08T03:48:57Z</time>
      </trkpt>
      <trkpt lat="42.81553" lon="0.14656">
        <ele>2053</ele>
        <time>2014-06-08T03:48:58Z</time>
      </trkpt>
      <trkpt lat="42.81553" lon="0.14656">
        <ele>2056</ele>
        <time>2014-06-08T03:49:01Z</time>
      </trkpt>
      <trkpt lat="42.81553" lon="0.14656">
        <ele>2059</ele>
        <time>2014-06-08T03:49:05Z</time>
      </trkpt>
      <trkpt lat="42.81552" lon="0.14657">
        <ele>2059</ele>
        <time>2014-06-08T03:49:06Z</time>
      </trkpt>
      <trkpt lat="42.81552" lon="0.14656">
        <ele>2062</ele>
        <time>2014-06-08T03:49:11Z</time>
      </trkpt>
      <trkpt lat="42.81552" lon="0.14656">
        <ele>2066</ele>
        <time>2014-06-08T03:49:15Z</time>
      </trkpt>
      <trkpt lat="42.81551" lon="0.14654">
        <ele>2067</ele>
        <time>2014-06-08T03:49:18Z</time>
      </trkpt>
      <trkpt lat="42.81551" lon="0.14654">
        <ele>2069</ele>
        <time>2014-06-08T03:49:21Z</time>
      </trkpt>
      <trkpt lat="42.81551" lon="0.14654">
        <ele>2072</ele>
        <time>2014-06-08T03:49:26Z</time>
      </trkpt>
      <trkpt lat="42.81552" lon="0.14655">
        <ele>2073</ele>
        <time>2014-06-08T03:49:29Z</time>
      </trkpt>
      <trkpt lat="42.81551" lon="0.14655">
        <ele>2076</ele>
        <time>2014-06-08T03:49:34Z</time>
      </trkpt>
      <trkpt lat="42.81551" lon="0.14654">
        <ele>2078</ele>
        <time>2014-06-08T03:49:43Z</time>
      </trkpt>
      <trkpt lat="42.81552" lon="0.14654">
        <ele>2081</ele>
        <time>2014-06-08T03:49:51Z</time>
      </trkpt>
      <trkpt lat="42.81554" lon="0.14657">
        <ele>2083</ele>
        <time>2014-06-08T03:50:12Z</time>
      </trkpt>
      <trkpt lat="42.81554" lon="0.14658">
        <ele>2087</ele>
        <time>2014-06-08T03:50:34Z</time>
      </trkpt>
      <trkpt lat="42.8155" lon="0.14649">
        <ele>2087</ele>
        <time>2014-06-08T03:51:09Z</time>
      </trkpt>
      <trkpt lat="42.8155" lon="0.14654">
        <ele>2088</ele>
        <time>2014-06-08T03:51:21Z</time>
      </trkpt>
      <trkpt lat="42.81551" lon="0.14657">
        <ele>2088</ele>
        <time>2014-06-08T03:51:39Z</time>
      </trkpt>
      <trkpt lat="42.81552" lon="0.14657">
        <ele>2087</ele>
        <time>2014-06-08T03:51:56Z</time>
      </trkpt>
      <trkpt lat="42.81553" lon="0.14657">
        <ele>2088</ele>
        <time>2014-06-08T03:52:08Z</time>
      </trkpt>
      <trkpt lat="42.81555" lon="0.14659">
        <ele>2088</ele>
        <time>2014-06-08T03:52:27Z</time>
      </trkpt>
      <trkpt lat="42.81556" lon="0.14658">
        <ele>2089</ele>
        <time>2014-06-08T03:52:56Z</time>
      </trkpt>
      <trkpt lat="42.81555" lon="0.14657">
        <ele>2088</ele>
        <time>2014-06-08T03:53:20Z</time>
      </trkpt>
      <trkpt lat="42.81554" lon="0.14658">
        <ele>2088</ele>
        <time>2014-06-08T03:53:23Z</time>
      </trkpt>
      <trkpt lat="42.81551" lon="0.14655">
        <ele>2088</ele>
        <time>2014-06-08T03:53:26Z</time>
      </trkpt>
      <trkpt lat="42.8155" lon="0.14657">
        <ele>2088</ele>
        <time>2014-06-08T03:53:28Z</time>
      </trkpt>
      <trkpt lat="42.81545" lon="0.1466">
        <ele>2089</ele>
        <time>2014-06-08T03:53:36Z</time>
      </trkpt>
      <trkpt lat="42.81538" lon="0.14677">
        <ele>2090</ele>
        <time>2014-06-08T03:53:49Z</time>
      </trkpt>
      <trkpt lat="42.81538" lon="0.14687">
        <ele>2090</ele>
        <time>2014-06-08T03:53:54Z</time>
      </trkpt>
      <trkpt lat="42.81536" lon="0.14697">
        <ele>2093</ele>
        <time>2014-06-08T03:54:08Z</time>
      </trkpt>
      <trkpt lat="42.81533" lon="0.14701">
        <ele>2094</ele>
        <time>2014-06-08T03:54:12Z</time>
      </trkpt>
      <trkpt lat="42.8152" lon="0.1471">
        <ele>2096</ele>
        <time>2014-06-08T03:54:25Z</time>
      </trkpt>
      <trkpt lat="42.81514" lon="0.1471">
        <ele>2097</ele>
        <time>2014-06-08T03:54:32Z</time>
      </trkpt>
      <trkpt lat="42.81509" lon="0.14722">
        <ele>2099</ele>
        <time>2014-06-08T03:54:40Z</time>
      </trkpt>
      <trkpt lat="42.81503" lon="0.14724">
        <ele>2100</ele>
        <time>2014-06-08T03:54:47Z</time>
      </trkpt>
      <trkpt lat="42.81493" lon="0.14722">
        <ele>2100</ele>
        <time>2014-06-08T03:54:53Z</time>
      </trkpt>
      <trkpt lat="42.81487" lon="0.14721">
        <ele>2103</ele>
        <time>2014-06-08T03:55:06Z</time>
      </trkpt>
      <trkpt lat="42.81487" lon="0.14721">
        <ele>2103</ele>
        <time>2014-06-08T03:55:07Z</time>
      </trkpt>
      <trkpt lat="42.81486" lon="0.14727">
        <ele>2103</ele>
        <time>2014-06-08T03:55:11Z</time>
      </trkpt>
      <trkpt lat="42.81485" lon="0.14736">
        <ele>2104</ele>
        <time>2014-06-08T03:55:17Z</time>
      </trkpt>
      <trkpt lat="42.8148" lon="0.14747">
        <ele>2103</ele>
        <time>2014-06-08T03:55:23Z</time>
      </trkpt>
      <trkpt lat="42.81468" lon="0.14758">
        <ele>2105</ele>
        <time>2014-06-08T03:55:38Z</time>
      </trkpt>
      <trkpt lat="42.81459" lon="0.14751">
        <ele>2107</ele>
        <time>2014-06-08T03:55:52Z</time>
      </trkpt>
      <trkpt lat="42.81454" lon="0.14751">
        <ele>2110</ele>
        <time>2014-06-08T03:56:07Z</time>
      </trkpt>
      <trkpt lat="42.8145" lon="0.14752">
        <ele>2112</ele>
        <time>2014-06-08T03:56:13Z</time>
      </trkpt>
      <trkpt lat="42.81449" lon="0.14753">
        <ele>2111</ele>
        <time>2014-06-08T03:56:15Z</time>
      </trkpt>
      <trkpt lat="42.8144" lon="0.14752">
        <ele>2114</ele>
        <time>2014-06-08T03:56:30Z</time>
      </trkpt>
      <trkpt lat="42.81435" lon="0.14749">
        <ele>2116</ele>
        <time>2014-06-08T03:56:43Z</time>
      </trkpt>
      <trkpt lat="42.81431" lon="0.14745">
        <ele>2117</ele>
        <time>2014-06-08T03:56:50Z</time>
      </trkpt>
      <trkpt lat="42.81426" lon="0.1473">
        <ele>2117</ele>
        <time>2014-06-08T03:57:04Z</time>
      </trkpt>
      <trkpt lat="42.81426" lon="0.14728">
        <ele>2117</ele>
        <time>2014-06-08T03:57:05Z</time>
      </trkpt>
      <trkpt lat="42.8142" lon="0.14723">
        <ele>2118</ele>
        <time>2014-06-08T03:57:11Z</time>
      </trkpt>
      <trkpt lat="42.81409" lon="0.14718">
        <ele>2121</ele>
        <time>2014-06-08T03:57:28Z</time>
      </trkpt>
      <trkpt lat="42.81398" lon="0.1472">
        <ele>2124</ele>
        <time>2014-06-08T03:57:45Z</time>
      </trkpt>
      <trkpt lat="42.81385" lon="0.14717">
        <ele>2126</ele>
        <time>2014-06-08T03:58:01Z</time>
      </trkpt>
      <trkpt lat="42.81372" lon="0.14708">
        <ele>2128</ele>
        <time>2014-06-08T03:58:17Z</time>
      </trkpt>
      <trkpt lat="42.81369" lon="0.14706">
        <ele>2129</ele>
        <time>2014-06-08T03:58:20Z</time>
      </trkpt>
      <trkpt lat="42.81354" lon="0.14704">
        <ele>2131</ele>
        <time>2014-06-08T03:58:36Z</time>
      </trkpt>
      <trkpt lat="42.81345" lon="0.14702">
        <ele>2131</ele>
        <time>2014-06-08T03:58:46Z</time>
      </trkpt>
      <trkpt lat="42.81342" lon="0.14702">
        <ele>2132</ele>
        <time>2014-06-08T03:58:50Z</time>
      </trkpt>
      <trkpt lat="42.81336" lon="0.14711">
        <ele>2133</ele>
        <time>2014-06-08T03:59:01Z</time>
      </trkpt>
      <trkpt lat="42.81328" lon="0.14708">
        <ele>2134</ele>
        <time>2014-06-08T03:59:12Z</time>
      </trkpt>
      <trkpt lat="42.81325" lon="0.14706">
        <ele>2135</ele>
        <time>2014-06-08T03:59:15Z</time>
      </trkpt>
      <trkpt lat="42.81322" lon="0.14707">
        <ele>2135</ele>
        <time>2014-06-08T03:59:18Z</time>
      </trkpt>
      <trkpt lat="42.81319" lon="0.14709">
        <ele>2134</ele>
        <time>2014-06-08T03:59:21Z</time>
      </trkpt>
      <trkpt lat="42.81313" lon="0.14708">
        <ele>2136</ele>
        <time>2014-06-08T03:59:34Z</time>
      </trkpt>
      <trkpt lat="42.81311" lon="0.14706">
        <ele>2136</ele>
        <time>2014-06-08T03:59:46Z</time>
      </trkpt>
      <trkpt lat="42.81306" lon="0.14707">
        <ele>2137</ele>
        <time>2014-06-08T03:59:58Z</time>
      </trkpt>
      <trkpt lat="42.81301" lon="0.14709">
        <ele>2138</ele>
        <time>2014-06-08T04:00:03Z</time>
      </trkpt>
      <trkpt lat="42.81294" lon="0.14708">
        <ele>2138</ele>
        <time>2014-06-08T04:00:09Z</time>
      </trkpt>
      <trkpt lat="42.81272" lon="0.14703">
        <ele>2141</ele>
        <time>2014-06-08T04:00:29Z</time>
      </trkpt>
      <trkpt lat="42.81256" lon="0.147">
        <ele>2143</ele>
        <time>2014-06-08T04:00:44Z</time>
      </trkpt>
      <trkpt lat="42.81245" lon="0.14699">
        <ele>2145</ele>
        <time>2014-06-08T04:00:58Z</time>
      </trkpt>
      <trkpt lat="42.81228" lon="0.14692">
        <ele>2147</ele>
        <time>2014-06-08T04:01:15Z</time>
      </trkpt>
      <trkpt lat="42.81222" lon="0.14688">
        <ele>2148</ele>
        <time>2014-06-08T04:01:21Z</time>
      </trkpt>
      <trkpt lat="42.81217" lon="0.14685">
        <ele>2149</ele>
        <time>2014-06-08T04:01:26Z</time>
      </trkpt>
      <trkpt lat="42.81214" lon="0.14683">
        <ele>2149</ele>
        <time>2014-06-08T04:01:29Z</time>
      </trkpt>
      <trkpt lat="42.81197" lon="0.14685">
        <ele>2148</ele>
        <time>2014-06-08T04:01:44Z</time>
      </trkpt>
      <trkpt lat="42.81192" lon="0.14685">
        <ele>2149</ele>
        <time>2014-06-08T04:01:49Z</time>
      </trkpt>
      <trkpt lat="42.81177" lon="0.14686">
        <ele>2150</ele>
        <time>2014-06-08T04:02:05Z</time>
      </trkpt>
      <trkpt lat="42.81163" lon="0.14682">
        <ele>2153</ele>
        <time>2014-06-08T04:02:24Z</time>
      </trkpt>
      <trkpt lat="42.81148" lon="0.14673">
        <ele>2154</ele>
        <time>2014-06-08T04:02:43Z</time>
      </trkpt>
      <trkpt lat="42.81134" lon="0.14668">
        <ele>2156</ele>
        <time>2014-06-08T04:03:01Z</time>
      </trkpt>
      <trkpt lat="42.81124" lon="0.14663">
        <ele>2158</ele>
        <time>2014-06-08T04:03:14Z</time>
      </trkpt>
      <trkpt lat="42.81124" lon="0.14662">
        <ele>2158</ele>
        <time>2014-06-08T04:03:16Z</time>
      </trkpt>
      <trkpt lat="42.81121" lon="0.14659">
        <ele>2160</ele>
        <time>2014-06-08T04:03:22Z</time>
      </trkpt>
      <trkpt lat="42.81105" lon="0.1466">
        <ele>2161</ele>
        <time>2014-06-08T04:03:39Z</time>
      </trkpt>
      <trkpt lat="42.81095" lon="0.1466">
        <ele>2162</ele>
        <time>2014-06-08T04:03:51Z</time>
      </trkpt>
      <trkpt lat="42.81082" lon="0.14658">
        <ele>2164</ele>
        <time>2014-06-08T04:04:05Z</time>
      </trkpt>
      <trkpt lat="42.81079" lon="0.14657">
        <ele>2163</ele>
        <time>2014-06-08T04:04:08Z</time>
      </trkpt>
      <trkpt lat="42.81076" lon="0.14656">
        <ele>2165</ele>
        <time>2014-06-08T04:04:11Z</time>
      </trkpt>
      <trkpt lat="42.81063" lon="0.14652">
        <ele>2165</ele>
        <time>2014-06-08T04:04:28Z</time>
      </trkpt>
      <trkpt lat="42.8105" lon="0.14646">
        <ele>2166</ele>
        <time>2014-06-08T04:04:43Z</time>
      </trkpt>
      <trkpt lat="42.81044" lon="0.14647">
        <ele>2167</ele>
        <time>2014-06-08T04:04:51Z</time>
      </trkpt>
      <trkpt lat="42.81036" lon="0.14648">
        <ele>2169</ele>
        <time>2014-06-08T04:05:06Z</time>
      </trkpt>
      <trkpt lat="42.81031" lon="0.14648">
        <ele>2170</ele>
        <time>2014-06-08T04:05:13Z</time>
      </trkpt>
      <trkpt lat="42.81028" lon="0.14648">
        <ele>2170</ele>
        <time>2014-06-08T04:05:17Z</time>
      </trkpt>
      <trkpt lat="42.81018" lon="0.14651">
        <ele>2172</ele>
        <time>2014-06-08T04:05:32Z</time>
      </trkpt>
      <trkpt lat="42.81017" lon="0.14649">
        <ele>2171</ele>
        <time>2014-06-08T04:05:44Z</time>
      </trkpt>
      <trkpt lat="42.8102" lon="0.14647">
        <ele>2171</ele>
        <time>2014-06-08T04:06:03Z</time>
      </trkpt>
      <trkpt lat="42.81019" lon="0.14648">
        <ele>2171</ele>
        <time>2014-06-08T04:06:20Z</time>
      </trkpt>
      <trkpt lat="42.8102" lon="0.14648">
        <ele>2171</ele>
        <time>2014-06-08T04:06:33Z</time>
      </trkpt>
      <trkpt lat="42.8102" lon="0.14647">
        <ele>2171</ele>
        <time>2014-06-08T04:06:53Z</time>
      </trkpt>
      <trkpt lat="42.81019" lon="0.14647">
        <ele>2170</ele>
        <time>2014-06-08T04:07:08Z</time>
      </trkpt>
      <trkpt lat="42.81019" lon="0.14647">
        <ele>2171</ele>
        <time>2014-06-08T04:07:28Z</time>
      </trkpt>
      <trkpt lat="42.81019" lon="0.14644">
        <ele>2171</ele>
        <time>2014-06-08T04:07:50Z</time>
      </trkpt>
      <trkpt lat="42.81019" lon="0.14647">
        <ele>2172</ele>
        <time>2014-06-08T04:08:07Z</time>
      </trkpt>
      <trkpt lat="42.81016" lon="0.14649">
        <ele>2171</ele>
        <time>2014-06-08T04:08:22Z</time>
      </trkpt>
      <trkpt lat="42.81014" lon="0.14649">
        <ele>2171</ele>
        <time>2014-06-08T04:08:24Z</time>
      </trkpt>
      <trkpt lat="42.81003" lon="0.14644">
        <ele>2175</ele>
        <time>2014-06-08T04:08:38Z</time>
      </trkpt>
      <trkpt lat="42.80994" lon="0.14637">
        <ele>2176</ele>
        <time>2014-06-08T04:08:52Z</time>
      </trkpt>
      <trkpt lat="42.80988" lon="0.14632">
        <ele>2178</ele>
        <time>2014-06-08T04:09:05Z</time>
      </trkpt>
      <trkpt lat="42.80981" lon="0.14627">
        <ele>2181</ele>
        <time>2014-06-08T04:09:20Z</time>
      </trkpt>
      <trkpt lat="42.80976" lon="0.14623">
        <ele>2183</ele>
        <time>2014-06-08T04:09:28Z</time>
      </trkpt>
      <trkpt lat="42.80972" lon="0.1462">
        <ele>2184</ele>
        <time>2014-06-08T04:09:33Z</time>
      </trkpt>
      <trkpt lat="42.80963" lon="0.14613">
        <ele>2185</ele>
        <time>2014-06-08T04:09:46Z</time>
      </trkpt>
      <trkpt lat="42.80953" lon="0.14606">
        <ele>2188</ele>
        <time>2014-06-08T04:10:01Z</time>
      </trkpt>
      <trkpt lat="42.80949" lon="0.14602">
        <ele>2188</ele>
        <time>2014-06-08T04:10:07Z</time>
      </trkpt>
      <trkpt lat="42.8094" lon="0.14593">
        <ele>2190</ele>
        <time>2014-06-08T04:10:20Z</time>
      </trkpt>
      <trkpt lat="42.8093" lon="0.14587">
        <ele>2192</ele>
        <time>2014-06-08T04:10:32Z</time>
      </trkpt>
      <trkpt lat="42.80919" lon="0.14581">
        <ele>2193</ele>
        <time>2014-06-08T04:10:47Z</time>
      </trkpt>
      <trkpt lat="42.80909" lon="0.14579">
        <ele>2195</ele>
        <time>2014-06-08T04:11:00Z</time>
      </trkpt>
      <trkpt lat="42.80897" lon="0.14576">
        <ele>2197</ele>
        <time>2014-06-08T04:11:14Z</time>
      </trkpt>
      <trkpt lat="42.80885" lon="0.14572">
        <ele>2198</ele>
        <time>2014-06-08T04:11:27Z</time>
      </trkpt>
      <trkpt lat="42.8088" lon="0.14569">
        <ele>2200</ele>
        <time>2014-06-08T04:11:34Z</time>
      </trkpt>
      <trkpt lat="42.8087" lon="0.14565">
        <ele>2201</ele>
        <time>2014-06-08T04:11:47Z</time>
      </trkpt>
      <trkpt lat="42.80863" lon="0.14564">
        <ele>2202</ele>
        <time>2014-06-08T04:11:56Z</time>
      </trkpt>
      <trkpt lat="42.80854" lon="0.1456">
        <ele>2204</ele>
        <time>2014-06-08T04:12:10Z</time>
      </trkpt>
      <trkpt lat="42.80847" lon="0.14559">
        <ele>2206</ele>
        <time>2014-06-08T04:12:23Z</time>
      </trkpt>
      <trkpt lat="42.80837" lon="0.1456">
        <ele>2209</ele>
        <time>2014-06-08T04:12:36Z</time>
      </trkpt>
      <trkpt lat="42.80834" lon="0.14569">
        <ele>2211</ele>
        <time>2014-06-08T04:12:55Z</time>
      </trkpt>
      <trkpt lat="42.80832" lon="0.14577">
        <ele>2213</ele>
        <time>2014-06-08T04:13:08Z</time>
      </trkpt>
      <trkpt lat="42.80831" lon="0.14575">
        <ele>2215</ele>
        <time>2014-06-08T04:13:13Z</time>
      </trkpt>
      <trkpt lat="42.80828" lon="0.14574">
        <ele>2217</ele>
        <time>2014-06-08T04:13:25Z</time>
      </trkpt>
      <trkpt lat="42.80821" lon="0.14569">
        <ele>2218</ele>
        <time>2014-06-08T04:13:37Z</time>
      </trkpt>
      <trkpt lat="42.80814" lon="0.14574">
        <ele>2221</ele>
        <time>2014-06-08T04:13:48Z</time>
      </trkpt>
      <trkpt lat="42.80808" lon="0.14592">
        <ele>2224</ele>
        <time>2014-06-08T04:14:06Z</time>
      </trkpt>
      <trkpt lat="42.80805" lon="0.14601">
        <ele>2226</ele>
        <time>2014-06-08T04:14:20Z</time>
      </trkpt>
      <trkpt lat="42.80797" lon="0.14597">
        <ele>2228</ele>
        <time>2014-06-08T04:14:38Z</time>
      </trkpt>
      <trkpt lat="42.80789" lon="0.14586">
        <ele>2231</ele>
        <time>2014-06-08T04:14:52Z</time>
      </trkpt>
      <trkpt lat="42.80785" lon="0.14581">
        <ele>2233</ele>
        <time>2014-06-08T04:15:03Z</time>
      </trkpt>
      <trkpt lat="42.8078" lon="0.14586">
        <ele>2236</ele>
        <time>2014-06-08T04:15:18Z</time>
      </trkpt>
      <trkpt lat="42.80774" lon="0.14593">
        <ele>2238</ele>
        <time>2014-06-08T04:15:31Z</time>
      </trkpt>
      <trkpt lat="42.80767" lon="0.14593">
        <ele>2241</ele>
        <time>2014-06-08T04:15:48Z</time>
      </trkpt>
      <trkpt lat="42.80761" lon="0.14593">
        <ele>2244</ele>
        <time>2014-06-08T04:16:02Z</time>
      </trkpt>
      <trkpt lat="42.80754" lon="0.14591">
        <ele>2245</ele>
        <time>2014-06-08T04:16:15Z</time>
      </trkpt>
      <trkpt lat="42.80747" lon="0.14588">
        <ele>2248</ele>
        <time>2014-06-08T04:16:28Z</time>
      </trkpt>
      <trkpt lat="42.80741" lon="0.14587">
        <ele>2250</ele>
        <time>2014-06-08T04:16:41Z</time>
      </trkpt>
      <trkpt lat="42.80735" lon="0.14585">
        <ele>2252</ele>
        <time>2014-06-08T04:16:55Z</time>
      </trkpt>
      <trkpt lat="42.80723" lon="0.14586">
        <ele>2254</ele>
        <time>2014-06-08T04:17:11Z</time>
      </trkpt>
      <trkpt lat="42.80716" lon="0.14586">
        <ele>2257</ele>
        <time>2014-06-08T04:17:25Z</time>
      </trkpt>
      <trkpt lat="42.80708" lon="0.14584">
        <ele>2259</ele>
        <time>2014-06-08T04:17:38Z</time>
      </trkpt>
      <trkpt lat="42.807" lon="0.14581">
        <ele>2261</ele>
        <time>2014-06-08T04:17:53Z</time>
      </trkpt>
      <trkpt lat="42.80689" lon="0.14578">
        <ele>2264</ele>
        <time>2014-06-08T04:18:08Z</time>
      </trkpt>
      <trkpt lat="42.80679" lon="0.14575">
        <ele>2267</ele>
        <time>2014-06-08T04:18:23Z</time>
      </trkpt>
      <trkpt lat="42.80669" lon="0.14575">
        <ele>2269</ele>
        <time>2014-06-08T04:18:37Z</time>
      </trkpt>
      <trkpt lat="42.80664" lon="0.14574">
        <ele>2271</ele>
        <time>2014-06-08T04:18:43Z</time>
      </trkpt>
      <trkpt lat="42.80657" lon="0.14574">
        <ele>2272</ele>
        <time>2014-06-08T04:18:55Z</time>
      </trkpt>
      <trkpt lat="42.80648" lon="0.14576">
        <ele>2275</ele>
        <time>2014-06-08T04:19:08Z</time>
      </trkpt>
      <trkpt lat="42.8064" lon="0.14574">
        <ele>2277</ele>
        <time>2014-06-08T04:19:23Z</time>
      </trkpt>
      <trkpt lat="42.8063" lon="0.14574">
        <ele>2280</ele>
        <time>2014-06-08T04:19:38Z</time>
      </trkpt>
      <trkpt lat="42.80621" lon="0.14574">
        <ele>2282</ele>
        <time>2014-06-08T04:19:52Z</time>
      </trkpt>
      <trkpt lat="42.80619" lon="0.14574">
        <ele>2283</ele>
        <time>2014-06-08T04:19:55Z</time>
      </trkpt>
      <trkpt lat="42.80609" lon="0.14572">
        <ele>2285</ele>
        <time>2014-06-08T04:20:09Z</time>
      </trkpt>
      <trkpt lat="42.80606" lon="0.1457">
        <ele>2286</ele>
        <time>2014-06-08T04:20:16Z</time>
      </trkpt>
      <trkpt lat="42.80603" lon="0.14568">
        <ele>2287</ele>
        <time>2014-06-08T04:20:31Z</time>
      </trkpt>
      <trkpt lat="42.80595" lon="0.14565">
        <ele>2288</ele>
        <time>2014-06-08T04:20:43Z</time>
      </trkpt>
      <trkpt lat="42.80592" lon="0.14566">
        <ele>2289</ele>
        <time>2014-06-08T04:20:47Z</time>
      </trkpt>
      <trkpt lat="42.80583" lon="0.14566">
        <ele>2290</ele>
        <time>2014-06-08T04:21:00Z</time>
      </trkpt>
      <trkpt lat="42.80576" lon="0.14565">
        <ele>2292</ele>
        <time>2014-06-08T04:21:13Z</time>
      </trkpt>
      <trkpt lat="42.8057" lon="0.14562">
        <ele>2293</ele>
        <time>2014-06-08T04:21:24Z</time>
      </trkpt>
      <trkpt lat="42.80561" lon="0.14559">
        <ele>2295</ele>
        <time>2014-06-08T04:21:37Z</time>
      </trkpt>
      <trkpt lat="42.80555" lon="0.14556">
        <ele>2297</ele>
        <time>2014-06-08T04:21:50Z</time>
      </trkpt>
      <trkpt lat="42.80547" lon="0.14553">
        <ele>2300</ele>
        <time>2014-06-08T04:22:03Z</time>
      </trkpt>
      <trkpt lat="42.80539" lon="0.14548">
        <ele>2302</ele>
        <time>2014-06-08T04:22:16Z</time>
      </trkpt>
      <trkpt lat="42.80529" lon="0.14541">
        <ele>2304</ele>
        <time>2014-06-08T04:22:31Z</time>
      </trkpt>
      <trkpt lat="42.80524" lon="0.14535">
        <ele>2306</ele>
        <time>2014-06-08T04:22:43Z</time>
      </trkpt>
      <trkpt lat="42.80517" lon="0.1453">
        <ele>2308</ele>
        <time>2014-06-08T04:22:56Z</time>
      </trkpt>
      <trkpt lat="42.80509" lon="0.14523">
        <ele>2310</ele>
        <time>2014-06-08T04:23:10Z</time>
      </trkpt>
      <trkpt lat="42.80503" lon="0.14518">
        <ele>2312</ele>
        <time>2014-06-08T04:23:24Z</time>
      </trkpt>
      <trkpt lat="42.80495" lon="0.14513">
        <ele>2314</ele>
        <time>2014-06-08T04:23:37Z</time>
      </trkpt>
      <trkpt lat="42.80489" lon="0.14509">
        <ele>2316</ele>
        <time>2014-06-08T04:23:50Z</time>
      </trkpt>
      <trkpt lat="42.80481" lon="0.14504">
        <ele>2319</ele>
        <time>2014-06-08T04:24:03Z</time>
      </trkpt>
      <trkpt lat="42.80481" lon="0.14504">
        <ele>2318</ele>
        <time>2014-06-08T04:24:04Z</time>
      </trkpt>
      <trkpt lat="42.80471" lon="0.14493">
        <ele>2320</ele>
        <time>2014-06-08T04:24:18Z</time>
      </trkpt>
      <trkpt lat="42.80464" lon="0.14485">
        <ele>2323</ele>
        <time>2014-06-08T04:24:31Z</time>
      </trkpt>
      <trkpt lat="42.80458" lon="0.14478">
        <ele>2324</ele>
        <time>2014-06-08T04:24:44Z</time>
      </trkpt>
      <trkpt lat="42.8045" lon="0.1447">
        <ele>2327</ele>
        <time>2014-06-08T04:24:59Z</time>
      </trkpt>
      <trkpt lat="42.80444" lon="0.14465">
        <ele>2329</ele>
        <time>2014-06-08T04:25:12Z</time>
      </trkpt>
      <trkpt lat="42.80439" lon="0.14459">
        <ele>2332</ele>
        <time>2014-06-08T04:25:25Z</time>
      </trkpt>
      <trkpt lat="42.80433" lon="0.14453">
        <ele>2334</ele>
        <time>2014-06-08T04:25:39Z</time>
      </trkpt>
      <trkpt lat="42.80426" lon="0.14444">
        <ele>2336</ele>
        <time>2014-06-08T04:25:54Z</time>
      </trkpt>
      <trkpt lat="42.80422" lon="0.14441">
        <ele>2338</ele>
        <time>2014-06-08T04:26:07Z</time>
      </trkpt>
      <trkpt lat="42.80418" lon="0.14432">
        <ele>2340</ele>
        <time>2014-06-08T04:26:19Z</time>
      </trkpt>
      <trkpt lat="42.80412" lon="0.14426">
        <ele>2343</ele>
        <time>2014-06-08T04:26:33Z</time>
      </trkpt>
      <trkpt lat="42.80406" lon="0.1442">
        <ele>2345</ele>
        <time>2014-06-08T04:26:48Z</time>
      </trkpt>
      <trkpt lat="42.804" lon="0.14413">
        <ele>2347</ele>
        <time>2014-06-08T04:27:02Z</time>
      </trkpt>
      <trkpt lat="42.80395" lon="0.14405">
        <ele>2350</ele>
        <time>2014-06-08T04:27:16Z</time>
      </trkpt>
      <trkpt lat="42.8039" lon="0.14398">
        <ele>2352</ele>
        <time>2014-06-08T04:27:30Z</time>
      </trkpt>
      <trkpt lat="42.80386" lon="0.14392">
        <ele>2353</ele>
        <time>2014-06-08T04:27:43Z</time>
      </trkpt>
      <trkpt lat="42.80381" lon="0.14385">
        <ele>2356</ele>
        <time>2014-06-08T04:27:56Z</time>
      </trkpt>
      <trkpt lat="42.80374" lon="0.14386">
        <ele>2358</ele>
        <time>2014-06-08T04:28:09Z</time>
      </trkpt>
      <trkpt lat="42.80367" lon="0.14388">
        <ele>2361</ele>
        <time>2014-06-08T04:28:22Z</time>
      </trkpt>
      <trkpt lat="42.80361" lon="0.14391">
        <ele>2364</ele>
        <time>2014-06-08T04:28:35Z</time>
      </trkpt>
      <trkpt lat="42.80361" lon="0.14386">
        <ele>2365</ele>
        <time>2014-06-08T04:28:49Z</time>
      </trkpt>
      <trkpt lat="42.80358" lon="0.14372">
        <ele>2366</ele>
        <time>2014-06-08T04:29:04Z</time>
      </trkpt>
      <trkpt lat="42.80359" lon="0.1436">
        <ele>2368</ele>
        <time>2014-06-08T04:29:18Z</time>
      </trkpt>
      <trkpt lat="42.8036" lon="0.14349">
        <ele>2371</ele>
        <time>2014-06-08T04:29:30Z</time>
      </trkpt>
      <trkpt lat="42.80361" lon="0.14344">
        <ele>2372</ele>
        <time>2014-06-08T04:29:35Z</time>
      </trkpt>
      <trkpt lat="42.80361" lon="0.14331">
        <ele>2374</ele>
        <time>2014-06-08T04:29:49Z</time>
      </trkpt>
      <trkpt lat="42.80362" lon="0.14319">
        <ele>2376</ele>
        <time>2014-06-08T04:30:02Z</time>
      </trkpt>
      <trkpt lat="42.80361" lon="0.1431">
        <ele>2378</ele>
        <time>2014-06-08T04:30:15Z</time>
      </trkpt>
      <trkpt lat="42.80353" lon="0.14314">
        <ele>2380</ele>
        <time>2014-06-08T04:30:30Z</time>
      </trkpt>
      <trkpt lat="42.80341" lon="0.14319">
        <ele>2383</ele>
        <time>2014-06-08T04:30:47Z</time>
      </trkpt>
      <trkpt lat="42.80335" lon="0.14315">
        <ele>2385</ele>
        <time>2014-06-08T04:31:01Z</time>
      </trkpt>
      <trkpt lat="42.80335" lon="0.14306">
        <ele>2387</ele>
        <time>2014-06-08T04:31:14Z</time>
      </trkpt>
      <trkpt lat="42.80336" lon="0.14296">
        <ele>2390</ele>
        <time>2014-06-08T04:31:28Z</time>
      </trkpt>
      <trkpt lat="42.80334" lon="0.14294">
        <ele>2391</ele>
        <time>2014-06-08T04:31:33Z</time>
      </trkpt>
      <trkpt lat="42.80323" lon="0.14297">
        <ele>2393</ele>
        <time>2014-06-08T04:31:48Z</time>
      </trkpt>
      <trkpt lat="42.80318" lon="0.14298">
        <ele>2395</ele>
        <time>2014-06-08T04:32:01Z</time>
      </trkpt>
      <trkpt lat="42.80321" lon="0.1429">
        <ele>2397</ele>
        <time>2014-06-08T04:32:12Z</time>
      </trkpt>
      <trkpt lat="42.80321" lon="0.14278">
        <ele>2399</ele>
        <time>2014-06-08T04:32:25Z</time>
      </trkpt>
      <trkpt lat="42.80321" lon="0.1427">
        <ele>2401</ele>
        <time>2014-06-08T04:32:32Z</time>
      </trkpt>
      <trkpt lat="42.80322" lon="0.14259">
        <ele>2402</ele>
        <time>2014-06-08T04:32:46Z</time>
      </trkpt>
      <trkpt lat="42.80321" lon="0.14245">
        <ele>2405</ele>
        <time>2014-06-08T04:33:01Z</time>
      </trkpt>
      <trkpt lat="42.80321" lon="0.14238">
        <ele>2407</ele>
        <time>2014-06-08T04:33:10Z</time>
      </trkpt>
      <trkpt lat="42.80321" lon="0.14226">
        <ele>2409</ele>
        <time>2014-06-08T04:33:23Z</time>
      </trkpt>
      <trkpt lat="42.80321" lon="0.14217">
        <ele>2411</ele>
        <time>2014-06-08T04:33:37Z</time>
      </trkpt>
      <trkpt lat="42.8032" lon="0.14206">
        <ele>2413</ele>
        <time>2014-06-08T04:33:49Z</time>
      </trkpt>
      <trkpt lat="42.8032" lon="0.14198">
        <ele>2414</ele>
        <time>2014-06-08T04:34:01Z</time>
      </trkpt>
      <trkpt lat="42.80318" lon="0.14189">
        <ele>2416</ele>
        <time>2014-06-08T04:34:12Z</time>
      </trkpt>
      <trkpt lat="42.80318" lon="0.14179">
        <ele>2418</ele>
        <time>2014-06-08T04:34:25Z</time>
      </trkpt>
      <trkpt lat="42.80318" lon="0.14168">
        <ele>2421</ele>
        <time>2014-06-08T04:34:38Z</time>
      </trkpt>
      <trkpt lat="42.80317" lon="0.14161">
        <ele>2422</ele>
        <time>2014-06-08T04:34:51Z</time>
      </trkpt>
      <trkpt lat="42.80316" lon="0.14151">
        <ele>2424</ele>
        <time>2014-06-08T04:35:03Z</time>
      </trkpt>
      <trkpt lat="42.80316" lon="0.14143">
        <ele>2426</ele>
        <time>2014-06-08T04:35:14Z</time>
      </trkpt>
      <trkpt lat="42.80316" lon="0.1414">
        <ele>2427</ele>
        <time>2014-06-08T04:35:21Z</time>
      </trkpt>
      <trkpt lat="42.80317" lon="0.14129">
        <ele>2428</ele>
        <time>2014-06-08T04:35:33Z</time>
      </trkpt>
      <trkpt lat="42.80318" lon="0.14125">
        <ele>2429</ele>
        <time>2014-06-08T04:35:45Z</time>
      </trkpt>
      <trkpt lat="42.80317" lon="0.14122">
        <ele>2429</ele>
        <time>2014-06-08T04:36:06Z</time>
      </trkpt>
      <trkpt lat="42.80315" lon="0.14116">
        <ele>2431</ele>
        <time>2014-06-08T04:36:19Z</time>
      </trkpt>
      <trkpt lat="42.80308" lon="0.14119">
        <ele>2433</ele>
        <time>2014-06-08T04:36:33Z</time>
      </trkpt>
      <trkpt lat="42.80301" lon="0.14123">
        <ele>2436</ele>
        <time>2014-06-08T04:36:48Z</time>
      </trkpt>
      <trkpt lat="42.80296" lon="0.14125">
        <ele>2438</ele>
        <time>2014-06-08T04:37:01Z</time>
      </trkpt>
      <trkpt lat="42.80297" lon="0.14116">
        <ele>2439</ele>
        <time>2014-06-08T04:37:12Z</time>
      </trkpt>
      <trkpt lat="42.80299" lon="0.14105">
        <ele>2442</ele>
        <time>2014-06-08T04:37:28Z</time>
      </trkpt>
      <trkpt lat="42.803" lon="0.1409">
        <ele>2443</ele>
        <time>2014-06-08T04:37:44Z</time>
      </trkpt>
      <trkpt lat="42.80299" lon="0.14092">
        <ele>2443</ele>
        <time>2014-06-08T04:38:05Z</time>
      </trkpt>
      <trkpt lat="42.80294" lon="0.14095">
        <ele>2445</ele>
        <time>2014-06-08T04:38:19Z</time>
      </trkpt>
      <trkpt lat="42.80287" lon="0.14099">
        <ele>2447</ele>
        <time>2014-06-08T04:38:32Z</time>
      </trkpt>
      <trkpt lat="42.80281" lon="0.14106">
        <ele>2448</ele>
        <time>2014-06-08T04:38:45Z</time>
      </trkpt>
      <trkpt lat="42.80271" lon="0.14111">
        <ele>2451</ele>
        <time>2014-06-08T04:39:01Z</time>
      </trkpt>
      <trkpt lat="42.80272" lon="0.14111">
        <ele>2451</ele>
        <time>2014-06-08T04:39:14Z</time>
      </trkpt>
      <trkpt lat="42.80273" lon="0.14102">
        <ele>2453</ele>
        <time>2014-06-08T04:39:24Z</time>
      </trkpt>
      <trkpt lat="42.80275" lon="0.1409">
        <ele>2456</ele>
        <time>2014-06-08T04:39:37Z</time>
      </trkpt>
      <trkpt lat="42.80277" lon="0.1408">
        <ele>2458</ele>
        <time>2014-06-08T04:39:51Z</time>
      </trkpt>
      <trkpt lat="42.80276" lon="0.14068">
        <ele>2461</ele>
        <time>2014-06-08T04:40:06Z</time>
      </trkpt>
      <trkpt lat="42.80278" lon="0.14058">
        <ele>2464</ele>
        <time>2014-06-08T04:40:21Z</time>
      </trkpt>
      <trkpt lat="42.8028" lon="0.14049">
        <ele>2464</ele>
        <time>2014-06-08T04:40:31Z</time>
      </trkpt>
      <trkpt lat="42.80284" lon="0.14037">
        <ele>2467</ele>
        <time>2014-06-08T04:40:45Z</time>
      </trkpt>
      <trkpt lat="42.80286" lon="0.14024">
        <ele>2469</ele>
        <time>2014-06-08T04:41:00Z</time>
      </trkpt>
      <trkpt lat="42.80286" lon="0.14008">
        <ele>2470</ele>
        <time>2014-06-08T04:41:16Z</time>
      </trkpt>
      <trkpt lat="42.80286" lon="0.14002">
        <ele>2472</ele>
        <time>2014-06-08T04:41:27Z</time>
      </trkpt>
      <trkpt lat="42.80285" lon="0.13995">
        <ele>2475</ele>
        <time>2014-06-08T04:41:40Z</time>
      </trkpt>
      <trkpt lat="42.80279" lon="0.13998">
        <ele>2476</ele>
        <time>2014-06-08T04:41:53Z</time>
      </trkpt>
      <trkpt lat="42.80273" lon="0.14004">
        <ele>2479</ele>
        <time>2014-06-08T04:42:07Z</time>
      </trkpt>
      <trkpt lat="42.80266" lon="0.1401">
        <ele>2480</ele>
        <time>2014-06-08T04:42:19Z</time>
      </trkpt>
      <trkpt lat="42.8026" lon="0.14015">
        <ele>2483</ele>
        <time>2014-06-08T04:42:33Z</time>
      </trkpt>
      <trkpt lat="42.80251" lon="0.14021">
        <ele>2486</ele>
        <time>2014-06-08T04:42:48Z</time>
      </trkpt>
      <trkpt lat="42.80251" lon="0.14021">
        <ele>2486</ele>
        <time>2014-06-08T04:43:00Z</time>
      </trkpt>
      <trkpt lat="42.80251" lon="0.14012">
        <ele>2488</ele>
        <time>2014-06-08T04:43:12Z</time>
      </trkpt>
      <trkpt lat="42.8025" lon="0.14001">
        <ele>2490</ele>
        <time>2014-06-08T04:43:27Z</time>
      </trkpt>
      <trkpt lat="42.80251" lon="0.13991">
        <ele>2492</ele>
        <time>2014-06-08T04:43:38Z</time>
      </trkpt>
      <trkpt lat="42.80251" lon="0.13982">
        <ele>2494</ele>
        <time>2014-06-08T04:43:53Z</time>
      </trkpt>
      <trkpt lat="42.80252" lon="0.13975">
        <ele>2495</ele>
        <time>2014-06-08T04:44:05Z</time>
      </trkpt>
      <trkpt lat="42.80251" lon="0.13975">
        <ele>2495</ele>
        <time>2014-06-08T04:44:21Z</time>
      </trkpt>
      <trkpt lat="42.80245" lon="0.13977">
        <ele>2498</ele>
        <time>2014-06-08T04:44:35Z</time>
      </trkpt>
      <trkpt lat="42.80237" lon="0.13983">
        <ele>2500</ele>
        <time>2014-06-08T04:44:50Z</time>
      </trkpt>
      <trkpt lat="42.80236" lon="0.13983">
        <ele>2501</ele>
        <time>2014-06-08T04:45:02Z</time>
      </trkpt>
      <trkpt lat="42.80236" lon="0.13975">
        <ele>2503</ele>
        <time>2014-06-08T04:45:15Z</time>
      </trkpt>
      <trkpt lat="42.80236" lon="0.13967">
        <ele>2505</ele>
        <time>2014-06-08T04:45:27Z</time>
      </trkpt>
      <trkpt lat="42.80237" lon="0.13953">
        <ele>2508</ele>
        <time>2014-06-08T04:45:43Z</time>
      </trkpt>
      <trkpt lat="42.80237" lon="0.13953">
        <ele>2507</ele>
        <time>2014-06-08T04:46:03Z</time>
      </trkpt>
      <trkpt lat="42.80238" lon="0.13954">
        <ele>2507</ele>
        <time>2014-06-08T04:46:18Z</time>
      </trkpt>
      <trkpt lat="42.80237" lon="0.13952">
        <ele>2509</ele>
        <time>2014-06-08T04:46:32Z</time>
      </trkpt>
      <trkpt lat="42.80237" lon="0.13947">
        <ele>2511</ele>
        <time>2014-06-08T04:46:41Z</time>
      </trkpt>
      <trkpt lat="42.80237" lon="0.13939">
        <ele>2511</ele>
        <time>2014-06-08T04:46:53Z</time>
      </trkpt>
      <trkpt lat="42.80233" lon="0.13936">
        <ele>2512</ele>
        <time>2014-06-08T04:47:08Z</time>
      </trkpt>
      <trkpt lat="42.80233" lon="0.13935">
        <ele>2512</ele>
        <time>2014-06-08T04:47:26Z</time>
      </trkpt>
      <trkpt lat="42.80233" lon="0.13936">
        <ele>2512</ele>
        <time>2014-06-08T04:47:46Z</time>
      </trkpt>
      <trkpt lat="42.80232" lon="0.13936">
        <ele>2512</ele>
        <time>2014-06-08T04:48:08Z</time>
      </trkpt>
      <trkpt lat="42.80233" lon="0.13937">
        <ele>2513</ele>
        <time>2014-06-08T04:48:25Z</time>
      </trkpt>
      <trkpt lat="42.80229" lon="0.13929">
        <ele>2514</ele>
        <time>2014-06-08T04:48:42Z</time>
      </trkpt>
      <trkpt lat="42.80223" lon="0.13918">
        <ele>2517</ele>
        <time>2014-06-08T04:48:57Z</time>
      </trkpt>
      <trkpt lat="42.80219" lon="0.13911">
        <ele>2519</ele>
        <time>2014-06-08T04:49:11Z</time>
      </trkpt>
      <trkpt lat="42.80211" lon="0.139">
        <ele>2522</ele>
        <time>2014-06-08T04:49:28Z</time>
      </trkpt>
      <trkpt lat="42.80206" lon="0.13891">
        <ele>2524</ele>
        <time>2014-06-08T04:49:42Z</time>
      </trkpt>
      <trkpt lat="42.80201" lon="0.13877">
        <ele>2526</ele>
        <time>2014-06-08T04:49:59Z</time>
      </trkpt>
      <trkpt lat="42.80199" lon="0.1387">
        <ele>2527</ele>
        <time>2014-06-08T04:50:11Z</time>
      </trkpt>
      <trkpt lat="42.80196" lon="0.13862">
        <ele>2530</ele>
        <time>2014-06-08T04:50:23Z</time>
      </trkpt>
      <trkpt lat="42.80194" lon="0.13857">
        <ele>2531</ele>
        <time>2014-06-08T04:50:34Z</time>
      </trkpt>
      <trkpt lat="42.80194" lon="0.13858">
        <ele>2530</ele>
        <time>2014-06-08T04:50:55Z</time>
      </trkpt>
      <trkpt lat="42.80189" lon="0.13849">
        <ele>2533</ele>
        <time>2014-06-08T04:51:09Z</time>
      </trkpt>
      <trkpt lat="42.80183" lon="0.1384">
        <ele>2535</ele>
        <time>2014-06-08T04:51:23Z</time>
      </trkpt>
      <trkpt lat="42.80178" lon="0.13832">
        <ele>2538</ele>
        <time>2014-06-08T04:51:38Z</time>
      </trkpt>
      <trkpt lat="42.80175" lon="0.13824">
        <ele>2540</ele>
        <time>2014-06-08T04:51:50Z</time>
      </trkpt>
      <trkpt lat="42.8017" lon="0.13816">
        <ele>2542</ele>
        <time>2014-06-08T04:52:02Z</time>
      </trkpt>
      <trkpt lat="42.80165" lon="0.13804">
        <ele>2544</ele>
        <time>2014-06-08T04:52:14Z</time>
      </trkpt>
      <trkpt lat="42.80162" lon="0.13797">
        <ele>2546</ele>
        <time>2014-06-08T04:52:26Z</time>
      </trkpt>
      <trkpt lat="42.80154" lon="0.13783">
        <ele>2549</ele>
        <time>2014-06-08T04:52:43Z</time>
      </trkpt>
      <trkpt lat="42.80147" lon="0.13773">
        <ele>2551</ele>
        <time>2014-06-08T04:52:59Z</time>
      </trkpt>
      <trkpt lat="42.80143" lon="0.13765">
        <ele>2553</ele>
        <time>2014-06-08T04:53:12Z</time>
      </trkpt>
      <trkpt lat="42.80137" lon="0.13755">
        <ele>2554</ele>
        <time>2014-06-08T04:53:26Z</time>
      </trkpt>
      <trkpt lat="42.80133" lon="0.13745">
        <ele>2556</ele>
        <time>2014-06-08T04:53:38Z</time>
      </trkpt>
      <trkpt lat="42.80129" lon="0.13737">
        <ele>2557</ele>
        <time>2014-06-08T04:53:51Z</time>
      </trkpt>
      <trkpt lat="42.80126" lon="0.13733">
        <ele>2558</ele>
        <time>2014-06-08T04:54:03Z</time>
      </trkpt>
      <trkpt lat="42.80122" lon="0.13723">
        <ele>2559</ele>
        <time>2014-06-08T04:54:16Z</time>
      </trkpt>
      <trkpt lat="42.8012" lon="0.13716">
        <ele>2559</ele>
        <time>2014-06-08T04:54:27Z</time>
      </trkpt>
      <trkpt lat="42.80113" lon="0.13704">
        <ele>2560</ele>
        <time>2014-06-08T04:54:39Z</time>
      </trkpt>
      <trkpt lat="42.80108" lon="0.13692">
        <ele>2561</ele>
        <time>2014-06-08T04:54:54Z</time>
      </trkpt>
      <trkpt lat="42.80106" lon="0.13686">
        <ele>2561</ele>
        <time>2014-06-08T04:55:00Z</time>
      </trkpt>
      <trkpt lat="42.80105" lon="0.13681">
        <ele>2560</ele>
        <time>2014-06-08T04:55:15Z</time>
      </trkpt>
      <trkpt lat="42.80104" lon="0.13668">
        <ele>2560</ele>
        <time>2014-06-08T04:55:28Z</time>
      </trkpt>
      <trkpt lat="42.80105" lon="0.13656">
        <ele>2559</ele>
        <time>2014-06-08T04:55:38Z</time>
      </trkpt>
      <trkpt lat="42.80105" lon="0.1364">
        <ele>2558</ele>
        <time>2014-06-08T04:55:53Z</time>
      </trkpt>
      <trkpt lat="42.80104" lon="0.13635">
        <ele>2557</ele>
        <time>2014-06-08T04:56:02Z</time>
      </trkpt>
      <trkpt lat="42.80104" lon="0.13629">
        <ele>2555</ele>
        <time>2014-06-08T04:56:19Z</time>
      </trkpt>
      <trkpt lat="42.80104" lon="0.13624">
        <ele>2557</ele>
        <time>2014-06-08T04:56:28Z</time>
      </trkpt>
      <trkpt lat="42.80102" lon="0.13611">
        <ele>2558</ele>
        <time>2014-06-08T04:56:42Z</time>
      </trkpt>
      <trkpt lat="42.80099" lon="0.13603">
        <ele>2559</ele>
        <time>2014-06-08T04:56:55Z</time>
      </trkpt>
      <trkpt lat="42.80097" lon="0.13597">
        <ele>2561</ele>
        <time>2014-06-08T04:57:07Z</time>
      </trkpt>
      <trkpt lat="42.80096" lon="0.13594">
        <ele>2561</ele>
        <time>2014-06-08T04:57:12Z</time>
      </trkpt>
      <trkpt lat="42.80094" lon="0.13586">
        <ele>2562</ele>
        <time>2014-06-08T04:57:23Z</time>
      </trkpt>
      <trkpt lat="42.80094" lon="0.13577">
        <ele>2562</ele>
        <time>2014-06-08T04:57:35Z</time>
      </trkpt>
      <trkpt lat="42.8009" lon="0.13575">
        <ele>2563</ele>
        <time>2014-06-08T04:57:50Z</time>
      </trkpt>
      <trkpt lat="42.80091" lon="0.13568">
        <ele>2564</ele>
        <time>2014-06-08T04:58:11Z</time>
      </trkpt>
      <trkpt lat="42.80092" lon="0.13559">
        <ele>2565</ele>
        <time>2014-06-08T04:58:22Z</time>
      </trkpt>
      <trkpt lat="42.80095" lon="0.13544">
        <ele>2566</ele>
        <time>2014-06-08T04:58:35Z</time>
      </trkpt>
      <trkpt lat="42.80097" lon="0.13546">
        <ele>2567</ele>
        <time>2014-06-08T04:58:57Z</time>
      </trkpt>
      <trkpt lat="42.80095" lon="0.13543">
        <ele>2568</ele>
        <time>2014-06-08T04:59:13Z</time>
      </trkpt>
      <trkpt lat="42.80095" lon="0.13543">
        <ele>2568</ele>
        <time>2014-06-08T04:59:14Z</time>
      </trkpt>
      <trkpt lat="42.8009" lon="0.13548">
        <ele>2569</ele>
        <time>2014-06-08T04:59:27Z</time>
      </trkpt>
      <trkpt lat="42.80087" lon="0.13549">
        <ele>2570</ele>
        <time>2014-06-08T04:59:40Z</time>
      </trkpt>
      <trkpt lat="42.80087" lon="0.13539">
        <ele>2572</ele>
        <time>2014-06-08T04:59:51Z</time>
      </trkpt>
      <trkpt lat="42.80089" lon="0.13532">
        <ele>2573</ele>
        <time>2014-06-08T05:00:01Z</time>
      </trkpt>
      <trkpt lat="42.80093" lon="0.13523">
        <ele>2574</ele>
        <time>2014-06-08T05:00:14Z</time>
      </trkpt>
      <trkpt lat="42.80089" lon="0.13525">
        <ele>2575</ele>
        <time>2014-06-08T05:00:24Z</time>
      </trkpt>
      <trkpt lat="42.80084" lon="0.13529">
        <ele>2576</ele>
        <time>2014-06-08T05:00:37Z</time>
      </trkpt>
      <trkpt lat="42.80081" lon="0.13531">
        <ele>2576</ele>
        <time>2014-06-08T05:00:51Z</time>
      </trkpt>
      <trkpt lat="42.80086" lon="0.1352">
        <ele>2578</ele>
        <time>2014-06-08T05:01:05Z</time>
      </trkpt>
      <trkpt lat="42.80092" lon="0.1351">
        <ele>2580</ele>
        <time>2014-06-08T05:01:18Z</time>
      </trkpt>
      <trkpt lat="42.80094" lon="0.13506">
        <ele>2581</ele>
        <time>2014-06-08T05:01:23Z</time>
      </trkpt>
      <trkpt lat="42.80098" lon="0.13499">
        <ele>2583</ele>
        <time>2014-06-08T05:01:36Z</time>
      </trkpt>
      <trkpt lat="42.80096" lon="0.135">
        <ele>2585</ele>
        <time>2014-06-08T05:01:45Z</time>
      </trkpt>
      <trkpt lat="42.80082" lon="0.13503">
        <ele>2587</ele>
        <time>2014-06-08T05:02:02Z</time>
      </trkpt>
      <trkpt lat="42.80078" lon="0.13503">
        <ele>2589</ele>
        <time>2014-06-08T05:02:12Z</time>
      </trkpt>
      <trkpt lat="42.80078" lon="0.13501">
        <ele>2590</ele>
        <time>2014-06-08T05:02:15Z</time>
      </trkpt>
      <trkpt lat="42.8008" lon="0.13494">
        <ele>2592</ele>
        <time>2014-06-08T05:02:26Z</time>
      </trkpt>
      <trkpt lat="42.80085" lon="0.13485">
        <ele>2593</ele>
        <time>2014-06-08T05:02:39Z</time>
      </trkpt>
      <trkpt lat="42.80087" lon="0.13479">
        <ele>2596</ele>
        <time>2014-06-08T05:02:52Z</time>
      </trkpt>
      <trkpt lat="42.80091" lon="0.13464">
        <ele>2599</ele>
        <time>2014-06-08T05:03:07Z</time>
      </trkpt>
      <trkpt lat="42.80092" lon="0.13462">
        <ele>2599</ele>
        <time>2014-06-08T05:03:24Z</time>
      </trkpt>
      <trkpt lat="42.80095" lon="0.13458">
        <ele>2601</ele>
        <time>2014-06-08T05:03:35Z</time>
      </trkpt>
      <trkpt lat="42.80095" lon="0.13457">
        <ele>2601</ele>
        <time>2014-06-08T05:03:45Z</time>
      </trkpt>
      <trkpt lat="42.80087" lon="0.13459">
        <ele>2603</ele>
        <time>2014-06-08T05:03:59Z</time>
      </trkpt>
      <trkpt lat="42.80089" lon="0.13456">
        <ele>2604</ele>
        <time>2014-06-08T05:04:09Z</time>
      </trkpt>
      <trkpt lat="42.80093" lon="0.13448">
        <ele>2606</ele>
        <time>2014-06-08T05:04:23Z</time>
      </trkpt>
      <trkpt lat="42.80098" lon="0.13441">
        <ele>2608</ele>
        <time>2014-06-08T05:04:36Z</time>
      </trkpt>
      <trkpt lat="42.80099" lon="0.1344">
        <ele>2608</ele>
        <time>2014-06-08T05:04:48Z</time>
      </trkpt>
      <trkpt lat="42.80097" lon="0.1344">
        <ele>2609</ele>
        <time>2014-06-08T05:05:04Z</time>
      </trkpt>
      <trkpt lat="42.80098" lon="0.13438">
        <ele>2611</ele>
        <time>2014-06-08T05:05:14Z</time>
      </trkpt>
      <trkpt lat="42.801" lon="0.13435">
        <ele>2612</ele>
        <time>2014-06-08T05:05:18Z</time>
      </trkpt>
      <trkpt lat="42.80108" lon="0.13429">
        <ele>2613</ele>
        <time>2014-06-08T05:05:32Z</time>
      </trkpt>
      <trkpt lat="42.80109" lon="0.1343">
        <ele>2614</ele>
        <time>2014-06-08T05:05:35Z</time>
      </trkpt>
      <trkpt lat="42.80101" lon="0.1343">
        <ele>2616</ele>
        <time>2014-06-08T05:05:46Z</time>
      </trkpt>
      <trkpt lat="42.80098" lon="0.13432">
        <ele>2616</ele>
        <time>2014-06-08T05:05:58Z</time>
      </trkpt>
      <trkpt lat="42.80094" lon="0.13431">
        <ele>2617</ele>
        <time>2014-06-08T05:06:18Z</time>
      </trkpt>
      <trkpt lat="42.80098" lon="0.13427">
        <ele>2618</ele>
        <time>2014-06-08T05:06:28Z</time>
      </trkpt>
      <trkpt lat="42.801" lon="0.13422">
        <ele>2619</ele>
        <time>2014-06-08T05:06:34Z</time>
      </trkpt>
      <trkpt lat="42.80105" lon="0.13411">
        <ele>2622</ele>
        <time>2014-06-08T05:06:48Z</time>
      </trkpt>
      <trkpt lat="42.80109" lon="0.13405">
        <ele>2623</ele>
        <time>2014-06-08T05:07:02Z</time>
      </trkpt>
      <trkpt lat="42.80103" lon="0.13405">
        <ele>2625</ele>
        <time>2014-06-08T05:07:14Z</time>
      </trkpt>
      <trkpt lat="42.80094" lon="0.13407">
        <ele>2627</ele>
        <time>2014-06-08T05:07:27Z</time>
      </trkpt>
      <trkpt lat="42.80084" lon="0.13407">
        <ele>2630</ele>
        <time>2014-06-08T05:07:41Z</time>
      </trkpt>
      <trkpt lat="42.80076" lon="0.13413">
        <ele>2633</ele>
        <time>2014-06-08T05:07:55Z</time>
      </trkpt>
      <trkpt lat="42.80067" lon="0.13414">
        <ele>2635</ele>
        <time>2014-06-08T05:08:09Z</time>
      </trkpt>
      <trkpt lat="42.8006" lon="0.13418">
        <ele>2637</ele>
        <time>2014-06-08T05:08:21Z</time>
      </trkpt>
      <trkpt lat="42.80052" lon="0.13421">
        <ele>2640</ele>
        <time>2014-06-08T05:08:34Z</time>
      </trkpt>
      <trkpt lat="42.80047" lon="0.13422">
        <ele>2642</ele>
        <time>2014-06-08T05:08:49Z</time>
      </trkpt>
      <trkpt lat="42.80048" lon="0.13421">
        <ele>2642</ele>
        <time>2014-06-08T05:08:51Z</time>
      </trkpt>
      <trkpt lat="42.80052" lon="0.13412">
        <ele>2644</ele>
        <time>2014-06-08T05:09:03Z</time>
      </trkpt>
      <trkpt lat="42.80057" lon="0.13405">
        <ele>2647</ele>
        <time>2014-06-08T05:09:18Z</time>
      </trkpt>
      <trkpt lat="42.80053" lon="0.13404">
        <ele>2647</ele>
        <time>2014-06-08T05:09:27Z</time>
      </trkpt>
      <trkpt lat="42.80049" lon="0.13405">
        <ele>2648</ele>
        <time>2014-06-08T05:09:32Z</time>
      </trkpt>
      <trkpt lat="42.80039" lon="0.13411">
        <ele>2650</ele>
        <time>2014-06-08T05:09:46Z</time>
      </trkpt>
      <trkpt lat="42.8003" lon="0.13416">
        <ele>2653</ele>
        <time>2014-06-08T05:10:01Z</time>
      </trkpt>
      <trkpt lat="42.80021" lon="0.1342">
        <ele>2655</ele>
        <time>2014-06-08T05:10:16Z</time>
      </trkpt>
      <trkpt lat="42.80017" lon="0.13421">
        <ele>2656</ele>
        <time>2014-06-08T05:10:29Z</time>
      </trkpt>
      <trkpt lat="42.80017" lon="0.13419">
        <ele>2656</ele>
        <time>2014-06-08T05:10:32Z</time>
      </trkpt>
      <trkpt lat="42.80022" lon="0.13407">
        <ele>2658</ele>
        <time>2014-06-08T05:10:47Z</time>
      </trkpt>
      <trkpt lat="42.80027" lon="0.13393">
        <ele>2660</ele>
        <time>2014-06-08T05:11:01Z</time>
      </trkpt>
      <trkpt lat="42.80033" lon="0.13382">
        <ele>2662</ele>
        <time>2014-06-08T05:11:14Z</time>
      </trkpt>
      <trkpt lat="42.80038" lon="0.13371">
        <ele>2663</ele>
        <time>2014-06-08T05:11:27Z</time>
      </trkpt>
      <trkpt lat="42.80043" lon="0.13361">
        <ele>2666</ele>
        <time>2014-06-08T05:11:41Z</time>
      </trkpt>
      <trkpt lat="42.8005" lon="0.13351">
        <ele>2668</ele>
        <time>2014-06-08T05:11:54Z</time>
      </trkpt>
      <trkpt lat="42.80056" lon="0.13341">
        <ele>2670</ele>
        <time>2014-06-08T05:12:07Z</time>
      </trkpt>
      <trkpt lat="42.80059" lon="0.13339">
        <ele>2672</ele>
        <time>2014-06-08T05:12:18Z</time>
      </trkpt>
      <trkpt lat="42.80049" lon="0.13338">
        <ele>2674</ele>
        <time>2014-06-08T05:12:31Z</time>
      </trkpt>
      <trkpt lat="42.8004" lon="0.13338">
        <ele>2676</ele>
        <time>2014-06-08T05:12:45Z</time>
      </trkpt>
      <trkpt lat="42.80035" lon="0.13337">
        <ele>2677</ele>
        <time>2014-06-08T05:12:58Z</time>
      </trkpt>
      <trkpt lat="42.8004" lon="0.13328">
        <ele>2679</ele>
        <time>2014-06-08T05:13:11Z</time>
      </trkpt>
      <trkpt lat="42.80042" lon="0.13321">
        <ele>2682</ele>
        <time>2014-06-08T05:13:22Z</time>
      </trkpt>
      <trkpt lat="42.80044" lon="0.13317">
        <ele>2683</ele>
        <time>2014-06-08T05:13:36Z</time>
      </trkpt>
      <trkpt lat="42.80045" lon="0.1331">
        <ele>2684</ele>
        <time>2014-06-08T05:13:47Z</time>
      </trkpt>
      <trkpt lat="42.80042" lon="0.1331">
        <ele>2685</ele>
        <time>2014-06-08T05:13:59Z</time>
      </trkpt>
      <trkpt lat="42.80035" lon="0.13308">
        <ele>2688</ele>
        <time>2014-06-08T05:14:12Z</time>
      </trkpt>
      <trkpt lat="42.80027" lon="0.13307">
        <ele>2691</ele>
        <time>2014-06-08T05:14:26Z</time>
      </trkpt>
      <trkpt lat="42.8003" lon="0.13301">
        <ele>2692</ele>
        <time>2014-06-08T05:14:39Z</time>
      </trkpt>
      <trkpt lat="42.80035" lon="0.13293">
        <ele>2695</ele>
        <time>2014-06-08T05:14:52Z</time>
      </trkpt>
      <trkpt lat="42.80033" lon="0.1329">
        <ele>2696</ele>
        <time>2014-06-08T05:15:04Z</time>
      </trkpt>
      <trkpt lat="42.80023" lon="0.13287">
        <ele>2699</ele>
        <time>2014-06-08T05:15:18Z</time>
      </trkpt>
      <trkpt lat="42.80018" lon="0.13285">
        <ele>2701</ele>
        <time>2014-06-08T05:15:34Z</time>
      </trkpt>
      <trkpt lat="42.80022" lon="0.1328">
        <ele>2702</ele>
        <time>2014-06-08T05:15:46Z</time>
      </trkpt>
      <trkpt lat="42.80029" lon="0.1327">
        <ele>2704</ele>
        <time>2014-06-08T05:16:01Z</time>
      </trkpt>
      <trkpt lat="42.80033" lon="0.13266">
        <ele>2706</ele>
        <time>2014-06-08T05:16:11Z</time>
      </trkpt>
      <trkpt lat="42.80028" lon="0.13266">
        <ele>2708</ele>
        <time>2014-06-08T05:16:21Z</time>
      </trkpt>
      <trkpt lat="42.80023" lon="0.13264">
        <ele>2710</ele>
        <time>2014-06-08T05:16:34Z</time>
      </trkpt>
      <trkpt lat="42.80029" lon="0.13257">
        <ele>2711</ele>
        <time>2014-06-08T05:16:46Z</time>
      </trkpt>
      <trkpt lat="42.80028" lon="0.13256">
        <ele>2713</ele>
        <time>2014-06-08T05:17:01Z</time>
      </trkpt>
      <trkpt lat="42.80018" lon="0.13255">
        <ele>2715</ele>
        <time>2014-06-08T05:17:14Z</time>
      </trkpt>
      <trkpt lat="42.80023" lon="0.13248">
        <ele>2717</ele>
        <time>2014-06-08T05:17:28Z</time>
      </trkpt>
      <trkpt lat="42.80027" lon="0.13242">
        <ele>2720</ele>
        <time>2014-06-08T05:17:40Z</time>
      </trkpt>
      <trkpt lat="42.80034" lon="0.13234">
        <ele>2722</ele>
        <time>2014-06-08T05:17:54Z</time>
      </trkpt>
      <trkpt lat="42.8004" lon="0.13229">
        <ele>2724</ele>
        <time>2014-06-08T05:18:07Z</time>
      </trkpt>
      <trkpt lat="42.80047" lon="0.13223">
        <ele>2727</ele>
        <time>2014-06-08T05:18:20Z</time>
      </trkpt>
      <trkpt lat="42.80051" lon="0.13216">
        <ele>2728</ele>
        <time>2014-06-08T05:18:34Z</time>
      </trkpt>
      <trkpt lat="42.8004" lon="0.1321">
        <ele>2731</ele>
        <time>2014-06-08T05:18:51Z</time>
      </trkpt>
      <trkpt lat="42.80031" lon="0.13207">
        <ele>2734</ele>
        <time>2014-06-08T05:19:07Z</time>
      </trkpt>
      <trkpt lat="42.80022" lon="0.13205">
        <ele>2737</ele>
        <time>2014-06-08T05:19:21Z</time>
      </trkpt>
      <trkpt lat="42.80012" lon="0.13203">
        <ele>2740</ele>
        <time>2014-06-08T05:19:36Z</time>
      </trkpt>
      <trkpt lat="42.80003" lon="0.13201">
        <ele>2742</ele>
        <time>2014-06-08T05:19:51Z</time>
      </trkpt>
      <trkpt lat="42.80002" lon="0.132">
        <ele>2743</ele>
        <time>2014-06-08T05:19:54Z</time>
      </trkpt>
      <trkpt lat="42.80005" lon="0.13195">
        <ele>2743</ele>
        <time>2014-06-08T05:20:04Z</time>
      </trkpt>
      <trkpt lat="42.80012" lon="0.13186">
        <ele>2745</ele>
        <time>2014-06-08T05:20:18Z</time>
      </trkpt>
      <trkpt lat="42.80014" lon="0.13178">
        <ele>2747</ele>
        <time>2014-06-08T05:20:32Z</time>
      </trkpt>
      <trkpt lat="42.80019" lon="0.13168">
        <ele>2749</ele>
        <time>2014-06-08T05:20:47Z</time>
      </trkpt>
      <trkpt lat="42.80024" lon="0.13158">
        <ele>2751</ele>
        <time>2014-06-08T05:21:00Z</time>
      </trkpt>
      <trkpt lat="42.80028" lon="0.13147">
        <ele>2754</ele>
        <time>2014-06-08T05:21:15Z</time>
      </trkpt>
      <trkpt lat="42.80028" lon="0.13144">
        <ele>2755</ele>
        <time>2014-06-08T05:21:26Z</time>
      </trkpt>
      <trkpt lat="42.80016" lon="0.13144">
        <ele>2758</ele>
        <time>2014-06-08T05:21:43Z</time>
      </trkpt>
      <trkpt lat="42.80015" lon="0.13144">
        <ele>2758</ele>
        <time>2014-06-08T05:21:44Z</time>
      </trkpt>
      <trkpt lat="42.80007" lon="0.13142">
        <ele>2761</ele>
        <time>2014-06-08T05:21:59Z</time>
      </trkpt>
      <trkpt lat="42.80011" lon="0.13137">
        <ele>2762</ele>
        <time>2014-06-08T05:22:15Z</time>
      </trkpt>
      <trkpt lat="42.80014" lon="0.13128">
        <ele>2764</ele>
        <time>2014-06-08T05:22:29Z</time>
      </trkpt>
      <trkpt lat="42.80018" lon="0.1312">
        <ele>2767</ele>
        <time>2014-06-08T05:22:42Z</time>
      </trkpt>
      <trkpt lat="42.80012" lon="0.13119">
        <ele>2768</ele>
        <time>2014-06-08T05:22:53Z</time>
      </trkpt>
      <trkpt lat="42.80005" lon="0.13119">
        <ele>2769</ele>
        <time>2014-06-08T05:23:06Z</time>
      </trkpt>
      <trkpt lat="42.79996" lon="0.1312">
        <ele>2771</ele>
        <time>2014-06-08T05:23:20Z</time>
      </trkpt>
      <trkpt lat="42.79989" lon="0.1312">
        <ele>2774</ele>
        <time>2014-06-08T05:23:34Z</time>
      </trkpt>
      <trkpt lat="42.7999" lon="0.1312">
        <ele>2775</ele>
        <time>2014-06-08T05:23:45Z</time>
      </trkpt>
      <trkpt lat="42.79992" lon="0.13113">
        <ele>2777</ele>
        <time>2014-06-08T05:23:55Z</time>
      </trkpt>
      <trkpt lat="42.79997" lon="0.13105">
        <ele>2779</ele>
        <time>2014-06-08T05:24:09Z</time>
      </trkpt>
      <trkpt lat="42.79999" lon="0.13097">
        <ele>2781</ele>
        <time>2014-06-08T05:24:22Z</time>
      </trkpt>
      <trkpt lat="42.80001" lon="0.13092">
        <ele>2782</ele>
        <time>2014-06-08T05:24:27Z</time>
      </trkpt>
      <trkpt lat="42.80001" lon="0.13091">
        <ele>2783</ele>
        <time>2014-06-08T05:24:37Z</time>
      </trkpt>
      <trkpt lat="42.80001" lon="0.1309">
        <ele>2784</ele>
        <time>2014-06-08T05:24:39Z</time>
      </trkpt>
      <trkpt lat="42.7999" lon="0.13092">
        <ele>2787</ele>
        <time>2014-06-08T05:24:55Z</time>
      </trkpt>
      <trkpt lat="42.79987" lon="0.13093">
        <ele>2787</ele>
        <time>2014-06-08T05:25:01Z</time>
      </trkpt>
      <trkpt lat="42.79988" lon="0.13092">
        <ele>2788</ele>
        <time>2014-06-08T05:25:12Z</time>
      </trkpt>
      <trkpt lat="42.79988" lon="0.13092">
        <ele>2788</ele>
        <time>2014-06-08T05:25:13Z</time>
      </trkpt>
      <trkpt lat="42.79994" lon="0.13083">
        <ele>2790</ele>
        <time>2014-06-08T05:25:28Z</time>
      </trkpt>
      <trkpt lat="42.79988" lon="0.13085">
        <ele>2790</ele>
        <time>2014-06-08T05:25:39Z</time>
      </trkpt>
      <trkpt lat="42.79983" lon="0.13086">
        <ele>2793</ele>
        <time>2014-06-08T05:25:51Z</time>
      </trkpt>
      <trkpt lat="42.79987" lon="0.1308">
        <ele>2794</ele>
        <time>2014-06-08T05:26:02Z</time>
      </trkpt>
      <trkpt lat="42.79991" lon="0.13073">
        <ele>2795</ele>
        <time>2014-06-08T05:26:14Z</time>
      </trkpt>
      <trkpt lat="42.79994" lon="0.13071">
        <ele>2797</ele>
        <time>2014-06-08T05:26:23Z</time>
      </trkpt>
      <trkpt lat="42.79986" lon="0.1307">
        <ele>2799</ele>
        <time>2014-06-08T05:26:36Z</time>
      </trkpt>
      <trkpt lat="42.79973" lon="0.13072">
        <ele>2801</ele>
        <time>2014-06-08T05:26:52Z</time>
      </trkpt>
      <trkpt lat="42.79966" lon="0.13075">
        <ele>2802</ele>
        <time>2014-06-08T05:27:03Z</time>
      </trkpt>
      <trkpt lat="42.79957" lon="0.13076">
        <ele>2805</ele>
        <time>2014-06-08T05:27:17Z</time>
      </trkpt>
      <trkpt lat="42.79949" lon="0.13078">
        <ele>2808</ele>
        <time>2014-06-08T05:27:30Z</time>
      </trkpt>
      <trkpt lat="42.79941" lon="0.1308">
        <ele>2810</ele>
        <time>2014-06-08T05:27:47Z</time>
      </trkpt>
      <trkpt lat="42.7994" lon="0.13082">
        <ele>2811</ele>
        <time>2014-06-08T05:28:01Z</time>
      </trkpt>
      <trkpt lat="42.79935" lon="0.13083">
        <ele>2812</ele>
        <time>2014-06-08T05:28:21Z</time>
      </trkpt>
      <trkpt lat="42.79939" lon="0.13078">
        <ele>2813</ele>
        <time>2014-06-08T05:28:33Z</time>
      </trkpt>
      <trkpt lat="42.79943" lon="0.13068">
        <ele>2815</ele>
        <time>2014-06-08T05:28:48Z</time>
      </trkpt>
      <trkpt lat="42.79945" lon="0.13061">
        <ele>2817</ele>
        <time>2014-06-08T05:29:01Z</time>
      </trkpt>
      <trkpt lat="42.7995" lon="0.13055">
        <ele>2819</ele>
        <time>2014-06-08T05:29:16Z</time>
      </trkpt>
      <trkpt lat="42.79949" lon="0.13054">
        <ele>2820</ele>
        <time>2014-06-08T05:29:28Z</time>
      </trkpt>
      <trkpt lat="42.79942" lon="0.13054">
        <ele>2822</ele>
        <time>2014-06-08T05:29:40Z</time>
      </trkpt>
      <trkpt lat="42.79935" lon="0.13055">
        <ele>2823</ele>
        <time>2014-06-08T05:29:53Z</time>
      </trkpt>
      <trkpt lat="42.79929" lon="0.13055">
        <ele>2825</ele>
        <time>2014-06-08T05:30:09Z</time>
      </trkpt>
      <trkpt lat="42.79923" lon="0.13059">
        <ele>2828</ele>
        <time>2014-06-08T05:30:23Z</time>
      </trkpt>
      <trkpt lat="42.79923" lon="0.1306">
        <ele>2830</ele>
        <time>2014-06-08T05:30:37Z</time>
      </trkpt>
      <trkpt lat="42.79926" lon="0.13053">
        <ele>2832</ele>
        <time>2014-06-08T05:30:49Z</time>
      </trkpt>
      <trkpt lat="42.7993" lon="0.13043">
        <ele>2834</ele>
        <time>2014-06-08T05:31:06Z</time>
      </trkpt>
      <trkpt lat="42.79926" lon="0.13042">
        <ele>2835</ele>
        <time>2014-06-08T05:31:18Z</time>
      </trkpt>
      <trkpt lat="42.79919" lon="0.13044">
        <ele>2836</ele>
        <time>2014-06-08T05:31:30Z</time>
      </trkpt>
      <trkpt lat="42.79909" lon="0.1305">
        <ele>2839</ele>
        <time>2014-06-08T05:31:46Z</time>
      </trkpt>
      <trkpt lat="42.799" lon="0.13055">
        <ele>2842</ele>
        <time>2014-06-08T05:32:03Z</time>
      </trkpt>
      <trkpt lat="42.79897" lon="0.13055">
        <ele>2842</ele>
        <time>2014-06-08T05:32:17Z</time>
      </trkpt>
      <trkpt lat="42.79894" lon="0.13059">
        <ele>2844</ele>
        <time>2014-06-08T05:32:29Z</time>
      </trkpt>
      <trkpt lat="42.79896" lon="0.13061">
        <ele>2844</ele>
        <time>2014-06-08T05:32:44Z</time>
      </trkpt>
      <trkpt lat="42.79898" lon="0.13052">
        <ele>2846</ele>
        <time>2014-06-08T05:32:57Z</time>
      </trkpt>
      <trkpt lat="42.79902" lon="0.13042">
        <ele>2849</ele>
        <time>2014-06-08T05:33:12Z</time>
      </trkpt>
      <trkpt lat="42.799" lon="0.13044">
        <ele>2849</ele>
        <time>2014-06-08T05:33:23Z</time>
      </trkpt>
      <trkpt lat="42.79893" lon="0.13048">
        <ele>2850</ele>
        <time>2014-06-08T05:33:37Z</time>
      </trkpt>
      <trkpt lat="42.79886" lon="0.13053">
        <ele>2852</ele>
        <time>2014-06-08T05:33:51Z</time>
      </trkpt>
      <trkpt lat="42.79883" lon="0.13055">
        <ele>2852</ele>
        <time>2014-06-08T05:34:04Z</time>
      </trkpt>
      <trkpt lat="42.79881" lon="0.13058">
        <ele>2854</ele>
        <time>2014-06-08T05:34:09Z</time>
      </trkpt>
      <trkpt lat="42.79882" lon="0.13055">
        <ele>2856</ele>
        <time>2014-06-08T05:34:18Z</time>
      </trkpt>
      <trkpt lat="42.79884" lon="0.13051">
        <ele>2856</ele>
        <time>2014-06-08T05:34:23Z</time>
      </trkpt>
      <trkpt lat="42.79888" lon="0.13043">
        <ele>2856</ele>
        <time>2014-06-08T05:34:38Z</time>
      </trkpt>
      <trkpt lat="42.79889" lon="0.1304">
        <ele>2857</ele>
        <time>2014-06-08T05:34:50Z</time>
      </trkpt>
      <trkpt lat="42.79885" lon="0.13041">
        <ele>2860</ele>
        <time>2014-06-08T05:35:02Z</time>
      </trkpt>
      <trkpt lat="42.79878" lon="0.13047">
        <ele>2861</ele>
        <time>2014-06-08T05:35:16Z</time>
      </trkpt>
      <trkpt lat="42.79871" lon="0.13051">
        <ele>2861</ele>
        <time>2014-06-08T05:35:29Z</time>
      </trkpt>
      <trkpt lat="42.79868" lon="0.13052">
        <ele>2863</ele>
        <time>2014-06-08T05:35:36Z</time>
      </trkpt>
      <trkpt lat="42.79865" lon="0.13055">
        <ele>2867</ele>
        <time>2014-06-08T05:35:44Z</time>
      </trkpt>
      <trkpt lat="42.79857" lon="0.13059">
        <ele>2868</ele>
        <time>2014-06-08T05:35:58Z</time>
      </trkpt>
      <trkpt lat="42.79853" lon="0.13063">
        <ele>2871</ele>
        <time>2014-06-08T05:36:09Z</time>
      </trkpt>
      <trkpt lat="42.79848" lon="0.13067">
        <ele>2872</ele>
        <time>2014-06-08T05:36:21Z</time>
      </trkpt>
      <trkpt lat="42.79846" lon="0.13069">
        <ele>2872</ele>
        <time>2014-06-08T05:36:34Z</time>
      </trkpt>
      <trkpt lat="42.79836" lon="0.13078">
        <ele>2874</ele>
        <time>2014-06-08T05:36:51Z</time>
      </trkpt>
      <trkpt lat="42.79832" lon="0.13081">
        <ele>2877</ele>
        <time>2014-06-08T05:37:04Z</time>
      </trkpt>
      <trkpt lat="42.79827" lon="0.13088">
        <ele>2878</ele>
        <time>2014-06-08T05:37:17Z</time>
      </trkpt>
      <trkpt lat="42.79828" lon="0.13089">
        <ele>2878</ele>
        <time>2014-06-08T05:37:29Z</time>
      </trkpt>
      <trkpt lat="42.79832" lon="0.13085">
        <ele>2881</ele>
        <time>2014-06-08T05:37:43Z</time>
      </trkpt>
      <trkpt lat="42.79833" lon="0.13074">
        <ele>2883</ele>
        <time>2014-06-08T05:37:57Z</time>
      </trkpt>
      <trkpt lat="42.79835" lon="0.13066">
        <ele>2886</ele>
        <time>2014-06-08T05:38:09Z</time>
      </trkpt>
      <trkpt lat="42.79836" lon="0.13059">
        <ele>2889</ele>
        <time>2014-06-08T05:38:21Z</time>
      </trkpt>
      <trkpt lat="42.79832" lon="0.13061">
        <ele>2890</ele>
        <time>2014-06-08T05:38:28Z</time>
      </trkpt>
      <trkpt lat="42.79825" lon="0.13069">
        <ele>2888</ele>
        <time>2014-06-08T05:38:41Z</time>
      </trkpt>
      <trkpt lat="42.79818" lon="0.13074">
        <ele>2890</ele>
        <time>2014-06-08T05:38:57Z</time>
      </trkpt>
      <trkpt lat="42.7981" lon="0.1308">
        <ele>2892</ele>
        <time>2014-06-08T05:39:11Z</time>
      </trkpt>
      <trkpt lat="42.79804" lon="0.13089">
        <ele>2895</ele>
        <time>2014-06-08T05:39:24Z</time>
      </trkpt>
      <trkpt lat="42.79798" lon="0.13097">
        <ele>2896</ele>
        <time>2014-06-08T05:39:37Z</time>
      </trkpt>
      <trkpt lat="42.79796" lon="0.131">
        <ele>2898</ele>
        <time>2014-06-08T05:39:44Z</time>
      </trkpt>
      <trkpt lat="42.79793" lon="0.13106">
        <ele>2902</ele>
        <time>2014-06-08T05:39:52Z</time>
      </trkpt>
      <trkpt lat="42.79789" lon="0.13112">
        <ele>2902</ele>
        <time>2014-06-08T05:40:02Z</time>
      </trkpt>
      <trkpt lat="42.79787" lon="0.13117">
        <ele>2903</ele>
        <time>2014-06-08T05:40:12Z</time>
      </trkpt>
      <trkpt lat="42.79786" lon="0.13113">
        <ele>2904</ele>
        <time>2014-06-08T05:40:25Z</time>
      </trkpt>
      <trkpt lat="42.79785" lon="0.13108">
        <ele>2903</ele>
        <time>2014-06-08T05:40:30Z</time>
      </trkpt>
      <trkpt lat="42.79785" lon="0.13096">
        <ele>2904</ele>
        <time>2014-06-08T05:40:45Z</time>
      </trkpt>
      <trkpt lat="42.79785" lon="0.13086">
        <ele>2908</ele>
        <time>2014-06-08T05:40:58Z</time>
      </trkpt>
      <trkpt lat="42.79786" lon="0.13074">
        <ele>2909</ele>
        <time>2014-06-08T05:41:11Z</time>
      </trkpt>
      <trkpt lat="42.79787" lon="0.13073">
        <ele>2910</ele>
        <time>2014-06-08T05:41:14Z</time>
      </trkpt>
      <trkpt lat="42.79784" lon="0.13075">
        <ele>2913</ele>
        <time>2014-06-08T05:41:25Z</time>
      </trkpt>
      <trkpt lat="42.79783" lon="0.13076">
        <ele>2914</ele>
        <time>2014-06-08T05:41:27Z</time>
      </trkpt>
      <trkpt lat="42.79774" lon="0.13086">
        <ele>2916</ele>
        <time>2014-06-08T05:41:44Z</time>
      </trkpt>
      <trkpt lat="42.79765" lon="0.13095">
        <ele>2917</ele>
        <time>2014-06-08T05:41:58Z</time>
      </trkpt>
      <trkpt lat="42.79763" lon="0.13097">
        <ele>2917</ele>
        <time>2014-06-08T05:42:00Z</time>
      </trkpt>
      <trkpt lat="42.79754" lon="0.1311">
        <ele>2917</ele>
        <time>2014-06-08T05:42:14Z</time>
      </trkpt>
      <trkpt lat="42.79753" lon="0.13109">
        <ele>2919</ele>
        <time>2014-06-08T05:42:26Z</time>
      </trkpt>
      <trkpt lat="42.79759" lon="0.13106">
        <ele>2921</ele>
        <time>2014-06-08T05:42:42Z</time>
      </trkpt>
      <trkpt lat="42.7976" lon="0.13101">
        <ele>2920</ele>
        <time>2014-06-08T05:42:47Z</time>
      </trkpt>
      <trkpt lat="42.7976" lon="0.13092">
        <ele>2920</ele>
        <time>2014-06-08T05:43:00Z</time>
      </trkpt>
      <trkpt lat="42.79761" lon="0.13083">
        <ele>2923</ele>
        <time>2014-06-08T05:43:12Z</time>
      </trkpt>
      <trkpt lat="42.79762" lon="0.1307">
        <ele>2925</ele>
        <time>2014-06-08T05:43:28Z</time>
      </trkpt>
      <trkpt lat="42.79763" lon="0.13062">
        <ele>2927</ele>
        <time>2014-06-08T05:43:40Z</time>
      </trkpt>
      <trkpt lat="42.79763" lon="0.13059">
        <ele>2927</ele>
        <time>2014-06-08T05:43:54Z</time>
      </trkpt>
      <trkpt lat="42.79762" lon="0.13058">
        <ele>2926</ele>
        <time>2014-06-08T05:44:07Z</time>
      </trkpt>
      <trkpt lat="42.7976" lon="0.13057">
        <ele>2928</ele>
        <time>2014-06-08T05:44:23Z</time>
      </trkpt>
      <trkpt lat="42.79759" lon="0.13056">
        <ele>2932</ele>
        <time>2014-06-08T05:44:36Z</time>
      </trkpt>
      <trkpt lat="42.7976" lon="0.13057">
        <ele>2935</ele>
        <time>2014-06-08T05:44:39Z</time>
      </trkpt>
      <trkpt lat="42.79762" lon="0.13059">
        <ele>2932</ele>
        <time>2014-06-08T05:44:45Z</time>
      </trkpt>
      <trkpt lat="42.79765" lon="0.13061">
        <ele>2931</ele>
        <time>2014-06-08T05:45:17Z</time>
      </trkpt>
      <trkpt lat="42.79763" lon="0.13059">
        <ele>2932</ele>
        <time>2014-06-08T05:45:50Z</time>
      </trkpt>
      <trkpt lat="42.79761" lon="0.13058">
        <ele>2929</ele>
        <time>2014-06-08T05:46:08Z</time>
      </trkpt>
      <trkpt lat="42.7976" lon="0.13058">
        <ele>2933</ele>
        <time>2014-06-08T05:46:14Z</time>
      </trkpt>
      <trkpt lat="42.7976" lon="0.13058">
        <ele>2936</ele>
        <time>2014-06-08T05:46:20Z</time>
      </trkpt>
      <trkpt lat="42.79761" lon="0.13058">
        <ele>2934</ele>
        <time>2014-06-08T05:46:25Z</time>
      </trkpt>
      <trkpt lat="42.7976" lon="0.13059">
        <ele>2932</ele>
        <time>2014-06-08T05:46:50Z</time>
      </trkpt>
      <trkpt lat="42.7976" lon="0.13058">
        <ele>2932</ele>
        <time>2014-06-08T05:47:11Z</time>
      </trkpt>
      <trkpt lat="42.7976" lon="0.13058">
        <ele>2932</ele>
        <time>2014-06-08T05:47:36Z</time>
      </trkpt>
      <trkpt lat="42.79761" lon="0.13058">
        <ele>2933</ele>
        <time>2014-06-08T05:47:53Z</time>
      </trkpt>
      <trkpt lat="42.79755" lon="0.13062">
        <ele>2933</ele>
        <time>2014-06-08T05:48:05Z</time>
      </trkpt>
      <trkpt lat="42.7975" lon="0.13069">
        <ele>2936</ele>
        <time>2014-06-08T05:48:17Z</time>
      </trkpt>
      <trkpt lat="42.79745" lon="0.13079">
        <ele>2936</ele>
        <time>2014-06-08T05:48:30Z</time>
      </trkpt>
      <trkpt lat="42.7974" lon="0.13085">
        <ele>2937</ele>
        <time>2014-06-08T05:48:43Z</time>
      </trkpt>
      <trkpt lat="42.79738" lon="0.13091">
        <ele>2938</ele>
        <time>2014-06-08T05:48:58Z</time>
      </trkpt>
      <trkpt lat="42.79739" lon="0.13089">
        <ele>2939</ele>
        <time>2014-06-08T05:49:13Z</time>
      </trkpt>
      <trkpt lat="42.79738" lon="0.1308">
        <ele>2940</ele>
        <time>2014-06-08T05:49:28Z</time>
      </trkpt>
      <trkpt lat="42.79738" lon="0.13071">
        <ele>2943</ele>
        <time>2014-06-08T05:49:42Z</time>
      </trkpt>
      <trkpt lat="42.79739" lon="0.13063">
        <ele>2945</ele>
        <time>2014-06-08T05:49:57Z</time>
      </trkpt>
      <trkpt lat="42.7974" lon="0.1306">
        <ele>2947</ele>
        <time>2014-06-08T05:50:08Z</time>
      </trkpt>
      <trkpt lat="42.79738" lon="0.13061">
        <ele>2947</ele>
        <time>2014-06-08T05:50:29Z</time>
      </trkpt>
      <trkpt lat="42.79731" lon="0.13062">
        <ele>2947</ele>
        <time>2014-06-08T05:50:45Z</time>
      </trkpt>
      <trkpt lat="42.79722" lon="0.1307">
        <ele>2950</ele>
        <time>2014-06-08T05:51:01Z</time>
      </trkpt>
      <trkpt lat="42.79721" lon="0.1307">
        <ele>2952</ele>
        <time>2014-06-08T05:51:03Z</time>
      </trkpt>
      <trkpt lat="42.79722" lon="0.1306">
        <ele>2951</ele>
        <time>2014-06-08T05:51:19Z</time>
      </trkpt>
      <trkpt lat="42.79723" lon="0.13052">
        <ele>2954</ele>
        <time>2014-06-08T05:51:32Z</time>
      </trkpt>
      <trkpt lat="42.79723" lon="0.13049">
        <ele>2956</ele>
        <time>2014-06-08T05:51:35Z</time>
      </trkpt>
      <trkpt lat="42.79729" lon="0.1304">
        <ele>2958</ele>
        <time>2014-06-08T05:51:52Z</time>
      </trkpt>
      <trkpt lat="42.79735" lon="0.13031">
        <ele>2961</ele>
        <time>2014-06-08T05:52:07Z</time>
      </trkpt>
      <trkpt lat="42.79735" lon="0.13031">
        <ele>2961</ele>
        <time>2014-06-08T05:52:08Z</time>
      </trkpt>
      <trkpt lat="42.7974" lon="0.13024">
        <ele>2963</ele>
        <time>2014-06-08T05:52:23Z</time>
      </trkpt>
      <trkpt lat="42.79742" lon="0.13018">
        <ele>2963</ele>
        <time>2014-06-08T05:52:36Z</time>
      </trkpt>
      <trkpt lat="42.79745" lon="0.1301">
        <ele>2964</ele>
        <time>2014-06-08T05:52:50Z</time>
      </trkpt>
      <trkpt lat="42.79747" lon="0.13007">
        <ele>2964</ele>
        <time>2014-06-08T05:52:55Z</time>
      </trkpt>
      <trkpt lat="42.79755" lon="0.12995">
        <ele>2963</ele>
        <time>2014-06-08T05:53:10Z</time>
      </trkpt>
      <trkpt lat="42.79759" lon="0.12986">
        <ele>2967</ele>
        <time>2014-06-08T05:53:23Z</time>
      </trkpt>
      <trkpt lat="42.79764" lon="0.12974">
        <ele>2968</ele>
        <time>2014-06-08T05:53:43Z</time>
      </trkpt>
      <trkpt lat="42.79768" lon="0.12962">
        <ele>2971</ele>
        <time>2014-06-08T05:54:00Z</time>
      </trkpt>
      <trkpt lat="42.7977" lon="0.12956">
        <ele>2972</ele>
        <time>2014-06-08T05:54:17Z</time>
      </trkpt>
      <trkpt lat="42.7977" lon="0.12955">
        <ele>2973</ele>
        <time>2014-06-08T05:54:36Z</time>
      </trkpt>
      <trkpt lat="42.79765" lon="0.1296">
        <ele>2973</ele>
        <time>2014-06-08T05:54:50Z</time>
      </trkpt>
      <trkpt lat="42.79764" lon="0.1296">
        <ele>2973</ele>
        <time>2014-06-08T05:55:04Z</time>
      </trkpt>
      <trkpt lat="42.79769" lon="0.12948">
        <ele>2976</ele>
        <time>2014-06-08T05:55:20Z</time>
      </trkpt>
      <trkpt lat="42.79774" lon="0.12937">
        <ele>2977</ele>
        <time>2014-06-08T05:55:36Z</time>
      </trkpt>
      <trkpt lat="42.79776" lon="0.12934">
        <ele>2980</ele>
        <time>2014-06-08T05:55:42Z</time>
      </trkpt>
      <trkpt lat="42.79779" lon="0.12929">
        <ele>2984</ele>
        <time>2014-06-08T05:55:50Z</time>
      </trkpt>
      <trkpt lat="42.7978" lon="0.12919">
        <ele>2984</ele>
        <time>2014-06-08T05:56:07Z</time>
      </trkpt>
      <trkpt lat="42.7978" lon="0.12919">
        <ele>2983</ele>
        <time>2014-06-08T05:56:18Z</time>
      </trkpt>
      <trkpt lat="42.79772" lon="0.1292">
        <ele>2985</ele>
        <time>2014-06-08T05:56:32Z</time>
      </trkpt>
      <trkpt lat="42.79772" lon="0.1292">
        <ele>2988</ele>
        <time>2014-06-08T05:56:44Z</time>
      </trkpt>
      <trkpt lat="42.79766" lon="0.12921">
        <ele>2989</ele>
        <time>2014-06-08T05:57:04Z</time>
      </trkpt>
      <trkpt lat="42.79759" lon="0.12925">
        <ele>2992</ele>
        <time>2014-06-08T05:57:18Z</time>
      </trkpt>
      <trkpt lat="42.79754" lon="0.12927">
        <ele>2995</ele>
        <time>2014-06-08T05:57:31Z</time>
      </trkpt>
      <trkpt lat="42.79748" lon="0.1293">
        <ele>2996</ele>
        <time>2014-06-08T05:57:45Z</time>
      </trkpt>
      <trkpt lat="42.79743" lon="0.12933">
        <ele>2999</ele>
        <time>2014-06-08T05:57:53Z</time>
      </trkpt>
      <trkpt lat="42.79736" lon="0.12935">
        <ele>3000</ele>
        <time>2014-06-08T05:58:05Z</time>
      </trkpt>
      <trkpt lat="42.79728" lon="0.1294">
        <ele>3003</ele>
        <time>2014-06-08T05:58:22Z</time>
      </trkpt>
      <trkpt lat="42.79722" lon="0.12945">
        <ele>3005</ele>
        <time>2014-06-08T05:58:36Z</time>
      </trkpt>
      <trkpt lat="42.79722" lon="0.12945">
        <ele>3005</ele>
        <time>2014-06-08T05:58:40Z</time>
      </trkpt>
      <trkpt lat="42.79721" lon="0.12943">
        <ele>3005</ele>
        <time>2014-06-08T05:58:54Z</time>
      </trkpt>
      <trkpt lat="42.7972" lon="0.12942">
        <ele>3005</ele>
        <time>2014-06-08T05:59:19Z</time>
      </trkpt>
      <trkpt lat="42.79719" lon="0.12943">
        <ele>3007</ele>
        <time>2014-06-08T05:59:54Z</time>
      </trkpt>
      <trkpt lat="42.79721" lon="0.1294">
        <ele>3006</ele>
        <time>2014-06-08T06:00:08Z</time>
      </trkpt>
      <trkpt lat="42.79721" lon="0.12943">
        <ele>3007</ele>
        <time>2014-06-08T06:00:41Z</time>
      </trkpt>
      <trkpt lat="42.79721" lon="0.12942">
        <ele>3006</ele>
        <time>2014-06-08T06:00:57Z</time>
      </trkpt>
      <trkpt lat="42.79722" lon="0.12937">
        <ele>3005</ele>
        <time>2014-06-08T06:01:23Z</time>
      </trkpt>
      <trkpt lat="42.79722" lon="0.1294">
        <ele>3005</ele>
        <time>2014-06-08T06:01:46Z</time>
      </trkpt>
      <trkpt lat="42.79722" lon="0.12941">
        <ele>3008</ele>
        <time>2014-06-08T06:01:53Z</time>
      </trkpt>
      <trkpt lat="42.79721" lon="0.12944">
        <ele>3007</ele>
        <time>2014-06-08T06:02:03Z</time>
      </trkpt>
      <trkpt lat="42.79721" lon="0.12945">
        <ele>3004</ele>
        <time>2014-06-08T06:02:06Z</time>
      </trkpt>
      <trkpt lat="42.79721" lon="0.12945">
        <ele>3004</ele>
        <time>2014-06-08T06:02:07Z</time>
      </trkpt>
      <trkpt lat="42.79724" lon="0.12944">
        <ele>3008</ele>
        <time>2014-06-08T06:02:14Z</time>
      </trkpt>
      <trkpt lat="42.79726" lon="0.12944">
        <ele>3008</ele>
        <time>2014-06-08T06:02:16Z</time>
      </trkpt>
      <trkpt lat="42.7973" lon="0.12941">
        <ele>3007</ele>
        <time>2014-06-08T06:02:27Z</time>
      </trkpt>
      <trkpt lat="42.79733" lon="0.12939">
        <ele>3006</ele>
        <time>2014-06-08T06:02:38Z</time>
      </trkpt>
      <trkpt lat="42.79736" lon="0.12938">
        <ele>3005</ele>
        <time>2014-06-08T06:02:42Z</time>
      </trkpt>
      <trkpt lat="42.79739" lon="0.12936">
        <ele>3008</ele>
        <time>2014-06-08T06:02:50Z</time>
      </trkpt>
      <trkpt lat="42.7974" lon="0.12936">
        <ele>3010</ele>
        <time>2014-06-08T06:02:53Z</time>
      </trkpt>
      <trkpt lat="42.79741" lon="0.12935">
        <ele>3007</ele>
        <time>2014-06-08T06:02:56Z</time>
      </trkpt>
      <trkpt lat="42.79742" lon="0.12935">
        <ele>3001</ele>
        <time>2014-06-08T06:02:58Z</time>
      </trkpt>
      <trkpt lat="42.79746" lon="0.12931">
        <ele>3002</ele>
        <time>2014-06-08T06:03:07Z</time>
      </trkpt>
      <trkpt lat="42.79749" lon="0.12929">
        <ele>2998</ele>
        <time>2014-06-08T06:03:15Z</time>
      </trkpt>
      <trkpt lat="42.7975" lon="0.12929">
        <ele>2996</ele>
        <time>2014-06-08T06:03:17Z</time>
      </trkpt>
      <trkpt lat="42.79754" lon="0.12928">
        <ele>2999</ele>
        <time>2014-06-08T06:03:24Z</time>
      </trkpt>
      <trkpt lat="42.79755" lon="0.12927">
        <ele>2996</ele>
        <time>2014-06-08T06:03:27Z</time>
      </trkpt>
      <trkpt lat="42.79759" lon="0.12926">
        <ele>2993</ele>
        <time>2014-06-08T06:03:34Z</time>
      </trkpt>
      <trkpt lat="42.79761" lon="0.12925">
        <ele>2994</ele>
        <time>2014-06-08T06:03:38Z</time>
      </trkpt>
      <trkpt lat="42.79765" lon="0.12923">
        <ele>2993</ele>
        <time>2014-06-08T06:03:51Z</time>
      </trkpt>
      <trkpt lat="42.79768" lon="0.12922">
        <ele>2991</ele>
        <time>2014-06-08T06:03:57Z</time>
      </trkpt>
      <trkpt lat="42.79769" lon="0.12921">
        <ele>2989</ele>
        <time>2014-06-08T06:04:10Z</time>
      </trkpt>
      <trkpt lat="42.79769" lon="0.1292">
        <ele>2991</ele>
        <time>2014-06-08T06:04:19Z</time>
      </trkpt>
      <trkpt lat="42.79769" lon="0.12919">
        <ele>2995</ele>
        <time>2014-06-08T06:04:26Z</time>
      </trkpt>
      <trkpt lat="42.79769" lon="0.1292">
        <ele>2999</ele>
        <time>2014-06-08T06:04:28Z</time>
      </trkpt>
      <trkpt lat="42.7977" lon="0.1292">
        <ele>3002</ele>
        <time>2014-06-08T06:04:30Z</time>
      </trkpt>
      <trkpt lat="42.7977" lon="0.1292">
        <ele>3002</ele>
        <time>2014-06-08T06:04:31Z</time>
      </trkpt>
      <trkpt lat="42.7977" lon="0.1292">
        <ele>2998</ele>
        <time>2014-06-08T06:04:32Z</time>
      </trkpt>
      <trkpt lat="42.7977" lon="0.1292">
        <ele>3002</ele>
        <time>2014-06-08T06:04:33Z</time>
      </trkpt>
      <trkpt lat="42.7977" lon="0.12919">
        <ele>2997</ele>
        <time>2014-06-08T06:04:36Z</time>
      </trkpt>
      <trkpt lat="42.7977" lon="0.12919">
        <ele>2992</ele>
        <time>2014-06-08T06:04:39Z</time>
      </trkpt>
      <trkpt lat="42.7977" lon="0.12919">
        <ele>2989</ele>
        <time>2014-06-08T06:04:44Z</time>
      </trkpt>
      <trkpt lat="42.79769" lon="0.12919">
        <ele>2990</ele>
        <time>2014-06-08T06:04:48Z</time>
      </trkpt>
      <trkpt lat="42.79769" lon="0.12918">
        <ele>2989</ele>
        <time>2014-06-08T06:05:02Z</time>
      </trkpt>
      <trkpt lat="42.79768" lon="0.12917">
        <ele>2992</ele>
        <time>2014-06-08T06:05:16Z</time>
      </trkpt>
      <trkpt lat="42.79768" lon="0.12917">
        <ele>2992</ele>
        <time>2014-06-08T06:05:23Z</time>
      </trkpt>
      <trkpt lat="42.79769" lon="0.12919">
        <ele>2990</ele>
        <time>2014-06-08T06:05:39Z</time>
      </trkpt>
      <trkpt lat="42.7977" lon="0.12919">
        <ele>2989</ele>
        <time>2014-06-08T06:05:55Z</time>
      </trkpt>
      <trkpt lat="42.79769" lon="0.12919">
        <ele>2988</ele>
        <time>2014-06-08T06:06:23Z</time>
      </trkpt>
      <trkpt lat="42.79768" lon="0.12919">
        <ele>2990</ele>
        <time>2014-06-08T06:06:42Z</time>
      </trkpt>
      <trkpt lat="42.79768" lon="0.12919">
        <ele>2990</ele>
        <time>2014-06-08T06:06:43Z</time>
      </trkpt>
      <trkpt lat="42.79767" lon="0.12919">
        <ele>2992</ele>
        <time>2014-06-08T06:06:47Z</time>
      </trkpt>
      <trkpt lat="42.79766" lon="0.1292">
        <ele>2994</ele>
        <time>2014-06-08T06:06:58Z</time>
      </trkpt>
      <trkpt lat="42.79766" lon="0.12919">
        <ele>2991</ele>
        <time>2014-06-08T06:07:05Z</time>
      </trkpt>
      <trkpt lat="42.79766" lon="0.12919">
        <ele>2988</ele>
        <time>2014-06-08T06:07:16Z</time>
      </trkpt>
      <trkpt lat="42.79766" lon="0.12918">
        <ele>2987</ele>
        <time>2014-06-08T06:07:18Z</time>
      </trkpt>
      <trkpt lat="42.79766" lon="0.12918">
        <ele>2990</ele>
        <time>2014-06-08T06:07:21Z</time>
      </trkpt>
      <trkpt lat="42.79765" lon="0.12917">
        <ele>2994</ele>
        <time>2014-06-08T06:07:26Z</time>
      </trkpt>
      <trkpt lat="42.79765" lon="0.12916">
        <ele>2989</ele>
        <time>2014-06-08T06:07:30Z</time>
      </trkpt>
      <trkpt lat="42.79765" lon="0.12917">
        <ele>2988</ele>
        <time>2014-06-08T06:07:32Z</time>
      </trkpt>
      <trkpt lat="42.79764" lon="0.12917">
        <ele>2990</ele>
        <time>2014-06-08T06:07:37Z</time>
      </trkpt>
      <trkpt lat="42.79763" lon="0.12917">
        <ele>2992</ele>
        <time>2014-06-08T06:07:48Z</time>
      </trkpt>
      <trkpt lat="42.79763" lon="0.12916">
        <ele>2996</ele>
        <time>2014-06-08T06:07:51Z</time>
      </trkpt>
      <trkpt lat="42.79762" lon="0.12917">
        <ele>2996</ele>
        <time>2014-06-08T06:07:52Z</time>
      </trkpt>
      <trkpt lat="42.79762" lon="0.12917">
        <ele>2991</ele>
        <time>2014-06-08T06:07:55Z</time>
      </trkpt>
      <trkpt lat="42.79762" lon="0.12917">
        <ele>2989</ele>
        <time>2014-06-08T06:08:02Z</time>
      </trkpt>
      <trkpt lat="42.79763" lon="0.12915">
        <ele>2989</ele>
        <time>2014-06-08T06:08:18Z</time>
      </trkpt>
      <trkpt lat="42.79766" lon="0.12914">
        <ele>2992</ele>
        <time>2014-06-08T06:08:34Z</time>
      </trkpt>
      <trkpt lat="42.79766" lon="0.12915">
        <ele>2992</ele>
        <time>2014-06-08T06:08:35Z</time>
      </trkpt>
      <trkpt lat="42.79766" lon="0.12915">
        <ele>2988</ele>
        <time>2014-06-08T06:08:38Z</time>
      </trkpt>
      <trkpt lat="42.7977" lon="0.12912">
        <ele>2986</ele>
        <time>2014-06-08T06:08:52Z</time>
      </trkpt>
      <trkpt lat="42.79772" lon="0.12912">
        <ele>2983</ele>
        <time>2014-06-08T06:08:57Z</time>
      </trkpt>
      <trkpt lat="42.79772" lon="0.1291">
        <ele>2985</ele>
        <time>2014-06-08T06:09:02Z</time>
      </trkpt>
      <trkpt lat="42.79772" lon="0.12909">
        <ele>2988</ele>
        <time>2014-06-08T06:09:13Z</time>
      </trkpt>
      <trkpt lat="42.79772" lon="0.12909">
        <ele>2988</ele>
        <time>2014-06-08T06:09:14Z</time>
      </trkpt>
      <trkpt lat="42.79772" lon="0.12909">
        <ele>2985</ele>
        <time>2014-06-08T06:09:19Z</time>
      </trkpt>
      <trkpt lat="42.79773" lon="0.12908">
        <ele>2983</ele>
        <time>2014-06-08T06:09:23Z</time>
      </trkpt>
      <trkpt lat="42.79773" lon="0.12909">
        <ele>2981</ele>
        <time>2014-06-08T06:09:26Z</time>
      </trkpt>
      <trkpt lat="42.79772" lon="0.12908">
        <ele>2979</ele>
        <time>2014-06-08T06:09:30Z</time>
      </trkpt>
      <trkpt lat="42.79771" lon="0.12905">
        <ele>2977</ele>
        <time>2014-06-08T06:09:49Z</time>
      </trkpt>
      <trkpt lat="42.79771" lon="0.12902">
        <ele>2979</ele>
        <time>2014-06-08T06:09:58Z</time>
      </trkpt>
      <trkpt lat="42.79774" lon="0.12897">
        <ele>2976</ele>
        <time>2014-06-08T06:10:15Z</time>
      </trkpt>
      <trkpt lat="42.79774" lon="0.12894">
        <ele>2973</ele>
        <time>2014-06-08T06:10:25Z</time>
      </trkpt>
      <trkpt lat="42.79772" lon="0.12891">
        <ele>2973</ele>
        <time>2014-06-08T06:10:39Z</time>
      </trkpt>
      <trkpt lat="42.79771" lon="0.12889">
        <ele>2975</ele>
        <time>2014-06-08T06:10:45Z</time>
      </trkpt>
      <trkpt lat="42.79769" lon="0.12889">
        <ele>2973</ele>
        <time>2014-06-08T06:10:52Z</time>
      </trkpt>
      <trkpt lat="42.79766" lon="0.12889">
        <ele>2971</ele>
        <time>2014-06-08T06:11:01Z</time>
      </trkpt>
      <trkpt lat="42.79766" lon="0.12889">
        <ele>2971</ele>
        <time>2014-06-08T06:11:02Z</time>
      </trkpt>
      <trkpt lat="42.79767" lon="0.12885">
        <ele>2971</ele>
        <time>2014-06-08T06:11:19Z</time>
      </trkpt>
      <trkpt lat="42.79767" lon="0.12884">
        <ele>2969</ele>
        <time>2014-06-08T06:11:33Z</time>
      </trkpt>
      <trkpt lat="42.79766" lon="0.12885">
        <ele>2969</ele>
        <time>2014-06-08T06:11:55Z</time>
      </trkpt>
      <trkpt lat="42.79765" lon="0.12885">
        <ele>2970</ele>
        <time>2014-06-08T06:12:15Z</time>
      </trkpt>
      <trkpt lat="42.79765" lon="0.12886">
        <ele>2973</ele>
        <time>2014-06-08T06:12:25Z</time>
      </trkpt>
      <trkpt lat="42.79765" lon="0.12887">
        <ele>2972</ele>
        <time>2014-06-08T06:12:38Z</time>
      </trkpt>
      <trkpt lat="42.79763" lon="0.12889">
        <ele>2973</ele>
        <time>2014-06-08T06:13:01Z</time>
      </trkpt>
      <trkpt lat="42.79764" lon="0.12889">
        <ele>2973</ele>
        <time>2014-06-08T06:13:15Z</time>
      </trkpt>
      <trkpt lat="42.7976" lon="0.12882">
        <ele>2971</ele>
        <time>2014-06-08T06:13:29Z</time>
      </trkpt>
      <trkpt lat="42.79759" lon="0.1288">
        <ele>2968</ele>
        <time>2014-06-08T06:13:33Z</time>
      </trkpt>
      <trkpt lat="42.79758" lon="0.1288">
        <ele>2966</ele>
        <time>2014-06-08T06:13:34Z</time>
      </trkpt>
      <trkpt lat="42.79755" lon="0.12876">
        <ele>2964</ele>
        <time>2014-06-08T06:13:39Z</time>
      </trkpt>
      <trkpt lat="42.79747" lon="0.12869">
        <ele>2961</ele>
        <time>2014-06-08T06:13:53Z</time>
      </trkpt>
      <trkpt lat="42.7974" lon="0.1286">
        <ele>2958</ele>
        <time>2014-06-08T06:14:06Z</time>
      </trkpt>
      <trkpt lat="42.79734" lon="0.1285">
        <ele>2958</ele>
        <time>2014-06-08T06:14:22Z</time>
      </trkpt>
      <trkpt lat="42.79732" lon="0.12846">
        <ele>2956</ele>
        <time>2014-06-08T06:14:29Z</time>
      </trkpt>
      <trkpt lat="42.79725" lon="0.12837">
        <ele>2952</ele>
        <time>2014-06-08T06:14:42Z</time>
      </trkpt>
      <trkpt lat="42.79717" lon="0.12828">
        <ele>2949</ele>
        <time>2014-06-08T06:14:53Z</time>
      </trkpt>
      <trkpt lat="42.79715" lon="0.12826">
        <ele>2949</ele>
        <time>2014-06-08T06:14:56Z</time>
      </trkpt>
      <trkpt lat="42.79712" lon="0.12823">
        <ele>2948</ele>
        <time>2014-06-08T06:15:00Z</time>
      </trkpt>
      <trkpt lat="42.79709" lon="0.12818">
        <ele>2948</ele>
        <time>2014-06-08T06:15:12Z</time>
      </trkpt>
      <trkpt lat="42.79703" lon="0.12813">
        <ele>2946</ele>
        <time>2014-06-08T06:15:25Z</time>
      </trkpt>
      <trkpt lat="42.797" lon="0.1281">
        <ele>2946</ele>
        <time>2014-06-08T06:15:39Z</time>
      </trkpt>
      <trkpt lat="42.79702" lon="0.12811">
        <ele>2946</ele>
        <time>2014-06-08T06:15:51Z</time>
      </trkpt>
      <trkpt lat="42.7971" lon="0.1281">
        <ele>2944</ele>
        <time>2014-06-08T06:16:02Z</time>
      </trkpt>
      <trkpt lat="42.79718" lon="0.12808">
        <ele>2943</ele>
        <time>2014-06-08T06:16:08Z</time>
      </trkpt>
      <trkpt lat="42.79724" lon="0.12805">
        <ele>2941</ele>
        <time>2014-06-08T06:16:15Z</time>
      </trkpt>
      <trkpt lat="42.79732" lon="0.12806">
        <ele>2937</ele>
        <time>2014-06-08T06:16:27Z</time>
      </trkpt>
      <trkpt lat="42.79732" lon="0.12804">
        <ele>2937</ele>
        <time>2014-06-08T06:16:38Z</time>
      </trkpt>
      <trkpt lat="42.79722" lon="0.12792">
        <ele>2934</ele>
        <time>2014-06-08T06:16:51Z</time>
      </trkpt>
      <trkpt lat="42.79713" lon="0.12782">
        <ele>2931</ele>
        <time>2014-06-08T06:16:56Z</time>
      </trkpt>
      <trkpt lat="42.79701" lon="0.12766">
        <ele>2927</ele>
        <time>2014-06-08T06:17:03Z</time>
      </trkpt>
      <trkpt lat="42.79687" lon="0.12749">
        <ele>2923</ele>
        <time>2014-06-08T06:17:10Z</time>
      </trkpt>
      <trkpt lat="42.79684" lon="0.12746">
        <ele>2923</ele>
        <time>2014-06-08T06:17:13Z</time>
      </trkpt>
      <trkpt lat="42.79672" lon="0.12731">
        <ele>2920</ele>
        <time>2014-06-08T06:17:25Z</time>
      </trkpt>
      <trkpt lat="42.79663" lon="0.12719">
        <ele>2922</ele>
        <time>2014-06-08T06:17:40Z</time>
      </trkpt>
      <trkpt lat="42.79659" lon="0.12709">
        <ele>2922</ele>
        <time>2014-06-08T06:17:53Z</time>
      </trkpt>
      <trkpt lat="42.79657" lon="0.12705">
        <ele>2923</ele>
        <time>2014-06-08T06:18:07Z</time>
      </trkpt>
      <trkpt lat="42.79657" lon="0.12704">
        <ele>2924</ele>
        <time>2014-06-08T06:18:30Z</time>
      </trkpt>
      <trkpt lat="42.79654" lon="0.12698">
        <ele>2926</ele>
        <time>2014-06-08T06:18:46Z</time>
      </trkpt>
      <trkpt lat="42.7965" lon="0.12685">
        <ele>2928</ele>
        <time>2014-06-08T06:19:00Z</time>
      </trkpt>
      <trkpt lat="42.79646" lon="0.12676">
        <ele>2931</ele>
        <time>2014-06-08T06:19:12Z</time>
      </trkpt>
      <trkpt lat="42.79646" lon="0.12675">
        <ele>2931</ele>
        <time>2014-06-08T06:19:13Z</time>
      </trkpt>
      <trkpt lat="42.7964" lon="0.12668">
        <ele>2933</ele>
        <time>2014-06-08T06:19:27Z</time>
      </trkpt>
      <trkpt lat="42.79637" lon="0.12664">
        <ele>2935</ele>
        <time>2014-06-08T06:19:34Z</time>
      </trkpt>
      <trkpt lat="42.79634" lon="0.12662">
        <ele>2936</ele>
        <time>2014-06-08T06:19:37Z</time>
      </trkpt>
      <trkpt lat="42.79632" lon="0.12658">
        <ele>2938</ele>
        <time>2014-06-08T06:19:43Z</time>
      </trkpt>
      <trkpt lat="42.79629" lon="0.12656">
        <ele>2938</ele>
        <time>2014-06-08T06:19:57Z</time>
      </trkpt>
      <trkpt lat="42.79629" lon="0.12657">
        <ele>2939</ele>
        <time>2014-06-08T06:20:09Z</time>
      </trkpt>
      <trkpt lat="42.79626" lon="0.12654">
        <ele>2938</ele>
        <time>2014-06-08T06:20:21Z</time>
      </trkpt>
      <trkpt lat="42.79625" lon="0.12653">
        <ele>2942</ele>
        <time>2014-06-08T06:20:32Z</time>
      </trkpt>
      <trkpt lat="42.79625" lon="0.12652">
        <ele>2939</ele>
        <time>2014-06-08T06:20:35Z</time>
      </trkpt>
      <trkpt lat="42.79625" lon="0.12651">
        <ele>2936</ele>
        <time>2014-06-08T06:20:46Z</time>
      </trkpt>
      <trkpt lat="42.79625" lon="0.12652">
        <ele>2936</ele>
        <time>2014-06-08T06:20:47Z</time>
      </trkpt>
      <trkpt lat="42.79621" lon="0.1265">
        <ele>2935</ele>
        <time>2014-06-08T06:21:06Z</time>
      </trkpt>
      <trkpt lat="42.79615" lon="0.12649">
        <ele>2936</ele>
        <time>2014-06-08T06:21:18Z</time>
      </trkpt>
      <trkpt lat="42.79607" lon="0.12649">
        <ele>2938</ele>
        <time>2014-06-08T06:21:34Z</time>
      </trkpt>
      <trkpt lat="42.796" lon="0.12644">
        <ele>2939</ele>
        <time>2014-06-08T06:21:48Z</time>
      </trkpt>
      <trkpt lat="42.79592" lon="0.12634">
        <ele>2938</ele>
        <time>2014-06-08T06:22:02Z</time>
      </trkpt>
      <trkpt lat="42.79587" lon="0.12629">
        <ele>2937</ele>
        <time>2014-06-08T06:22:16Z</time>
      </trkpt>
      <trkpt lat="42.79583" lon="0.12624">
        <ele>2939</ele>
        <time>2014-06-08T06:22:40Z</time>
      </trkpt>
      <trkpt lat="42.79576" lon="0.12608">
        <ele>2940</ele>
        <time>2014-06-08T06:22:54Z</time>
      </trkpt>
      <trkpt lat="42.79571" lon="0.12595">
        <ele>2940</ele>
        <time>2014-06-08T06:23:07Z</time>
      </trkpt>
      <trkpt lat="42.79564" lon="0.1258">
        <ele>2942</ele>
        <time>2014-06-08T06:23:23Z</time>
      </trkpt>
      <trkpt lat="42.79559" lon="0.12567">
        <ele>2942</ele>
        <time>2014-06-08T06:23:40Z</time>
      </trkpt>
      <trkpt lat="42.79555" lon="0.12554">
        <ele>2944</ele>
        <time>2014-06-08T06:23:56Z</time>
      </trkpt>
      <trkpt lat="42.79555" lon="0.12549">
        <ele>2943</ele>
        <time>2014-06-08T06:24:12Z</time>
      </trkpt>
      <trkpt lat="42.79554" lon="0.12551">
        <ele>2942</ele>
        <time>2014-06-08T06:24:39Z</time>
      </trkpt>
      <trkpt lat="42.79552" lon="0.1255">
        <ele>2943</ele>
        <time>2014-06-08T06:25:04Z</time>
      </trkpt>
      <trkpt lat="42.79549" lon="0.12536">
        <ele>2944</ele>
        <time>2014-06-08T06:25:19Z</time>
      </trkpt>
      <trkpt lat="42.79547" lon="0.12526">
        <ele>2945</ele>
        <time>2014-06-08T06:25:30Z</time>
      </trkpt>
      <trkpt lat="42.79544" lon="0.12514">
        <ele>2946</ele>
        <time>2014-06-08T06:25:45Z</time>
      </trkpt>
      <trkpt lat="42.79538" lon="0.12503">
        <ele>2948</ele>
        <time>2014-06-08T06:26:00Z</time>
      </trkpt>
      <trkpt lat="42.79534" lon="0.12491">
        <ele>2949</ele>
        <time>2014-06-08T06:26:13Z</time>
      </trkpt>
      <trkpt lat="42.79532" lon="0.12483">
        <ele>2948</ele>
        <time>2014-06-08T06:26:28Z</time>
      </trkpt>
      <trkpt lat="42.79531" lon="0.12482">
        <ele>2949</ele>
        <time>2014-06-08T06:26:50Z</time>
      </trkpt>
      <trkpt lat="42.79527" lon="0.1247">
        <ele>2951</ele>
        <time>2014-06-08T06:27:04Z</time>
      </trkpt>
      <trkpt lat="42.79526" lon="0.12464">
        <ele>2951</ele>
        <time>2014-06-08T06:27:09Z</time>
      </trkpt>
      <trkpt lat="42.79524" lon="0.12454">
        <ele>2953</ele>
        <time>2014-06-08T06:27:20Z</time>
      </trkpt>
      <trkpt lat="42.79521" lon="0.12441">
        <ele>2956</ele>
        <time>2014-06-08T06:27:34Z</time>
      </trkpt>
      <trkpt lat="42.79518" lon="0.12431">
        <ele>2955</ele>
        <time>2014-06-08T06:27:49Z</time>
      </trkpt>
      <trkpt lat="42.79516" lon="0.12423">
        <ele>2956</ele>
        <time>2014-06-08T06:28:00Z</time>
      </trkpt>
      <trkpt lat="42.79516" lon="0.12416">
        <ele>2956</ele>
        <time>2014-06-08T06:28:13Z</time>
      </trkpt>
      <trkpt lat="42.79517" lon="0.12416">
        <ele>2956</ele>
        <time>2014-06-08T06:28:39Z</time>
      </trkpt>
      <trkpt lat="42.79515" lon="0.12411">
        <ele>2957</ele>
        <time>2014-06-08T06:28:55Z</time>
      </trkpt>
      <trkpt lat="42.79514" lon="0.124">
        <ele>2959</ele>
        <time>2014-06-08T06:29:08Z</time>
      </trkpt>
      <trkpt lat="42.79512" lon="0.12392">
        <ele>2961</ele>
        <time>2014-06-08T06:29:20Z</time>
      </trkpt>
      <trkpt lat="42.79509" lon="0.12383">
        <ele>2963</ele>
        <time>2014-06-08T06:29:32Z</time>
      </trkpt>
      <trkpt lat="42.79506" lon="0.12374">
        <ele>2963</ele>
        <time>2014-06-08T06:29:48Z</time>
      </trkpt>
      <trkpt lat="42.79502" lon="0.12363">
        <ele>2966</ele>
        <time>2014-06-08T06:30:02Z</time>
      </trkpt>
      <trkpt lat="42.795" lon="0.12359">
        <ele>2967</ele>
        <time>2014-06-08T06:30:13Z</time>
      </trkpt>
      <trkpt lat="42.795" lon="0.1236">
        <ele>2968</ele>
        <time>2014-06-08T06:30:42Z</time>
      </trkpt>
      <trkpt lat="42.79498" lon="0.12361">
        <ele>2967</ele>
        <time>2014-06-08T06:31:09Z</time>
      </trkpt>
      <trkpt lat="42.79495" lon="0.12351">
        <ele>2969</ele>
        <time>2014-06-08T06:31:22Z</time>
      </trkpt>
      <trkpt lat="42.79494" lon="0.12344">
        <ele>2971</ele>
        <time>2014-06-08T06:31:36Z</time>
      </trkpt>
      <trkpt lat="42.79492" lon="0.12339">
        <ele>2971</ele>
        <time>2014-06-08T06:31:51Z</time>
      </trkpt>
      <trkpt lat="42.79491" lon="0.1234">
        <ele>2973</ele>
        <time>2014-06-08T06:32:06Z</time>
      </trkpt>
      <trkpt lat="42.79487" lon="0.12328">
        <ele>2975</ele>
        <time>2014-06-08T06:32:19Z</time>
      </trkpt>
      <trkpt lat="42.79483" lon="0.12318">
        <ele>2976</ele>
        <time>2014-06-08T06:32:30Z</time>
      </trkpt>
      <trkpt lat="42.79481" lon="0.12312">
        <ele>2977</ele>
        <time>2014-06-08T06:32:43Z</time>
      </trkpt>
      <trkpt lat="42.79477" lon="0.12304">
        <ele>2978</ele>
        <time>2014-06-08T06:32:58Z</time>
      </trkpt>
      <trkpt lat="42.79476" lon="0.12306">
        <ele>2980</ele>
        <time>2014-06-08T06:33:22Z</time>
      </trkpt>
      <trkpt lat="42.79474" lon="0.12297">
        <ele>2980</ele>
        <time>2014-06-08T06:33:42Z</time>
      </trkpt>
      <trkpt lat="42.79472" lon="0.12294">
        <ele>2982</ele>
        <time>2014-06-08T06:33:46Z</time>
      </trkpt>
      <trkpt lat="42.79469" lon="0.12283">
        <ele>2985</ele>
        <time>2014-06-08T06:34:02Z</time>
      </trkpt>
      <trkpt lat="42.79463" lon="0.12271">
        <ele>2985</ele>
        <time>2014-06-08T06:34:18Z</time>
      </trkpt>
      <trkpt lat="42.79458" lon="0.12261">
        <ele>2987</ele>
        <time>2014-06-08T06:34:33Z</time>
      </trkpt>
      <trkpt lat="42.79455" lon="0.12261">
        <ele>2988</ele>
        <time>2014-06-08T06:34:45Z</time>
      </trkpt>
      <trkpt lat="42.79455" lon="0.12257">
        <ele>2990</ele>
        <time>2014-06-08T06:34:56Z</time>
      </trkpt>
      <trkpt lat="42.79455" lon="0.12257">
        <ele>2990</ele>
        <time>2014-06-08T06:34:57Z</time>
      </trkpt>
      <trkpt lat="42.79454" lon="0.12258">
        <ele>2988</ele>
        <time>2014-06-08T06:35:16Z</time>
      </trkpt>
      <trkpt lat="42.79454" lon="0.12256">
        <ele>2988</ele>
        <time>2014-06-08T06:35:24Z</time>
      </trkpt>
      <trkpt lat="42.79452" lon="0.12249">
        <ele>2989</ele>
        <time>2014-06-08T06:35:37Z</time>
      </trkpt>
      <trkpt lat="42.79449" lon="0.12243">
        <ele>2990</ele>
        <time>2014-06-08T06:35:51Z</time>
      </trkpt>
      <trkpt lat="42.79446" lon="0.12234">
        <ele>2992</ele>
        <time>2014-06-08T06:36:05Z</time>
      </trkpt>
      <trkpt lat="42.79446" lon="0.12232">
        <ele>2993</ele>
        <time>2014-06-08T06:36:07Z</time>
      </trkpt>
      <trkpt lat="42.79442" lon="0.12225">
        <ele>2994</ele>
        <time>2014-06-08T06:36:19Z</time>
      </trkpt>
      <trkpt lat="42.79441" lon="0.12224">
        <ele>2995</ele>
        <time>2014-06-08T06:36:32Z</time>
      </trkpt>
      <trkpt lat="42.79441" lon="0.12224">
        <ele>2995</ele>
        <time>2014-06-08T06:36:51Z</time>
      </trkpt>
      <trkpt lat="42.79441" lon="0.12224">
        <ele>2996</ele>
        <time>2014-06-08T06:36:54Z</time>
      </trkpt>
      <trkpt lat="42.79439" lon="0.12218">
        <ele>2996</ele>
        <time>2014-06-08T06:37:11Z</time>
      </trkpt>
      <trkpt lat="42.79438" lon="0.12214">
        <ele>2997</ele>
        <time>2014-06-08T06:37:23Z</time>
      </trkpt>
      <trkpt lat="42.79437" lon="0.12212">
        <ele>2999</ele>
        <time>2014-06-08T06:37:29Z</time>
      </trkpt>
      <trkpt lat="42.79433" lon="0.12203">
        <ele>3000</ele>
        <time>2014-06-08T06:37:43Z</time>
      </trkpt>
      <trkpt lat="42.7943" lon="0.12197">
        <ele>3002</ele>
        <time>2014-06-08T06:37:54Z</time>
      </trkpt>
      <trkpt lat="42.79429" lon="0.12195">
        <ele>3004</ele>
        <time>2014-06-08T06:37:57Z</time>
      </trkpt>
      <trkpt lat="42.79428" lon="0.12194">
        <ele>3008</ele>
        <time>2014-06-08T06:38:00Z</time>
      </trkpt>
      <trkpt lat="42.79428" lon="0.12194">
        <ele>3007</ele>
        <time>2014-06-08T06:38:01Z</time>
      </trkpt>
      <trkpt lat="42.79427" lon="0.12193">
        <ele>3005</ele>
        <time>2014-06-08T06:38:03Z</time>
      </trkpt>
      <trkpt lat="42.79426" lon="0.12193">
        <ele>3007</ele>
        <time>2014-06-08T06:38:20Z</time>
      </trkpt>
      <trkpt lat="42.79426" lon="0.12191">
        <ele>3008</ele>
        <time>2014-06-08T06:38:28Z</time>
      </trkpt>
      <trkpt lat="42.79424" lon="0.12189">
        <ele>3007</ele>
        <time>2014-06-08T06:38:47Z</time>
      </trkpt>
      <trkpt lat="42.79421" lon="0.12181">
        <ele>3009</ele>
        <time>2014-06-08T06:39:01Z</time>
      </trkpt>
      <trkpt lat="42.79416" lon="0.12169">
        <ele>3011</ele>
        <time>2014-06-08T06:39:16Z</time>
      </trkpt>
      <trkpt lat="42.79411" lon="0.12161">
        <ele>3010</ele>
        <time>2014-06-08T06:39:30Z</time>
      </trkpt>
      <trkpt lat="42.79411" lon="0.12154">
        <ele>3013</ele>
        <time>2014-06-08T06:39:41Z</time>
      </trkpt>
      <trkpt lat="42.7941" lon="0.12151">
        <ele>3014</ele>
        <time>2014-06-08T06:39:59Z</time>
      </trkpt>
      <trkpt lat="42.7941" lon="0.12149">
        <ele>3017</ele>
        <time>2014-06-08T06:40:04Z</time>
      </trkpt>
      <trkpt lat="42.79407" lon="0.12142">
        <ele>3016</ele>
        <time>2014-06-08T06:40:18Z</time>
      </trkpt>
      <trkpt lat="42.79404" lon="0.12132">
        <ele>3018</ele>
        <time>2014-06-08T06:40:33Z</time>
      </trkpt>
      <trkpt lat="42.79404" lon="0.12133">
        <ele>3017</ele>
        <time>2014-06-08T06:40:47Z</time>
      </trkpt>
      <trkpt lat="42.79401" lon="0.12132">
        <ele>3015</ele>
        <time>2014-06-08T06:41:13Z</time>
      </trkpt>
      <trkpt lat="42.79401" lon="0.12135">
        <ele>3017</ele>
        <time>2014-06-08T06:41:16Z</time>
      </trkpt>
      <trkpt lat="42.79401" lon="0.12136">
        <ele>3017</ele>
        <time>2014-06-08T06:41:17Z</time>
      </trkpt>
      <trkpt lat="42.79396" lon="0.1215">
        <ele>3020</ele>
        <time>2014-06-08T06:41:34Z</time>
      </trkpt>
      <trkpt lat="42.79394" lon="0.12155">
        <ele>3022</ele>
        <time>2014-06-08T06:41:42Z</time>
      </trkpt>
      <trkpt lat="42.79392" lon="0.12166">
        <ele>3023</ele>
        <time>2014-06-08T06:42:00Z</time>
      </trkpt>
      <trkpt lat="42.79391" lon="0.12173">
        <ele>3025</ele>
        <time>2014-06-08T06:42:14Z</time>
      </trkpt>
      <trkpt lat="42.79393" lon="0.12174">
        <ele>3025</ele>
        <time>2014-06-08T06:42:29Z</time>
      </trkpt>
      <trkpt lat="42.79393" lon="0.12172">
        <ele>3025</ele>
        <time>2014-06-08T06:42:50Z</time>
      </trkpt>
      <trkpt lat="42.79389" lon="0.12165">
        <ele>3029</ele>
        <time>2014-06-08T06:43:02Z</time>
      </trkpt>
      <trkpt lat="42.79384" lon="0.12159">
        <ele>3028</ele>
        <time>2014-06-08T06:43:15Z</time>
      </trkpt>
      <trkpt lat="42.79379" lon="0.1215">
        <ele>3028</ele>
        <time>2014-06-08T06:43:30Z</time>
      </trkpt>
      <trkpt lat="42.79377" lon="0.1214">
        <ele>3027</ele>
        <time>2014-06-08T06:43:43Z</time>
      </trkpt>
      <trkpt lat="42.79378" lon="0.1214">
        <ele>3030</ele>
        <time>2014-06-08T06:43:47Z</time>
      </trkpt>
      <trkpt lat="42.79377" lon="0.1214">
        <ele>3032</ele>
        <time>2014-06-08T06:43:49Z</time>
      </trkpt>
      <trkpt lat="42.79376" lon="0.12144">
        <ele>3032</ele>
        <time>2014-06-08T06:43:59Z</time>
      </trkpt>
      <trkpt lat="42.79374" lon="0.12149">
        <ele>3034</ele>
        <time>2014-06-08T06:44:06Z</time>
      </trkpt>
      <trkpt lat="42.79373" lon="0.12151">
        <ele>3032</ele>
        <time>2014-06-08T06:44:08Z</time>
      </trkpt>
      <trkpt lat="42.79371" lon="0.12161">
        <ele>3035</ele>
        <time>2014-06-08T06:44:24Z</time>
      </trkpt>
      <trkpt lat="42.79369" lon="0.12172">
        <ele>3037</ele>
        <time>2014-06-08T06:44:43Z</time>
      </trkpt>
      <trkpt lat="42.79369" lon="0.12184">
        <ele>3039</ele>
        <time>2014-06-08T06:44:58Z</time>
      </trkpt>
      <trkpt lat="42.79366" lon="0.12187">
        <ele>3040</ele>
        <time>2014-06-08T06:45:21Z</time>
      </trkpt>
      <trkpt lat="42.79369" lon="0.12187">
        <ele>3040</ele>
        <time>2014-06-08T06:45:57Z</time>
      </trkpt>
      <trkpt lat="42.79369" lon="0.12195">
        <ele>3044</ele>
        <time>2014-06-08T06:46:10Z</time>
      </trkpt>
      <trkpt lat="42.79369" lon="0.12196">
        <ele>3044</ele>
        <time>2014-06-08T06:46:11Z</time>
      </trkpt>
      <trkpt lat="42.79367" lon="0.12196">
        <ele>3047</ele>
        <time>2014-06-08T06:46:26Z</time>
      </trkpt>
      <trkpt lat="42.79367" lon="0.12196">
        <ele>3047</ele>
        <time>2014-06-08T06:46:27Z</time>
      </trkpt>
      <trkpt lat="42.79363" lon="0.12191">
        <ele>3047</ele>
        <time>2014-06-08T06:46:37Z</time>
      </trkpt>
      <trkpt lat="42.7936" lon="0.12187">
        <ele>3049</ele>
        <time>2014-06-08T06:46:43Z</time>
      </trkpt>
      <trkpt lat="42.79355" lon="0.1218">
        <ele>3051</ele>
        <time>2014-06-08T06:46:56Z</time>
      </trkpt>
      <trkpt lat="42.79352" lon="0.12172">
        <ele>3050</ele>
        <time>2014-06-08T06:47:10Z</time>
      </trkpt>
      <trkpt lat="42.79349" lon="0.12165">
        <ele>3050</ele>
        <time>2014-06-08T06:47:24Z</time>
      </trkpt>
      <trkpt lat="42.79348" lon="0.12164">
        <ele>3049</ele>
        <time>2014-06-08T06:47:38Z</time>
      </trkpt>
      <trkpt lat="42.79347" lon="0.12163">
        <ele>3050</ele>
        <time>2014-06-08T06:48:11Z</time>
      </trkpt>
      <trkpt lat="42.79346" lon="0.12172">
        <ele>3050</ele>
        <time>2014-06-08T06:48:27Z</time>
      </trkpt>
      <trkpt lat="42.79343" lon="0.12181">
        <ele>3051</ele>
        <time>2014-06-08T06:48:44Z</time>
      </trkpt>
      <trkpt lat="42.79341" lon="0.12189">
        <ele>3054</ele>
        <time>2014-06-08T06:48:55Z</time>
      </trkpt>
      <trkpt lat="42.79338" lon="0.12201">
        <ele>3056</ele>
        <time>2014-06-08T06:49:09Z</time>
      </trkpt>
      <trkpt lat="42.79339" lon="0.12204">
        <ele>3059</ele>
        <time>2014-06-08T06:49:13Z</time>
      </trkpt>
      <trkpt lat="42.79339" lon="0.12205">
        <ele>3059</ele>
        <time>2014-06-08T06:49:14Z</time>
      </trkpt>
      <trkpt lat="42.79339" lon="0.12215">
        <ele>3062</ele>
        <time>2014-06-08T06:49:29Z</time>
      </trkpt>
      <trkpt lat="42.79342" lon="0.12219">
        <ele>3062</ele>
        <time>2014-06-08T06:49:47Z</time>
      </trkpt>
      <trkpt lat="42.7934" lon="0.12225">
        <ele>3061</ele>
        <time>2014-06-08T06:50:07Z</time>
      </trkpt>
      <trkpt lat="42.79336" lon="0.12222">
        <ele>3063</ele>
        <time>2014-06-08T06:50:31Z</time>
      </trkpt>
      <trkpt lat="42.79326" lon="0.12217">
        <ele>3065</ele>
        <time>2014-06-08T06:50:48Z</time>
      </trkpt>
      <trkpt lat="42.79321" lon="0.1221">
        <ele>3068</ele>
        <time>2014-06-08T06:51:01Z</time>
      </trkpt>
      <trkpt lat="42.79316" lon="0.12203">
        <ele>3072</ele>
        <time>2014-06-08T06:51:17Z</time>
      </trkpt>
      <trkpt lat="42.7931" lon="0.12196">
        <ele>3074</ele>
        <time>2014-06-08T06:51:30Z</time>
      </trkpt>
      <trkpt lat="42.79306" lon="0.12186">
        <ele>3075</ele>
        <time>2014-06-08T06:51:50Z</time>
      </trkpt>
      <trkpt lat="42.79302" lon="0.12175">
        <ele>3076</ele>
        <time>2014-06-08T06:52:04Z</time>
      </trkpt>
      <trkpt lat="42.79299" lon="0.12163">
        <ele>3079</ele>
        <time>2014-06-08T06:52:21Z</time>
      </trkpt>
      <trkpt lat="42.79299" lon="0.12153">
        <ele>3080</ele>
        <time>2014-06-08T06:52:33Z</time>
      </trkpt>
      <trkpt lat="42.79298" lon="0.12151">
        <ele>3079</ele>
        <time>2014-06-08T06:52:39Z</time>
      </trkpt>
      <trkpt lat="42.79298" lon="0.12152">
        <ele>3081</ele>
        <time>2014-06-08T06:52:49Z</time>
      </trkpt>
      <trkpt lat="42.79298" lon="0.12153">
        <ele>3081</ele>
        <time>2014-06-08T06:52:54Z</time>
      </trkpt>
      <trkpt lat="42.79297" lon="0.12153">
        <ele>3080</ele>
        <time>2014-06-08T06:53:20Z</time>
      </trkpt>
      <trkpt lat="42.79298" lon="0.12146">
        <ele>3081</ele>
        <time>2014-06-08T06:53:33Z</time>
      </trkpt>
      <trkpt lat="42.79296" lon="0.12148">
        <ele>3081</ele>
        <time>2014-06-08T06:53:43Z</time>
      </trkpt>
      <trkpt lat="42.7929" lon="0.12154">
        <ele>3084</ele>
        <time>2014-06-08T06:54:00Z</time>
      </trkpt>
      <trkpt lat="42.79286" lon="0.12157">
        <ele>3085</ele>
        <time>2014-06-08T06:54:16Z</time>
      </trkpt>
      <trkpt lat="42.79285" lon="0.12161">
        <ele>3085</ele>
        <time>2014-06-08T06:54:38Z</time>
      </trkpt>
      <trkpt lat="42.79285" lon="0.12154">
        <ele>3087</ele>
        <time>2014-06-08T06:54:58Z</time>
      </trkpt>
      <trkpt lat="42.79286" lon="0.12144">
        <ele>3089</ele>
        <time>2014-06-08T06:55:11Z</time>
      </trkpt>
      <trkpt lat="42.79287" lon="0.12133">
        <ele>3090</ele>
        <time>2014-06-08T06:55:27Z</time>
      </trkpt>
      <trkpt lat="42.79288" lon="0.12121">
        <ele>3091</ele>
        <time>2014-06-08T06:55:39Z</time>
      </trkpt>
      <trkpt lat="42.79289" lon="0.12119">
        <ele>3092</ele>
        <time>2014-06-08T06:55:41Z</time>
      </trkpt>
      <trkpt lat="42.79288" lon="0.12119">
        <ele>3093</ele>
        <time>2014-06-08T06:55:56Z</time>
      </trkpt>
      <trkpt lat="42.79288" lon="0.12118">
        <ele>3096</ele>
        <time>2014-06-08T06:56:09Z</time>
      </trkpt>
      <trkpt lat="42.79287" lon="0.12115">
        <ele>3095</ele>
        <time>2014-06-08T06:56:22Z</time>
      </trkpt>
      <trkpt lat="42.79284" lon="0.1212">
        <ele>3096</ele>
        <time>2014-06-08T06:56:39Z</time>
      </trkpt>
      <trkpt lat="42.79279" lon="0.12125">
        <ele>3097</ele>
        <time>2014-06-08T06:56:53Z</time>
      </trkpt>
      <trkpt lat="42.79276" lon="0.12127">
        <ele>3097</ele>
        <time>2014-06-08T06:57:01Z</time>
      </trkpt>
      <trkpt lat="42.79275" lon="0.12128">
        <ele>3101</ele>
        <time>2014-06-08T06:57:03Z</time>
      </trkpt>
      <trkpt lat="42.79274" lon="0.12128">
        <ele>3101</ele>
        <time>2014-06-08T06:57:04Z</time>
      </trkpt>
      <trkpt lat="42.79274" lon="0.12129">
        <ele>3098</ele>
        <time>2014-06-08T06:57:22Z</time>
      </trkpt>
      <trkpt lat="42.79276" lon="0.12123">
        <ele>3099</ele>
        <time>2014-06-08T06:57:38Z</time>
      </trkpt>
      <trkpt lat="42.79276" lon="0.12118">
        <ele>3102</ele>
        <time>2014-06-08T06:57:46Z</time>
      </trkpt>
      <trkpt lat="42.79277" lon="0.12113">
        <ele>3104</ele>
        <time>2014-06-08T06:57:56Z</time>
      </trkpt>
      <trkpt lat="42.79278" lon="0.12108">
        <ele>3104</ele>
        <time>2014-06-08T06:58:08Z</time>
      </trkpt>
      <trkpt lat="42.79277" lon="0.12108">
        <ele>3106</ele>
        <time>2014-06-08T06:58:36Z</time>
      </trkpt>
      <trkpt lat="42.79277" lon="0.12106">
        <ele>3104</ele>
        <time>2014-06-08T06:58:48Z</time>
      </trkpt>
      <trkpt lat="42.79275" lon="0.12108">
        <ele>3108</ele>
        <time>2014-06-08T06:58:58Z</time>
      </trkpt>
      <trkpt lat="42.79272" lon="0.12112">
        <ele>3111</ele>
        <time>2014-06-08T06:59:06Z</time>
      </trkpt>
      <trkpt lat="42.79272" lon="0.12112">
        <ele>3111</ele>
        <time>2014-06-08T06:59:07Z</time>
      </trkpt>
      <trkpt lat="42.79271" lon="0.12113">
        <ele>3110</ele>
        <time>2014-06-08T06:59:13Z</time>
      </trkpt>
      <trkpt lat="42.79271" lon="0.12111">
        <ele>3107</ele>
        <time>2014-06-08T06:59:22Z</time>
      </trkpt>
      <trkpt lat="42.79271" lon="0.12113">
        <ele>3106</ele>
        <time>2014-06-08T06:59:45Z</time>
      </trkpt>
      <trkpt lat="42.79269" lon="0.12113">
        <ele>3108</ele>
        <time>2014-06-08T07:00:02Z</time>
      </trkpt>
      <trkpt lat="42.79271" lon="0.12108">
        <ele>3109</ele>
        <time>2014-06-08T07:00:14Z</time>
      </trkpt>
      <trkpt lat="42.79272" lon="0.12103">
        <ele>3111</ele>
        <time>2014-06-08T07:00:23Z</time>
      </trkpt>
      <trkpt lat="42.7927" lon="0.12101">
        <ele>3112</ele>
        <time>2014-06-08T07:00:40Z</time>
      </trkpt>
      <trkpt lat="42.79269" lon="0.12101">
        <ele>3113</ele>
        <time>2014-06-08T07:00:49Z</time>
      </trkpt>
      <trkpt lat="42.79267" lon="0.12102">
        <ele>3114</ele>
        <time>2014-06-08T07:01:06Z</time>
      </trkpt>
      <trkpt lat="42.79267" lon="0.12103">
        <ele>3114</ele>
        <time>2014-06-08T07:01:23Z</time>
      </trkpt>
      <trkpt lat="42.79268" lon="0.12103">
        <ele>3114</ele>
        <time>2014-06-08T07:01:41Z</time>
      </trkpt>
      <trkpt lat="42.79269" lon="0.12103">
        <ele>3114</ele>
        <time>2014-06-08T07:02:07Z</time>
      </trkpt>
      <trkpt lat="42.79268" lon="0.12104">
        <ele>3115</ele>
        <time>2014-06-08T07:02:20Z</time>
      </trkpt>
      <trkpt lat="42.7927" lon="0.12102">
        <ele>3112</ele>
        <time>2014-06-08T07:02:32Z</time>
      </trkpt>
      <trkpt lat="42.7927" lon="0.121">
        <ele>3114</ele>
        <time>2014-06-08T07:02:52Z</time>
      </trkpt>
      <trkpt lat="42.7927" lon="0.12095">
        <ele>3114</ele>
        <time>2014-06-08T07:03:02Z</time>
      </trkpt>
      <trkpt lat="42.79266" lon="0.12094">
        <ele>3115</ele>
        <time>2014-06-08T07:03:14Z</time>
      </trkpt>
      <trkpt lat="42.79265" lon="0.12095">
        <ele>3118</ele>
        <time>2014-06-08T07:03:27Z</time>
      </trkpt>
      <trkpt lat="42.79267" lon="0.12088">
        <ele>3119</ele>
        <time>2014-06-08T07:03:40Z</time>
      </trkpt>
      <trkpt lat="42.79268" lon="0.12087">
        <ele>3120</ele>
        <time>2014-06-08T07:03:43Z</time>
      </trkpt>
      <trkpt lat="42.79273" lon="0.12077">
        <ele>3121</ele>
        <time>2014-06-08T07:03:58Z</time>
      </trkpt>
      <trkpt lat="42.79274" lon="0.12076">
        <ele>3121</ele>
        <time>2014-06-08T07:03:59Z</time>
      </trkpt>
      <trkpt lat="42.79274" lon="0.12075">
        <ele>3122</ele>
        <time>2014-06-08T07:04:08Z</time>
      </trkpt>
      <trkpt lat="42.79274" lon="0.12074">
        <ele>3122</ele>
        <time>2014-06-08T07:04:34Z</time>
      </trkpt>
      <trkpt lat="42.79274" lon="0.12074">
        <ele>3123</ele>
        <time>2014-06-08T07:04:36Z</time>
      </trkpt>
      <trkpt lat="42.79275" lon="0.12072">
        <ele>3121</ele>
        <time>2014-06-08T07:04:41Z</time>
      </trkpt>
      <trkpt lat="42.79274" lon="0.12072">
        <ele>3122</ele>
        <time>2014-06-08T07:04:53Z</time>
      </trkpt>
      <trkpt lat="42.79273" lon="0.12072">
        <ele>3123</ele>
        <time>2014-06-08T07:04:57Z</time>
      </trkpt>
      <trkpt lat="42.79273" lon="0.12069">
        <ele>3124</ele>
        <time>2014-06-08T07:05:17Z</time>
      </trkpt>
      <trkpt lat="42.79274" lon="0.12064">
        <ele>3125</ele>
        <time>2014-06-08T07:05:27Z</time>
      </trkpt>
      <trkpt lat="42.79275" lon="0.12064">
        <ele>3125</ele>
        <time>2014-06-08T07:05:33Z</time>
      </trkpt>
      <trkpt lat="42.79272" lon="0.12064">
        <ele>3122</ele>
        <time>2014-06-08T07:05:45Z</time>
      </trkpt>
      <trkpt lat="42.79271" lon="0.12065">
        <ele>3121</ele>
        <time>2014-06-08T07:05:47Z</time>
      </trkpt>
      <trkpt lat="42.79268" lon="0.12068">
        <ele>3123</ele>
        <time>2014-06-08T07:05:58Z</time>
      </trkpt>
      <trkpt lat="42.79268" lon="0.12068">
        <ele>3126</ele>
        <time>2014-06-08T07:06:02Z</time>
      </trkpt>
      <trkpt lat="42.79267" lon="0.1207">
        <ele>3129</ele>
        <time>2014-06-08T07:06:18Z</time>
      </trkpt>
      <trkpt lat="42.79268" lon="0.12065">
        <ele>3132</ele>
        <time>2014-06-08T07:06:27Z</time>
      </trkpt>
      <trkpt lat="42.79268" lon="0.12064">
        <ele>3132</ele>
        <time>2014-06-08T07:06:28Z</time>
      </trkpt>
      <trkpt lat="42.7927" lon="0.12057">
        <ele>3131</ele>
        <time>2014-06-08T07:06:38Z</time>
      </trkpt>
      <trkpt lat="42.79269" lon="0.12054">
        <ele>3132</ele>
        <time>2014-06-08T07:06:46Z</time>
      </trkpt>
      <trkpt lat="42.79269" lon="0.12048">
        <ele>3134</ele>
        <time>2014-06-08T07:06:55Z</time>
      </trkpt>
      <trkpt lat="42.7927" lon="0.12045">
        <ele>3130</ele>
        <time>2014-06-08T07:07:01Z</time>
      </trkpt>
      <trkpt lat="42.7927" lon="0.12045">
        <ele>3130</ele>
        <time>2014-06-08T07:07:19Z</time>
      </trkpt>
      <trkpt lat="42.79269" lon="0.12045">
        <ele>3134</ele>
        <time>2014-06-08T07:07:31Z</time>
      </trkpt>
      <trkpt lat="42.79268" lon="0.12046">
        <ele>3133</ele>
        <time>2014-06-08T07:07:35Z</time>
      </trkpt>
      <trkpt lat="42.79265" lon="0.12048">
        <ele>3133</ele>
        <time>2014-06-08T07:07:49Z</time>
      </trkpt>
      <trkpt lat="42.79264" lon="0.1205">
        <ele>3135</ele>
        <time>2014-06-08T07:08:04Z</time>
      </trkpt>
      <trkpt lat="42.79264" lon="0.12048">
        <ele>3135</ele>
        <time>2014-06-08T07:08:24Z</time>
      </trkpt>
      <trkpt lat="42.79263" lon="0.12048">
        <ele>3135</ele>
        <time>2014-06-08T07:08:48Z</time>
      </trkpt>
      <trkpt lat="42.79263" lon="0.12047">
        <ele>3134</ele>
        <time>2014-06-08T07:09:03Z</time>
      </trkpt>
      <trkpt lat="42.79262" lon="0.12046">
        <ele>3137</ele>
        <time>2014-06-08T07:09:09Z</time>
      </trkpt>
      <trkpt lat="42.79262" lon="0.12041">
        <ele>3138</ele>
        <time>2014-06-08T07:09:25Z</time>
      </trkpt>
      <trkpt lat="42.79262" lon="0.12038">
        <ele>3141</ele>
        <time>2014-06-08T07:09:38Z</time>
      </trkpt>
      <trkpt lat="42.7926" lon="0.12035">
        <ele>3142</ele>
        <time>2014-06-08T07:09:53Z</time>
      </trkpt>
      <trkpt lat="42.79259" lon="0.12033">
        <ele>3141</ele>
        <time>2014-06-08T07:10:13Z</time>
      </trkpt>
      <trkpt lat="42.79258" lon="0.12031">
        <ele>3144</ele>
        <time>2014-06-08T07:10:31Z</time>
      </trkpt>
      <trkpt lat="42.79257" lon="0.12028">
        <ele>3144</ele>
        <time>2014-06-08T07:10:46Z</time>
      </trkpt>
      <trkpt lat="42.79257" lon="0.12028">
        <ele>3147</ele>
        <time>2014-06-08T07:11:11Z</time>
      </trkpt>
      <trkpt lat="42.79254" lon="0.12024">
        <ele>3149</ele>
        <time>2014-06-08T07:11:26Z</time>
      </trkpt>
      <trkpt lat="42.79255" lon="0.12024">
        <ele>3150</ele>
        <time>2014-06-08T07:11:44Z</time>
      </trkpt>
      <trkpt lat="42.79254" lon="0.12024">
        <ele>3147</ele>
        <time>2014-06-08T07:12:07Z</time>
      </trkpt>
      <trkpt lat="42.79254" lon="0.12023">
        <ele>3148</ele>
        <time>2014-06-08T07:12:25Z</time>
      </trkpt>
      <trkpt lat="42.79253" lon="0.12022">
        <ele>3153</ele>
        <time>2014-06-08T07:12:30Z</time>
      </trkpt>
      <trkpt lat="42.79253" lon="0.12022">
        <ele>3153</ele>
        <time>2014-06-08T07:12:31Z</time>
      </trkpt>
      <trkpt lat="42.79254" lon="0.12018">
        <ele>3150</ele>
        <time>2014-06-08T07:12:45Z</time>
      </trkpt>
      <trkpt lat="42.79256" lon="0.12015">
        <ele>3152</ele>
        <time>2014-06-08T07:12:56Z</time>
      </trkpt>
      <trkpt lat="42.79254" lon="0.1201">
        <ele>3155</ele>
        <time>2014-06-08T07:13:09Z</time>
      </trkpt>
      <trkpt lat="42.79251" lon="0.12007">
        <ele>3158</ele>
        <time>2014-06-08T07:13:23Z</time>
      </trkpt>
      <trkpt lat="42.79251" lon="0.12008">
        <ele>3161</ele>
        <time>2014-06-08T07:13:31Z</time>
      </trkpt>
      <trkpt lat="42.79252" lon="0.1201">
        <ele>3163</ele>
        <time>2014-06-08T07:13:39Z</time>
      </trkpt>
      <trkpt lat="42.79251" lon="0.12009">
        <ele>3160</ele>
        <time>2014-06-08T07:13:55Z</time>
      </trkpt>
      <trkpt lat="42.79251" lon="0.12008">
        <ele>3158</ele>
        <time>2014-06-08T07:14:00Z</time>
      </trkpt>
      <trkpt lat="42.79248" lon="0.12005">
        <ele>3157</ele>
        <time>2014-06-08T07:14:11Z</time>
      </trkpt>
      <trkpt lat="42.79248" lon="0.12005">
        <ele>3160</ele>
        <time>2014-06-08T07:14:24Z</time>
      </trkpt>
      <trkpt lat="42.79247" lon="0.12002">
        <ele>3162</ele>
        <time>2014-06-08T07:14:33Z</time>
      </trkpt>
      <trkpt lat="42.79247" lon="0.12002">
        <ele>3164</ele>
        <time>2014-06-08T07:14:38Z</time>
      </trkpt>
      <trkpt lat="42.79244" lon="0.12001">
        <ele>3168</ele>
        <time>2014-06-08T07:14:51Z</time>
      </trkpt>
      <trkpt lat="42.79244" lon="0.12001">
        <ele>3172</ele>
        <time>2014-06-08T07:14:54Z</time>
      </trkpt>
      <trkpt lat="42.79244" lon="0.12001">
        <ele>3171</ele>
        <time>2014-06-08T07:14:55Z</time>
      </trkpt>
      <trkpt lat="42.79243" lon="0.12002">
        <ele>3168</ele>
        <time>2014-06-08T07:14:59Z</time>
      </trkpt>
      <trkpt lat="42.79242" lon="0.12001">
        <ele>3172</ele>
        <time>2014-06-08T07:15:05Z</time>
      </trkpt>
      <trkpt lat="42.79241" lon="0.12001">
        <ele>3170</ele>
        <time>2014-06-08T07:15:06Z</time>
      </trkpt>
      <trkpt lat="42.79241" lon="0.12001">
        <ele>3174</ele>
        <time>2014-06-08T07:15:09Z</time>
      </trkpt>
      <trkpt lat="42.7924" lon="0.12">
        <ele>3178</ele>
        <time>2014-06-08T07:15:15Z</time>
      </trkpt>
      <trkpt lat="42.79239" lon="0.12001">
        <ele>3179</ele>
        <time>2014-06-08T07:15:16Z</time>
      </trkpt>
      <trkpt lat="42.7924" lon="0.12001">
        <ele>3176</ele>
        <time>2014-06-08T07:15:18Z</time>
      </trkpt>
      <trkpt lat="42.79239" lon="0.12001">
        <ele>3173</ele>
        <time>2014-06-08T07:15:20Z</time>
      </trkpt>
      <trkpt lat="42.79239" lon="0.12001">
        <ele>3174</ele>
        <time>2014-06-08T07:15:21Z</time>
      </trkpt>
      <trkpt lat="42.79239" lon="0.12">
        <ele>3171</ele>
        <time>2014-06-08T07:15:28Z</time>
      </trkpt>
      <trkpt lat="42.79241" lon="0.12">
        <ele>3167</ele>
        <time>2014-06-08T07:15:43Z</time>
      </trkpt>
      <trkpt lat="42.79241" lon="0.12">
        <ele>3168</ele>
        <time>2014-06-08T07:15:44Z</time>
      </trkpt>
      <trkpt lat="42.79241" lon="0.11999">
        <ele>3172</ele>
        <time>2014-06-08T07:15:47Z</time>
      </trkpt>
      <trkpt lat="42.79241" lon="0.12">
        <ele>3168</ele>
        <time>2014-06-08T07:15:52Z</time>
      </trkpt>
      <trkpt lat="42.79241" lon="0.12">
        <ele>3167</ele>
        <time>2014-06-08T07:15:54Z</time>
      </trkpt>
      <trkpt lat="42.79241" lon="0.12">
        <ele>3169</ele>
        <time>2014-06-08T07:15:57Z</time>
      </trkpt>
      <trkpt lat="42.79241" lon="0.12001">
        <ele>3167</ele>
        <time>2014-06-08T07:16:00Z</time>
      </trkpt>
      <trkpt lat="42.79242" lon="0.11999">
        <ele>3169</ele>
        <time>2014-06-08T07:16:05Z</time>
      </trkpt>
      <trkpt lat="42.79242" lon="0.11998">
        <ele>3167</ele>
        <time>2014-06-08T07:16:07Z</time>
      </trkpt>
      <trkpt lat="42.79241" lon="0.11997">
        <ele>3171</ele>
        <time>2014-06-08T07:16:12Z</time>
      </trkpt>
      <trkpt lat="42.79241" lon="0.11997">
        <ele>3171</ele>
        <time>2014-06-08T07:16:13Z</time>
      </trkpt>
      <trkpt lat="42.7924" lon="0.11995">
        <ele>3168</ele>
        <time>2014-06-08T07:16:30Z</time>
      </trkpt>
      <trkpt lat="42.79238" lon="0.11994">
        <ele>3167</ele>
        <time>2014-06-08T07:16:33Z</time>
      </trkpt>
      <trkpt lat="42.79236" lon="0.11992">
        <ele>3167</ele>
        <time>2014-06-08T07:16:45Z</time>
      </trkpt>
      <trkpt lat="42.79235" lon="0.11992">
        <ele>3168</ele>
        <time>2014-06-08T07:16:53Z</time>
      </trkpt>
      <trkpt lat="42.79235" lon="0.11992">
        <ele>3172</ele>
        <time>2014-06-08T07:17:03Z</time>
      </trkpt>
      <trkpt lat="42.79235" lon="0.11992">
        <ele>3169</ele>
        <time>2014-06-08T07:17:05Z</time>
      </trkpt>
      <trkpt lat="42.79236" lon="0.11995">
        <ele>3169</ele>
        <time>2014-06-08T07:17:12Z</time>
      </trkpt>
      <trkpt lat="42.79236" lon="0.11997">
        <ele>3172</ele>
        <time>2014-06-08T07:17:23Z</time>
      </trkpt>
      <trkpt lat="42.79236" lon="0.11997">
        <ele>3169</ele>
        <time>2014-06-08T07:17:26Z</time>
      </trkpt>
      <trkpt lat="42.79236" lon="0.11997">
        <ele>3167</ele>
        <time>2014-06-08T07:17:33Z</time>
      </trkpt>
      <trkpt lat="42.79236" lon="0.11995">
        <ele>3168</ele>
        <time>2014-06-08T07:17:45Z</time>
      </trkpt>
      <trkpt lat="42.79229" lon="0.11989">
        <ele>3171</ele>
        <time>2014-06-08T07:17:55Z</time>
      </trkpt>
      <trkpt lat="42.79229" lon="0.11989">
        <ele>3172</ele>
        <time>2014-06-08T07:17:57Z</time>
      </trkpt>
      <trkpt lat="42.79231" lon="0.11987">
        <ele>3169</ele>
        <time>2014-06-08T07:18:02Z</time>
      </trkpt>
      <trkpt lat="42.79224" lon="0.11981">
        <ele>3170</ele>
        <time>2014-06-08T07:18:15Z</time>
      </trkpt>
      <trkpt lat="42.79218" lon="0.11975">
        <ele>3173</ele>
        <time>2014-06-08T07:18:29Z</time>
      </trkpt>
      <trkpt lat="42.79218" lon="0.11975">
        <ele>3173</ele>
        <time>2014-06-08T07:18:30Z</time>
      </trkpt>
      <trkpt lat="42.79217" lon="0.11975">
        <ele>3170</ele>
        <time>2014-06-08T07:18:36Z</time>
      </trkpt>
      <trkpt lat="42.79215" lon="0.11972">
        <ele>3171</ele>
        <time>2014-06-08T07:18:42Z</time>
      </trkpt>
      <trkpt lat="42.79212" lon="0.11971">
        <ele>3173</ele>
        <time>2014-06-08T07:18:57Z</time>
      </trkpt>
      <trkpt lat="42.79211" lon="0.1197">
        <ele>3178</ele>
        <time>2014-06-08T07:19:03Z</time>
      </trkpt>
      <trkpt lat="42.79209" lon="0.11969">
        <ele>3175</ele>
        <time>2014-06-08T07:19:07Z</time>
      </trkpt>
      <trkpt lat="42.79205" lon="0.11966">
        <ele>3174</ele>
        <time>2014-06-08T07:19:23Z</time>
      </trkpt>
      <trkpt lat="42.79204" lon="0.11967">
        <ele>3176</ele>
        <time>2014-06-08T07:19:26Z</time>
      </trkpt>
      <trkpt lat="42.79202" lon="0.11969">
        <ele>3177</ele>
        <time>2014-06-08T07:19:32Z</time>
      </trkpt>
      <trkpt lat="42.792" lon="0.11969">
        <ele>3181</ele>
        <time>2014-06-08T07:19:39Z</time>
      </trkpt>
      <trkpt lat="42.79201" lon="0.11971">
        <ele>3179</ele>
        <time>2014-06-08T07:19:49Z</time>
      </trkpt>
      <trkpt lat="42.79199" lon="0.1197">
        <ele>3177</ele>
        <time>2014-06-08T07:20:05Z</time>
      </trkpt>
      <trkpt lat="42.79198" lon="0.11965">
        <ele>3173</ele>
        <time>2014-06-08T07:20:18Z</time>
      </trkpt>
      <trkpt lat="42.79197" lon="0.11964">
        <ele>3173</ele>
        <time>2014-06-08T07:20:19Z</time>
      </trkpt>
      <trkpt lat="42.79192" lon="0.11959">
        <ele>3171</ele>
        <time>2014-06-08T07:20:29Z</time>
      </trkpt>
      <trkpt lat="42.79184" lon="0.11952">
        <ele>3172</ele>
        <time>2014-06-08T07:20:43Z</time>
      </trkpt>
      <trkpt lat="42.79185" lon="0.11953">
        <ele>3174</ele>
        <time>2014-06-08T07:20:48Z</time>
      </trkpt>
      <trkpt lat="42.79183" lon="0.11951">
        <ele>3175</ele>
        <time>2014-06-08T07:20:56Z</time>
      </trkpt>
      <trkpt lat="42.7918" lon="0.11949">
        <ele>3175</ele>
        <time>2014-06-08T07:21:09Z</time>
      </trkpt>
      <trkpt lat="42.79177" lon="0.11948">
        <ele>3172</ele>
        <time>2014-06-08T07:21:16Z</time>
      </trkpt>
      <trkpt lat="42.79174" lon="0.11946">
        <ele>3169</ele>
        <time>2014-06-08T07:21:24Z</time>
      </trkpt>
      <trkpt lat="42.79172" lon="0.11941">
        <ele>3170</ele>
        <time>2014-06-08T07:21:34Z</time>
      </trkpt>
      <trkpt lat="42.79172" lon="0.1194">
        <ele>3175</ele>
        <time>2014-06-08T07:21:37Z</time>
      </trkpt>
      <trkpt lat="42.79172" lon="0.1194">
        <ele>3174</ele>
        <time>2014-06-08T07:21:38Z</time>
      </trkpt>
      <trkpt lat="42.79171" lon="0.1194">
        <ele>3173</ele>
        <time>2014-06-08T07:21:40Z</time>
      </trkpt>
      <trkpt lat="42.7917" lon="0.1194">
        <ele>3174</ele>
        <time>2014-06-08T07:21:54Z</time>
      </trkpt>
      <trkpt lat="42.79173" lon="0.11937">
        <ele>3172</ele>
        <time>2014-06-08T07:22:07Z</time>
      </trkpt>
      <trkpt lat="42.79172" lon="0.11936">
        <ele>3169</ele>
        <time>2014-06-08T07:22:11Z</time>
      </trkpt>
      <trkpt lat="42.79172" lon="0.11936">
        <ele>3169</ele>
        <time>2014-06-08T07:22:12Z</time>
      </trkpt>
      <trkpt lat="42.79167" lon="0.11935">
        <ele>3166</ele>
        <time>2014-06-08T07:22:23Z</time>
      </trkpt>
      <trkpt lat="42.79165" lon="0.11935">
        <ele>3166</ele>
        <time>2014-06-08T07:22:35Z</time>
      </trkpt>
      <trkpt lat="42.79164" lon="0.11933">
        <ele>3168</ele>
        <time>2014-06-08T07:22:48Z</time>
      </trkpt>
      <trkpt lat="42.79165" lon="0.11935">
        <ele>3166</ele>
        <time>2014-06-08T07:22:55Z</time>
      </trkpt>
      <trkpt lat="42.79165" lon="0.11934">
        <ele>3168</ele>
        <time>2014-06-08T07:23:02Z</time>
      </trkpt>
      <trkpt lat="42.79166" lon="0.11935">
        <ele>3167</ele>
        <time>2014-06-08T07:23:16Z</time>
      </trkpt>
      <trkpt lat="42.79165" lon="0.11935">
        <ele>3165</ele>
        <time>2014-06-08T07:23:22Z</time>
      </trkpt>
      <trkpt lat="42.79165" lon="0.11935">
        <ele>3169</ele>
        <time>2014-06-08T07:23:35Z</time>
      </trkpt>
      <trkpt lat="42.79165" lon="0.11935">
        <ele>3166</ele>
        <time>2014-06-08T07:23:39Z</time>
      </trkpt>
      <trkpt lat="42.79165" lon="0.11935">
        <ele>3167</ele>
        <time>2014-06-08T07:23:45Z</time>
      </trkpt>
      <trkpt lat="42.79165" lon="0.11935">
        <ele>3168</ele>
        <time>2014-06-08T07:23:53Z</time>
      </trkpt>
      <trkpt lat="42.79165" lon="0.11935">
        <ele>3167</ele>
        <time>2014-06-08T07:24:00Z</time>
      </trkpt>
      <trkpt lat="42.79165" lon="0.11935">
        <ele>3165</ele>
        <time>2014-06-08T07:24:09Z</time>
      </trkpt>
      <trkpt lat="42.79165" lon="0.11934">
        <ele>3169</ele>
        <time>2014-06-08T07:24:23Z</time>
      </trkpt>
      <trkpt lat="42.79165" lon="0.11934">
        <ele>3166</ele>
        <time>2014-06-08T07:24:30Z</time>
      </trkpt>
      <trkpt lat="42.79166" lon="0.11934">
        <ele>3168</ele>
        <time>2014-06-08T07:24:33Z</time>
      </trkpt>
      <trkpt lat="42.79166" lon="0.11934">
        <ele>3170</ele>
        <time>2014-06-08T07:24:49Z</time>
      </trkpt>
      <trkpt lat="42.79165" lon="0.11934">
        <ele>3172</ele>
        <time>2014-06-08T07:25:18Z</time>
      </trkpt>
      <trkpt lat="42.79164" lon="0.11934">
        <ele>3170</ele>
        <time>2014-06-08T07:25:21Z</time>
      </trkpt>
      <trkpt lat="42.79164" lon="0.11934">
        <ele>3168</ele>
        <time>2014-06-08T07:25:25Z</time>
      </trkpt>
      <trkpt lat="42.79164" lon="0.11934">
        <ele>3166</ele>
        <time>2014-06-08T07:25:27Z</time>
      </trkpt>
      <trkpt lat="42.79164" lon="0.11934">
        <ele>3171</ele>
        <time>2014-06-08T07:25:32Z</time>
      </trkpt>
      <trkpt lat="42.79164" lon="0.11934">
        <ele>3175</ele>
        <time>2014-06-08T07:25:33Z</time>
      </trkpt>
      <trkpt lat="42.79164" lon="0.11934">
        <ele>3173</ele>
        <time>2014-06-08T07:25:34Z</time>
      </trkpt>
      <trkpt lat="42.79163" lon="0.11934">
        <ele>3172</ele>
        <time>2014-06-08T07:25:36Z</time>
      </trkpt>
      <trkpt lat="42.79164" lon="0.11934">
        <ele>3173</ele>
        <time>2014-06-08T07:25:39Z</time>
      </trkpt>
      <trkpt lat="42.79164" lon="0.11934">
        <ele>3170</ele>
        <time>2014-06-08T07:25:41Z</time>
      </trkpt>
      <trkpt lat="42.79164" lon="0.11934">
        <ele>3170</ele>
        <time>2014-06-08T07:25:42Z</time>
      </trkpt>
      <trkpt lat="42.79164" lon="0.11934">
        <ele>3173</ele>
        <time>2014-06-08T07:25:50Z</time>
      </trkpt>
      <trkpt lat="42.79164" lon="0.11934">
        <ele>3171</ele>
        <time>2014-06-08T07:25:57Z</time>
      </trkpt>
      <trkpt lat="42.79164" lon="0.11934">
        <ele>3175</ele>
        <time>2014-06-08T07:25:59Z</time>
      </trkpt>
      <trkpt lat="42.79164" lon="0.11934">
        <ele>3175</ele>
        <time>2014-06-08T07:26:00Z</time>
      </trkpt>
      <trkpt lat="42.79163" lon="0.11934">
        <ele>3179</ele>
        <time>2014-06-08T07:26:05Z</time>
      </trkpt>
      <trkpt lat="42.79164" lon="0.11934">
        <ele>3184</ele>
        <time>2014-06-08T07:26:08Z</time>
      </trkpt>
      <trkpt lat="42.79164" lon="0.11934">
        <ele>3178</ele>
        <time>2014-06-08T07:26:09Z</time>
      </trkpt>
      <trkpt lat="42.79164" lon="0.11934">
        <ele>3170</ele>
        <time>2014-06-08T07:26:10Z</time>
      </trkpt>
      <trkpt lat="42.79164" lon="0.11934">
        <ele>3166</ele>
        <time>2014-06-08T07:26:11Z</time>
      </trkpt>
      <trkpt lat="42.79163" lon="0.11934">
        <ele>3165</ele>
        <time>2014-06-08T07:26:13Z</time>
      </trkpt>
      <trkpt lat="42.79163" lon="0.11934">
        <ele>3168</ele>
        <time>2014-06-08T07:26:16Z</time>
      </trkpt>
      <trkpt lat="42.79163" lon="0.11934">
        <ele>3178</ele>
        <time>2014-06-08T07:26:17Z</time>
      </trkpt>
      <trkpt lat="42.79163" lon="0.11934">
        <ele>3174</ele>
        <time>2014-06-08T07:26:19Z</time>
      </trkpt>
      <trkpt lat="42.79163" lon="0.11934">
        <ele>3169</ele>
        <time>2014-06-08T07:26:20Z</time>
      </trkpt>
      <trkpt lat="42.79163" lon="0.11934">
        <ele>3172</ele>
        <time>2014-06-08T07:26:21Z</time>
      </trkpt>
      <trkpt lat="42.79163" lon="0.11934">
        <ele>3180</ele>
        <time>2014-06-08T07:26:22Z</time>
      </trkpt>
      <trkpt lat="42.79163" lon="0.11933">
        <ele>3180</ele>
        <time>2014-06-08T07:26:23Z</time>
      </trkpt>
      <trkpt lat="42.79164" lon="0.11933">
        <ele>3178</ele>
        <time>2014-06-08T07:26:25Z</time>
      </trkpt>
      <trkpt lat="42.79164" lon="0.11933">
        <ele>3175</ele>
        <time>2014-06-08T07:26:26Z</time>
      </trkpt>
      <trkpt lat="42.79164" lon="0.11933">
        <ele>3171</ele>
        <time>2014-06-08T07:26:28Z</time>
      </trkpt>
      <trkpt lat="42.79165" lon="0.11933">
        <ele>3168</ele>
        <time>2014-06-08T07:26:30Z</time>
      </trkpt>
      <trkpt lat="42.79165" lon="0.11934">
        <ele>3171</ele>
        <time>2014-06-08T07:26:37Z</time>
      </trkpt>
      <trkpt lat="42.79165" lon="0.11933">
        <ele>3167</ele>
        <time>2014-06-08T07:26:39Z</time>
      </trkpt>
      <trkpt lat="42.79165" lon="0.11933">
        <ele>3174</ele>
        <time>2014-06-08T07:26:40Z</time>
      </trkpt>
      <trkpt lat="42.79165" lon="0.11933">
        <ele>3178</ele>
        <time>2014-06-08T07:26:41Z</time>
      </trkpt>
      <trkpt lat="42.79165" lon="0.11934">
        <ele>3174</ele>
        <time>2014-06-08T07:26:43Z</time>
      </trkpt>
      <trkpt lat="42.79165" lon="0.11934">
        <ele>3170</ele>
        <time>2014-06-08T07:26:45Z</time>
      </trkpt>
      <trkpt lat="42.79166" lon="0.11934">
        <ele>3168</ele>
        <time>2014-06-08T07:26:48Z</time>
      </trkpt>
      <trkpt lat="42.79166" lon="0.11934">
        <ele>3165</ele>
        <time>2014-06-08T07:26:56Z</time>
      </trkpt>
      <trkpt lat="42.79166" lon="0.11934">
        <ele>3163</ele>
        <time>2014-06-08T07:26:58Z</time>
      </trkpt>
      <trkpt lat="42.79166" lon="0.11933">
        <ele>3166</ele>
        <time>2014-06-08T07:27:02Z</time>
      </trkpt>
      <trkpt lat="42.79166" lon="0.11934">
        <ele>3168</ele>
        <time>2014-06-08T07:27:05Z</time>
      </trkpt>
      <trkpt lat="42.79166" lon="0.11934">
        <ele>3171</ele>
        <time>2014-06-08T07:27:07Z</time>
      </trkpt>
      <trkpt lat="42.79166" lon="0.11934">
        <ele>3171</ele>
        <time>2014-06-08T07:27:08Z</time>
      </trkpt>
      <trkpt lat="42.79166" lon="0.11935">
        <ele>3172</ele>
        <time>2014-06-08T07:27:16Z</time>
      </trkpt>
      <trkpt lat="42.79166" lon="0.11935">
        <ele>3168</ele>
        <time>2014-06-08T07:27:18Z</time>
      </trkpt>
      <trkpt lat="42.79166" lon="0.11935">
        <ele>3169</ele>
        <time>2014-06-08T07:27:19Z</time>
      </trkpt>
      <trkpt lat="42.79166" lon="0.11935">
        <ele>3172</ele>
        <time>2014-06-08T07:27:38Z</time>
      </trkpt>
      <trkpt lat="42.79166" lon="0.11936">
        <ele>3171</ele>
        <time>2014-06-08T07:27:39Z</time>
      </trkpt>
      <trkpt lat="42.79165" lon="0.11935">
        <ele>3175</ele>
        <time>2014-06-08T07:27:42Z</time>
      </trkpt>
      <trkpt lat="42.79165" lon="0.11935">
        <ele>3179</ele>
        <time>2014-06-08T07:27:44Z</time>
      </trkpt>
      <trkpt lat="42.79165" lon="0.11935">
        <ele>3175</ele>
        <time>2014-06-08T07:27:45Z</time>
      </trkpt>
      <trkpt lat="42.79166" lon="0.11935">
        <ele>3171</ele>
        <time>2014-06-08T07:27:48Z</time>
      </trkpt>
      <trkpt lat="42.79166" lon="0.11935">
        <ele>3168</ele>
        <time>2014-06-08T07:27:51Z</time>
      </trkpt>
      <trkpt lat="42.79165" lon="0.11935">
        <ele>3168</ele>
        <time>2014-06-08T07:27:58Z</time>
      </trkpt>
      <trkpt lat="42.79166" lon="0.11935">
        <ele>3172</ele>
        <time>2014-06-08T07:28:00Z</time>
      </trkpt>
      <trkpt lat="42.79166" lon="0.11935">
        <ele>3169</ele>
        <time>2014-06-08T07:28:04Z</time>
      </trkpt>
      <trkpt lat="42.79165" lon="0.11935">
        <ele>3168</ele>
        <time>2014-06-08T07:28:06Z</time>
      </trkpt>
      <trkpt lat="42.79164" lon="0.11934">
        <ele>3171</ele>
        <time>2014-06-08T07:28:38Z</time>
      </trkpt>
      <trkpt lat="42.79166" lon="0.11934">
        <ele>3168</ele>
        <time>2014-06-08T07:28:55Z</time>
      </trkpt>
      <trkpt lat="42.79166" lon="0.11932">
        <ele>3168</ele>
        <time>2014-06-08T07:29:21Z</time>
      </trkpt>
      <trkpt lat="42.79166" lon="0.11933">
        <ele>3167</ele>
        <time>2014-06-08T07:29:24Z</time>
      </trkpt>
      <trkpt lat="42.79167" lon="0.11933">
        <ele>3170</ele>
        <time>2014-06-08T07:29:46Z</time>
      </trkpt>
      <trkpt lat="42.79166" lon="0.11932">
        <ele>3168</ele>
        <time>2014-06-08T07:30:12Z</time>
      </trkpt>
      <trkpt lat="42.79166" lon="0.11932">
        <ele>3172</ele>
        <time>2014-06-08T07:30:21Z</time>
      </trkpt>
      <trkpt lat="42.79167" lon="0.11932">
        <ele>3171</ele>
        <time>2014-06-08T07:30:27Z</time>
      </trkpt>
      <trkpt lat="42.79166" lon="0.11933">
        <ele>3169</ele>
        <time>2014-06-08T07:30:34Z</time>
      </trkpt>
      <trkpt lat="42.79166" lon="0.11933">
        <ele>3168</ele>
        <time>2014-06-08T07:30:37Z</time>
      </trkpt>
      <trkpt lat="42.79166" lon="0.11934">
        <ele>3165</ele>
        <time>2014-06-08T07:30:46Z</time>
      </trkpt>
      <trkpt lat="42.79167" lon="0.11933">
        <ele>3168</ele>
        <time>2014-06-08T07:30:49Z</time>
      </trkpt>
      <trkpt lat="42.79167" lon="0.11933">
        <ele>3171</ele>
        <time>2014-06-08T07:30:52Z</time>
      </trkpt>
      <trkpt lat="42.79167" lon="0.11933">
        <ele>3167</ele>
        <time>2014-06-08T07:30:56Z</time>
      </trkpt>
      <trkpt lat="42.79167" lon="0.11933">
        <ele>3167</ele>
        <time>2014-06-08T07:30:57Z</time>
      </trkpt>
      <trkpt lat="42.79167" lon="0.11933">
        <ele>3167</ele>
        <time>2014-06-08T07:31:03Z</time>
      </trkpt>
      <trkpt lat="42.79167" lon="0.11933">
        <ele>3169</ele>
        <time>2014-06-08T07:31:28Z</time>
      </trkpt>
      <trkpt lat="42.79167" lon="0.11933">
        <ele>3172</ele>
        <time>2014-06-08T07:31:31Z</time>
      </trkpt>
      <trkpt lat="42.79167" lon="0.11933">
        <ele>3168</ele>
        <time>2014-06-08T07:31:37Z</time>
      </trkpt>
      <trkpt lat="42.79167" lon="0.11933">
        <ele>3165</ele>
        <time>2014-06-08T07:32:15Z</time>
      </trkpt>
      <trkpt lat="42.79167" lon="0.11933">
        <ele>3169</ele>
        <time>2014-06-08T07:32:20Z</time>
      </trkpt>
      <trkpt lat="42.79167" lon="0.11933">
        <ele>3175</ele>
        <time>2014-06-08T07:32:21Z</time>
      </trkpt>
      <trkpt lat="42.79167" lon="0.11933">
        <ele>3174</ele>
        <time>2014-06-08T07:32:22Z</time>
      </trkpt>
      <trkpt lat="42.79167" lon="0.11933">
        <ele>3170</ele>
        <time>2014-06-08T07:32:29Z</time>
      </trkpt>
      <trkpt lat="42.79167" lon="0.11933">
        <ele>3168</ele>
        <time>2014-06-08T07:32:31Z</time>
      </trkpt>
      <trkpt lat="42.79168" lon="0.11933">
        <ele>3167</ele>
        <time>2014-06-08T07:32:36Z</time>
      </trkpt>
      <trkpt lat="42.79168" lon="0.11933">
        <ele>3164</ele>
        <time>2014-06-08T07:32:43Z</time>
      </trkpt>
      <trkpt lat="42.79168" lon="0.11934">
        <ele>3170</ele>
        <time>2014-06-08T07:32:46Z</time>
      </trkpt>
      <trkpt lat="42.79168" lon="0.11934">
        <ele>3170</ele>
        <time>2014-06-08T07:32:47Z</time>
      </trkpt>
      <trkpt lat="42.79168" lon="0.11933">
        <ele>3167</ele>
        <time>2014-06-08T07:32:50Z</time>
      </trkpt>
      <trkpt lat="42.79168" lon="0.11933">
        <ele>3171</ele>
        <time>2014-06-08T07:32:51Z</time>
      </trkpt>
      <trkpt lat="42.79168" lon="0.11933">
        <ele>3172</ele>
        <time>2014-06-08T07:32:53Z</time>
      </trkpt>
      <trkpt lat="42.79168" lon="0.11933">
        <ele>3167</ele>
        <time>2014-06-08T07:32:55Z</time>
      </trkpt>
      <trkpt lat="42.79168" lon="0.11934">
        <ele>3174</ele>
        <time>2014-06-08T07:32:58Z</time>
      </trkpt>
      <trkpt lat="42.79168" lon="0.11934">
        <ele>3179</ele>
        <time>2014-06-08T07:32:59Z</time>
      </trkpt>
      <trkpt lat="42.79168" lon="0.11933">
        <ele>3179</ele>
        <time>2014-06-08T07:33:00Z</time>
      </trkpt>
      <trkpt lat="42.79168" lon="0.11933">
        <ele>3172</ele>
        <time>2014-06-08T07:33:04Z</time>
      </trkpt>
      <trkpt lat="42.79168" lon="0.11933">
        <ele>3172</ele>
        <time>2014-06-08T07:33:05Z</time>
      </trkpt>
      <trkpt lat="42.79167" lon="0.11934">
        <ele>3167</ele>
        <time>2014-06-08T07:33:07Z</time>
      </trkpt>
      <trkpt lat="42.79167" lon="0.11934">
        <ele>3173</ele>
        <time>2014-06-08T07:33:09Z</time>
      </trkpt>
      <trkpt lat="42.79167" lon="0.11933">
        <ele>3173</ele>
        <time>2014-06-08T07:33:10Z</time>
      </trkpt>
      <trkpt lat="42.79167" lon="0.11933">
        <ele>3169</ele>
        <time>2014-06-08T07:33:13Z</time>
      </trkpt>
      <trkpt lat="42.79167" lon="0.11933">
        <ele>3169</ele>
        <time>2014-06-08T07:33:14Z</time>
      </trkpt>
      <trkpt lat="42.79166" lon="0.11933">
        <ele>3165</ele>
        <time>2014-06-08T07:33:19Z</time>
      </trkpt>
      <trkpt lat="42.79166" lon="0.11933">
        <ele>3165</ele>
        <time>2014-06-08T07:33:20Z</time>
      </trkpt>
      <trkpt lat="42.79167" lon="0.11933">
        <ele>3171</ele>
        <time>2014-06-08T07:33:23Z</time>
      </trkpt>
      <trkpt lat="42.79167" lon="0.11933">
        <ele>3171</ele>
        <time>2014-06-08T07:33:24Z</time>
      </trkpt>
      <trkpt lat="42.79167" lon="0.11933">
        <ele>3174</ele>
        <time>2014-06-08T07:33:27Z</time>
      </trkpt>
      <trkpt lat="42.79167" lon="0.11933">
        <ele>3179</ele>
        <time>2014-06-08T07:33:28Z</time>
      </trkpt>
      <trkpt lat="42.79167" lon="0.11933">
        <ele>3177</ele>
        <time>2014-06-08T07:33:29Z</time>
      </trkpt>
      <trkpt lat="42.79167" lon="0.11933">
        <ele>3174</ele>
        <time>2014-06-08T07:33:32Z</time>
      </trkpt>
      <trkpt lat="42.79167" lon="0.11933">
        <ele>3170</ele>
        <time>2014-06-08T07:33:35Z</time>
      </trkpt>
      <trkpt lat="42.79167" lon="0.11933">
        <ele>3170</ele>
        <time>2014-06-08T07:33:36Z</time>
      </trkpt>
      <trkpt lat="42.79168" lon="0.11933">
        <ele>3167</ele>
        <time>2014-06-08T07:33:39Z</time>
      </trkpt>
      <trkpt lat="42.79168" lon="0.11933">
        <ele>3167</ele>
        <time>2014-06-08T07:33:40Z</time>
      </trkpt>
      <trkpt lat="42.79168" lon="0.11934">
        <ele>3163</ele>
        <time>2014-06-08T07:33:44Z</time>
      </trkpt>
      <trkpt lat="42.79168" lon="0.11935">
        <ele>3167</ele>
        <time>2014-06-08T07:34:00Z</time>
      </trkpt>
      <trkpt lat="42.79168" lon="0.11935">
        <ele>3175</ele>
        <time>2014-06-08T07:34:08Z</time>
      </trkpt>
      <trkpt lat="42.79168" lon="0.11935">
        <ele>3168</ele>
        <time>2014-06-08T07:34:09Z</time>
      </trkpt>
      <trkpt lat="42.79168" lon="0.11935">
        <ele>3164</ele>
        <time>2014-06-08T07:34:10Z</time>
      </trkpt>
      <trkpt lat="42.79167" lon="0.11934">
        <ele>3171</ele>
        <time>2014-06-08T07:34:14Z</time>
      </trkpt>
      <trkpt lat="42.79167" lon="0.11934">
        <ele>3171</ele>
        <time>2014-06-08T07:34:15Z</time>
      </trkpt>
      <trkpt lat="42.79167" lon="0.11934">
        <ele>3175</ele>
        <time>2014-06-08T07:34:17Z</time>
      </trkpt>
      <trkpt lat="42.79167" lon="0.11934">
        <ele>3172</ele>
        <time>2014-06-08T07:34:22Z</time>
      </trkpt>
      <trkpt lat="42.79167" lon="0.11934">
        <ele>3172</ele>
        <time>2014-06-08T07:34:23Z</time>
      </trkpt>
      <trkpt lat="42.79167" lon="0.11933">
        <ele>3169</ele>
        <time>2014-06-08T07:34:26Z</time>
      </trkpt>
      <trkpt lat="42.79168" lon="0.11933">
        <ele>3165</ele>
        <time>2014-06-08T07:34:28Z</time>
      </trkpt>
      <trkpt lat="42.79168" lon="0.11933">
        <ele>3163</ele>
        <time>2014-06-08T07:34:31Z</time>
      </trkpt>
      <trkpt lat="42.79168" lon="0.11933">
        <ele>3167</ele>
        <time>2014-06-08T07:34:33Z</time>
      </trkpt>
      <trkpt lat="42.79168" lon="0.11932">
        <ele>3166</ele>
        <time>2014-06-08T07:34:34Z</time>
      </trkpt>
      <trkpt lat="42.79168" lon="0.11932">
        <ele>3163</ele>
        <time>2014-06-08T07:34:36Z</time>
      </trkpt>
      <trkpt lat="42.79168" lon="0.11932">
        <ele>3163</ele>
        <time>2014-06-08T07:34:37Z</time>
      </trkpt>
      <trkpt lat="42.79168" lon="0.11932">
        <ele>3167</ele>
        <time>2014-06-08T07:34:39Z</time>
      </trkpt>
      <trkpt lat="42.79168" lon="0.11932">
        <ele>3172</ele>
        <time>2014-06-08T07:34:41Z</time>
      </trkpt>
      <trkpt lat="42.79167" lon="0.11932">
        <ele>3179</ele>
        <time>2014-06-08T07:34:42Z</time>
      </trkpt>
      <trkpt lat="42.79167" lon="0.11932">
        <ele>3174</ele>
        <time>2014-06-08T07:34:43Z</time>
      </trkpt>
      <trkpt lat="42.79167" lon="0.11931">
        <ele>3171</ele>
        <time>2014-06-08T07:34:44Z</time>
      </trkpt>
      <trkpt lat="42.79167" lon="0.11932">
        <ele>3167</ele>
        <time>2014-06-08T07:34:47Z</time>
      </trkpt>
      <trkpt lat="42.79167" lon="0.11933">
        <ele>3167</ele>
        <time>2014-06-08T07:34:51Z</time>
      </trkpt>
      <trkpt lat="42.79167" lon="0.11934">
        <ele>3169</ele>
        <time>2014-06-08T07:35:09Z</time>
      </trkpt>
      <trkpt lat="42.79168" lon="0.11932">
        <ele>3168</ele>
        <time>2014-06-08T07:35:28Z</time>
      </trkpt>
      <trkpt lat="42.79169" lon="0.11932">
        <ele>3169</ele>
        <time>2014-06-08T07:35:42Z</time>
      </trkpt>
      <trkpt lat="42.79163" lon="0.11921">
        <ele>3167</ele>
        <time>2014-06-08T07:35:50Z</time>
      </trkpt>
      <trkpt lat="42.7917" lon="0.1192">
        <ele>3162</ele>
        <time>2014-06-08T07:35:56Z</time>
      </trkpt>
      <trkpt lat="42.79173" lon="0.11919">
        <ele>3161</ele>
        <time>2014-06-08T07:35:58Z</time>
      </trkpt>
      <trkpt lat="42.79173" lon="0.11912">
        <ele>3157</ele>
        <time>2014-06-08T07:36:01Z</time>
      </trkpt>
      <trkpt lat="42.79168" lon="0.11905">
        <ele>3156</ele>
        <time>2014-06-08T07:36:04Z</time>
      </trkpt>
      <trkpt lat="42.7916" lon="0.1189">
        <ele>3154</ele>
        <time>2014-06-08T07:36:13Z</time>
      </trkpt>
      <trkpt lat="42.7916" lon="0.1189">
        <ele>3154</ele>
        <time>2014-06-08T07:36:14Z</time>
      </trkpt>
      <trkpt lat="42.79166" lon="0.11886">
        <ele>3151</ele>
        <time>2014-06-08T07:36:19Z</time>
      </trkpt>
      <trkpt lat="42.79169" lon="0.1188">
        <ele>3147</ele>
        <time>2014-06-08T07:36:21Z</time>
      </trkpt>
      <trkpt lat="42.79168" lon="0.11877">
        <ele>3147</ele>
        <time>2014-06-08T07:36:22Z</time>
      </trkpt>
      <trkpt lat="42.79166" lon="0.1187">
        <ele>3146</ele>
        <time>2014-06-08T07:36:25Z</time>
      </trkpt>
      <trkpt lat="42.79173" lon="0.11858">
        <ele>3143</ele>
        <time>2014-06-08T07:36:31Z</time>
      </trkpt>
      <trkpt lat="42.79173" lon="0.11856">
        <ele>3140</ele>
        <time>2014-06-08T07:36:32Z</time>
      </trkpt>
      <trkpt lat="42.79174" lon="0.11851">
        <ele>3139</ele>
        <time>2014-06-08T07:36:34Z</time>
      </trkpt>
      <trkpt lat="42.79175" lon="0.1185">
        <ele>3136</ele>
        <time>2014-06-08T07:36:35Z</time>
      </trkpt>
      <trkpt lat="42.79181" lon="0.11845">
        <ele>3133</ele>
        <time>2014-06-08T07:36:38Z</time>
      </trkpt>
      <trkpt lat="42.79181" lon="0.11835">
        <ele>3127</ele>
        <time>2014-06-08T07:36:42Z</time>
      </trkpt>
      <trkpt lat="42.79183" lon="0.11831">
        <ele>3122</ele>
        <time>2014-06-08T07:36:44Z</time>
      </trkpt>
      <trkpt lat="42.79185" lon="0.11831">
        <ele>3121</ele>
        <time>2014-06-08T07:36:45Z</time>
      </trkpt>
      <trkpt lat="42.79189" lon="0.11832">
        <ele>3120</ele>
        <time>2014-06-08T07:36:47Z</time>
      </trkpt>
      <trkpt lat="42.79191" lon="0.11828">
        <ele>3116</ele>
        <time>2014-06-08T07:36:49Z</time>
      </trkpt>
      <trkpt lat="42.7919" lon="0.11824">
        <ele>3115</ele>
        <time>2014-06-08T07:36:51Z</time>
      </trkpt>
      <trkpt lat="42.79194" lon="0.11821">
        <ele>3114</ele>
        <time>2014-06-08T07:36:55Z</time>
      </trkpt>
      <trkpt lat="42.79194" lon="0.11822">
        <ele>3113</ele>
        <time>2014-06-08T07:37:01Z</time>
      </trkpt>
      <trkpt lat="42.79194" lon="0.11822">
        <ele>3112</ele>
        <time>2014-06-08T07:37:02Z</time>
      </trkpt>
      <trkpt lat="42.79201" lon="0.11817">
        <ele>3106</ele>
        <time>2014-06-08T07:37:07Z</time>
      </trkpt>
      <trkpt lat="42.79205" lon="0.11814">
        <ele>3101</ele>
        <time>2014-06-08T07:37:09Z</time>
      </trkpt>
      <trkpt lat="42.79206" lon="0.11808">
        <ele>3097</ele>
        <time>2014-06-08T07:37:11Z</time>
      </trkpt>
      <trkpt lat="42.79209" lon="0.11806">
        <ele>3094</ele>
        <time>2014-06-08T07:37:13Z</time>
      </trkpt>
      <trkpt lat="42.79206" lon="0.11807">
        <ele>3091</ele>
        <time>2014-06-08T07:37:26Z</time>
      </trkpt>
      <trkpt lat="42.79206" lon="0.11807">
        <ele>3091</ele>
        <time>2014-06-08T07:37:30Z</time>
      </trkpt>
      <trkpt lat="42.7921" lon="0.11798">
        <ele>3089</ele>
        <time>2014-06-08T07:37:35Z</time>
      </trkpt>
      <trkpt lat="42.79207" lon="0.1179">
        <ele>3087</ele>
        <time>2014-06-08T07:37:37Z</time>
      </trkpt>
      <trkpt lat="42.79213" lon="0.11782">
        <ele>3081</ele>
        <time>2014-06-08T07:37:41Z</time>
      </trkpt>
      <trkpt lat="42.79216" lon="0.11778">
        <ele>3077</ele>
        <time>2014-06-08T07:37:42Z</time>
      </trkpt>
      <trkpt lat="42.79219" lon="0.11771">
        <ele>3072</ele>
        <time>2014-06-08T07:37:44Z</time>
      </trkpt>
      <trkpt lat="42.79224" lon="0.11768">
        <ele>3069</ele>
        <time>2014-06-08T07:37:46Z</time>
      </trkpt>
      <trkpt lat="42.79225" lon="0.11759">
        <ele>3063</ele>
        <time>2014-06-08T07:37:48Z</time>
      </trkpt>
      <trkpt lat="42.79234" lon="0.11759">
        <ele>3059</ele>
        <time>2014-06-08T07:37:50Z</time>
      </trkpt>
      <trkpt lat="42.79238" lon="0.1176">
        <ele>3057</ele>
        <time>2014-06-08T07:37:51Z</time>
      </trkpt>
      <trkpt lat="42.79248" lon="0.11764">
        <ele>3055</ele>
        <time>2014-06-08T07:37:54Z</time>
      </trkpt>
      <trkpt lat="42.79259" lon="0.11767">
        <ele>3052</ele>
        <time>2014-06-08T07:37:57Z</time>
      </trkpt>
      <trkpt lat="42.79261" lon="0.1177">
        <ele>3054</ele>
        <time>2014-06-08T07:38:05Z</time>
      </trkpt>
      <trkpt lat="42.79262" lon="0.11771">
        <ele>3055</ele>
        <time>2014-06-08T07:38:08Z</time>
      </trkpt>
      <trkpt lat="42.7927" lon="0.11767">
        <ele>3054</ele>
        <time>2014-06-08T07:38:12Z</time>
      </trkpt>
      <trkpt lat="42.79268" lon="0.11758">
        <ele>3049</ele>
        <time>2014-06-08T07:38:14Z</time>
      </trkpt>
      <trkpt lat="42.79265" lon="0.1175">
        <ele>3048</ele>
        <time>2014-06-08T07:38:16Z</time>
      </trkpt>
      <trkpt lat="42.79265" lon="0.11746">
        <ele>3047</ele>
        <time>2014-06-08T07:38:17Z</time>
      </trkpt>
      <trkpt lat="42.79276" lon="0.11729">
        <ele>3037</ele>
        <time>2014-06-08T07:38:21Z</time>
      </trkpt>
      <trkpt lat="42.79282" lon="0.1172">
        <ele>3033</ele>
        <time>2014-06-08T07:38:23Z</time>
      </trkpt>
      <trkpt lat="42.79286" lon="0.11715">
        <ele>3029</ele>
        <time>2014-06-08T07:38:24Z</time>
      </trkpt>
      <trkpt lat="42.79293" lon="0.11706">
        <ele>3023</ele>
        <time>2014-06-08T07:38:26Z</time>
      </trkpt>
      <trkpt lat="42.79297" lon="0.117">
        <ele>3021</ele>
        <time>2014-06-08T07:38:27Z</time>
      </trkpt>
      <trkpt lat="42.79304" lon="0.11692">
        <ele>3016</ele>
        <time>2014-06-08T07:38:29Z</time>
      </trkpt>
      <trkpt lat="42.79312" lon="0.11684">
        <ele>3011</ele>
        <time>2014-06-08T07:38:31Z</time>
      </trkpt>
      <trkpt lat="42.79321" lon="0.11676">
        <ele>3007</ele>
        <time>2014-06-08T07:38:33Z</time>
      </trkpt>
      <trkpt lat="42.79322" lon="0.11676">
        <ele>3008</ele>
        <time>2014-06-08T07:38:36Z</time>
      </trkpt>
      <trkpt lat="42.79318" lon="0.11679">
        <ele>3008</ele>
        <time>2014-06-08T07:38:47Z</time>
      </trkpt>
      <trkpt lat="42.79329" lon="0.11688">
        <ele>3009</ele>
        <time>2014-06-08T07:38:52Z</time>
      </trkpt>
      <trkpt lat="42.79335" lon="0.11694">
        <ele>3006</ele>
        <time>2014-06-08T07:38:54Z</time>
      </trkpt>
      <trkpt lat="42.7934" lon="0.11701">
        <ele>3004</ele>
        <time>2014-06-08T07:38:56Z</time>
      </trkpt>
      <trkpt lat="42.79353" lon="0.11703">
        <ele>3000</ele>
        <time>2014-06-08T07:38:59Z</time>
      </trkpt>
      <trkpt lat="42.79363" lon="0.11697">
        <ele>2997</ele>
        <time>2014-06-08T07:39:01Z</time>
      </trkpt>
      <trkpt lat="42.79375" lon="0.11691">
        <ele>2992</ele>
        <time>2014-06-08T07:39:03Z</time>
      </trkpt>
      <trkpt lat="42.79388" lon="0.11686">
        <ele>2987</ele>
        <time>2014-06-08T07:39:05Z</time>
      </trkpt>
      <trkpt lat="42.794" lon="0.11678">
        <ele>2983</ele>
        <time>2014-06-08T07:39:07Z</time>
      </trkpt>
      <trkpt lat="42.79414" lon="0.11673">
        <ele>2977</ele>
        <time>2014-06-08T07:39:09Z</time>
      </trkpt>
      <trkpt lat="42.79421" lon="0.11674">
        <ele>2974</ele>
        <time>2014-06-08T07:39:10Z</time>
      </trkpt>
      <trkpt lat="42.79428" lon="0.11673">
        <ele>2971</ele>
        <time>2014-06-08T07:39:11Z</time>
      </trkpt>
      <trkpt lat="42.79436" lon="0.11673">
        <ele>2968</ele>
        <time>2014-06-08T07:39:12Z</time>
      </trkpt>
      <trkpt lat="42.79451" lon="0.11676">
        <ele>2963</ele>
        <time>2014-06-08T07:39:14Z</time>
      </trkpt>
      <trkpt lat="42.79466" lon="0.11679">
        <ele>2959</ele>
        <time>2014-06-08T07:39:16Z</time>
      </trkpt>
      <trkpt lat="42.79473" lon="0.11677">
        <ele>2955</ele>
        <time>2014-06-08T07:39:17Z</time>
      </trkpt>
      <trkpt lat="42.79481" lon="0.11677">
        <ele>2952</ele>
        <time>2014-06-08T07:39:18Z</time>
      </trkpt>
      <trkpt lat="42.79486" lon="0.11686">
        <ele>2951</ele>
        <time>2014-06-08T07:39:23Z</time>
      </trkpt>
      <trkpt lat="42.79485" lon="0.11686">
        <ele>2953</ele>
        <time>2014-06-08T07:39:30Z</time>
      </trkpt>
      <trkpt lat="42.79485" lon="0.11686">
        <ele>2953</ele>
        <time>2014-06-08T07:39:39Z</time>
      </trkpt>
      <trkpt lat="42.795" lon="0.1169">
        <ele>2949</ele>
        <time>2014-06-08T07:39:44Z</time>
      </trkpt>
      <trkpt lat="42.79505" lon="0.11692">
        <ele>2948</ele>
        <time>2014-06-08T07:39:45Z</time>
      </trkpt>
      <trkpt lat="42.79514" lon="0.11698">
        <ele>2947</ele>
        <time>2014-06-08T07:39:47Z</time>
      </trkpt>
      <trkpt lat="42.79529" lon="0.11709">
        <ele>2946</ele>
        <time>2014-06-08T07:39:51Z</time>
      </trkpt>
      <trkpt lat="42.79541" lon="0.11715">
        <ele>2943</ele>
        <time>2014-06-08T07:39:54Z</time>
      </trkpt>
      <trkpt lat="42.79566" lon="0.11732">
        <ele>2940</ele>
        <time>2014-06-08T07:40:01Z</time>
      </trkpt>
      <trkpt lat="42.79583" lon="0.11724">
        <ele>2935</ele>
        <time>2014-06-08T07:40:05Z</time>
      </trkpt>
      <trkpt lat="42.79593" lon="0.11714">
        <ele>2930</ele>
        <time>2014-06-08T07:40:07Z</time>
      </trkpt>
      <trkpt lat="42.79602" lon="0.11704">
        <ele>2926</ele>
        <time>2014-06-08T07:40:09Z</time>
      </trkpt>
      <trkpt lat="42.79608" lon="0.11701">
        <ele>2922</ele>
        <time>2014-06-08T07:40:10Z</time>
      </trkpt>
      <trkpt lat="42.79619" lon="0.11693">
        <ele>2917</ele>
        <time>2014-06-08T07:40:12Z</time>
      </trkpt>
      <trkpt lat="42.79637" lon="0.11678">
        <ele>2910</ele>
        <time>2014-06-08T07:40:15Z</time>
      </trkpt>
      <trkpt lat="42.79644" lon="0.1168">
        <ele>2910</ele>
        <time>2014-06-08T07:40:17Z</time>
      </trkpt>
      <trkpt lat="42.79649" lon="0.11685">
        <ele>2907</ele>
        <time>2014-06-08T07:40:20Z</time>
      </trkpt>
      <trkpt lat="42.79656" lon="0.11671">
        <ele>2903</ele>
        <time>2014-06-08T07:40:24Z</time>
      </trkpt>
      <trkpt lat="42.79658" lon="0.11672">
        <ele>2902</ele>
        <time>2014-06-08T07:40:25Z</time>
      </trkpt>
      <trkpt lat="42.79666" lon="0.11699">
        <ele>2900</ele>
        <time>2014-06-08T07:40:34Z</time>
      </trkpt>
      <trkpt lat="42.79665" lon="0.11702">
        <ele>2901</ele>
        <time>2014-06-08T07:40:41Z</time>
      </trkpt>
      <trkpt lat="42.79677" lon="0.11692">
        <ele>2900</ele>
        <time>2014-06-08T07:40:45Z</time>
      </trkpt>
      <trkpt lat="42.79686" lon="0.11691">
        <ele>2892</ele>
        <time>2014-06-08T07:40:48Z</time>
      </trkpt>
      <trkpt lat="42.79688" lon="0.11695">
        <ele>2892</ele>
        <time>2014-06-08T07:40:49Z</time>
      </trkpt>
      <trkpt lat="42.79695" lon="0.11716">
        <ele>2888</ele>
        <time>2014-06-08T07:40:56Z</time>
      </trkpt>
      <trkpt lat="42.79697" lon="0.11719">
        <ele>2888</ele>
        <time>2014-06-08T07:40:57Z</time>
      </trkpt>
      <trkpt lat="42.79698" lon="0.11721">
        <ele>2886</ele>
        <time>2014-06-08T07:40:58Z</time>
      </trkpt>
      <trkpt lat="42.79696" lon="0.11724">
        <ele>2886</ele>
        <time>2014-06-08T07:41:16Z</time>
      </trkpt>
      <trkpt lat="42.797" lon="0.11726">
        <ele>2886</ele>
        <time>2014-06-08T07:41:18Z</time>
      </trkpt>
      <trkpt lat="42.79707" lon="0.11716">
        <ele>2882</ele>
        <time>2014-06-08T07:41:21Z</time>
      </trkpt>
      <trkpt lat="42.79713" lon="0.11702">
        <ele>2881</ele>
        <time>2014-06-08T07:41:25Z</time>
      </trkpt>
      <trkpt lat="42.7972" lon="0.11688">
        <ele>2878</ele>
        <time>2014-06-08T07:41:28Z</time>
      </trkpt>
      <trkpt lat="42.79727" lon="0.11677">
        <ele>2875</ele>
        <time>2014-06-08T07:41:30Z</time>
      </trkpt>
      <trkpt lat="42.79737" lon="0.11666">
        <ele>2873</ele>
        <time>2014-06-08T07:41:32Z</time>
      </trkpt>
      <trkpt lat="42.79747" lon="0.11655">
        <ele>2869</ele>
        <time>2014-06-08T07:41:34Z</time>
      </trkpt>
      <trkpt lat="42.79756" lon="0.11641">
        <ele>2865</ele>
        <time>2014-06-08T07:41:37Z</time>
      </trkpt>
      <trkpt lat="42.79758" lon="0.11635">
        <ele>2862</ele>
        <time>2014-06-08T07:41:40Z</time>
      </trkpt>
      <trkpt lat="42.79757" lon="0.11637">
        <ele>2861</ele>
        <time>2014-06-08T07:41:44Z</time>
      </trkpt>
      <trkpt lat="42.79758" lon="0.11637">
        <ele>2863</ele>
        <time>2014-06-08T07:41:51Z</time>
      </trkpt>
      <trkpt lat="42.79775" lon="0.11619">
        <ele>2860</ele>
        <time>2014-06-08T07:41:56Z</time>
      </trkpt>
      <trkpt lat="42.79784" lon="0.11606">
        <ele>2856</ele>
        <time>2014-06-08T07:41:58Z</time>
      </trkpt>
      <trkpt lat="42.79795" lon="0.11591">
        <ele>2851</ele>
        <time>2014-06-08T07:42:00Z</time>
      </trkpt>
      <trkpt lat="42.79804" lon="0.11574">
        <ele>2848</ele>
        <time>2014-06-08T07:42:02Z</time>
      </trkpt>
      <trkpt lat="42.79819" lon="0.11552">
        <ele>2843</ele>
        <time>2014-06-08T07:42:05Z</time>
      </trkpt>
      <trkpt lat="42.7983" lon="0.11537">
        <ele>2839</ele>
        <time>2014-06-08T07:42:07Z</time>
      </trkpt>
      <trkpt lat="42.79844" lon="0.11522">
        <ele>2836</ele>
        <time>2014-06-08T07:42:09Z</time>
      </trkpt>
      <trkpt lat="42.79857" lon="0.11509">
        <ele>2831</ele>
        <time>2014-06-08T07:42:11Z</time>
      </trkpt>
      <trkpt lat="42.79871" lon="0.115">
        <ele>2827</ele>
        <time>2014-06-08T07:42:13Z</time>
      </trkpt>
      <trkpt lat="42.79895" lon="0.1149">
        <ele>2822</ele>
        <time>2014-06-08T07:42:16Z</time>
      </trkpt>
      <trkpt lat="42.79912" lon="0.11483">
        <ele>2818</ele>
        <time>2014-06-08T07:42:18Z</time>
      </trkpt>
      <trkpt lat="42.79925" lon="0.1148">
        <ele>2817</ele>
        <time>2014-06-08T07:42:20Z</time>
      </trkpt>
      <trkpt lat="42.79937" lon="0.1148">
        <ele>2820</ele>
        <time>2014-06-08T07:42:25Z</time>
      </trkpt>
      <trkpt lat="42.79936" lon="0.11481">
        <ele>2819</ele>
        <time>2014-06-08T07:42:26Z</time>
      </trkpt>
      <trkpt lat="42.79935" lon="0.11481">
        <ele>2820</ele>
        <time>2014-06-08T07:42:43Z</time>
      </trkpt>
      <trkpt lat="42.79936" lon="0.11481">
        <ele>2820</ele>
        <time>2014-06-08T07:42:44Z</time>
      </trkpt>
      <trkpt lat="42.7994" lon="0.11499">
        <ele>2814</ele>
        <time>2014-06-08T07:42:49Z</time>
      </trkpt>
      <trkpt lat="42.79949" lon="0.11504">
        <ele>2811</ele>
        <time>2014-06-08T07:42:51Z</time>
      </trkpt>
      <trkpt lat="42.79964" lon="0.11508">
        <ele>2807</ele>
        <time>2014-06-08T07:42:54Z</time>
      </trkpt>
      <trkpt lat="42.79974" lon="0.11507">
        <ele>2806</ele>
        <time>2014-06-08T07:42:56Z</time>
      </trkpt>
      <trkpt lat="42.8" lon="0.11505">
        <ele>2802</ele>
        <time>2014-06-08T07:43:01Z</time>
      </trkpt>
      <trkpt lat="42.80017" lon="0.11503">
        <ele>2800</ele>
        <time>2014-06-08T07:43:05Z</time>
      </trkpt>
      <trkpt lat="42.80027" lon="0.1152">
        <ele>2798</ele>
        <time>2014-06-08T07:43:09Z</time>
      </trkpt>
      <trkpt lat="42.80027" lon="0.11532">
        <ele>2796</ele>
        <time>2014-06-08T07:43:11Z</time>
      </trkpt>
      <trkpt lat="42.80019" lon="0.1155">
        <ele>2795</ele>
        <time>2014-06-08T07:43:15Z</time>
      </trkpt>
      <trkpt lat="42.80024" lon="0.11567">
        <ele>2789</ele>
        <time>2014-06-08T07:43:18Z</time>
      </trkpt>
      <trkpt lat="42.80029" lon="0.11588">
        <ele>2785</ele>
        <time>2014-06-08T07:43:21Z</time>
      </trkpt>
      <trkpt lat="42.80033" lon="0.11602">
        <ele>2782</ele>
        <time>2014-06-08T07:43:23Z</time>
      </trkpt>
      <trkpt lat="42.80035" lon="0.1161">
        <ele>2778</ele>
        <time>2014-06-08T07:43:24Z</time>
      </trkpt>
      <trkpt lat="42.80037" lon="0.11616">
        <ele>2778</ele>
        <time>2014-06-08T07:43:25Z</time>
      </trkpt>
      <trkpt lat="42.80041" lon="0.11621">
        <ele>2775</ele>
        <time>2014-06-08T07:43:26Z</time>
      </trkpt>
      <trkpt lat="42.80048" lon="0.11632">
        <ele>2772</ele>
        <time>2014-06-08T07:43:28Z</time>
      </trkpt>
      <trkpt lat="42.8005" lon="0.11638">
        <ele>2773</ele>
        <time>2014-06-08T07:43:29Z</time>
      </trkpt>
      <trkpt lat="42.80054" lon="0.11657">
        <ele>2769</ele>
        <time>2014-06-08T07:43:32Z</time>
      </trkpt>
      <trkpt lat="42.80056" lon="0.11664">
        <ele>2769</ele>
        <time>2014-06-08T07:43:33Z</time>
      </trkpt>
      <trkpt lat="42.8006" lon="0.11669">
        <ele>2764</ele>
        <time>2014-06-08T07:43:34Z</time>
      </trkpt>
      <trkpt lat="42.80073" lon="0.11677">
        <ele>2765</ele>
        <time>2014-06-08T07:43:38Z</time>
      </trkpt>
      <trkpt lat="42.80069" lon="0.1169">
        <ele>2761</ele>
        <time>2014-06-08T07:43:42Z</time>
      </trkpt>
      <trkpt lat="42.80064" lon="0.11694">
        <ele>2762</ele>
        <time>2014-06-08T07:43:45Z</time>
      </trkpt>
      <trkpt lat="42.80061" lon="0.11701">
        <ele>2762</ele>
        <time>2014-06-08T07:43:48Z</time>
      </trkpt>
      <trkpt lat="42.80063" lon="0.11704">
        <ele>2759</ele>
        <time>2014-06-08T07:43:55Z</time>
      </trkpt>
      <trkpt lat="42.80053" lon="0.11716">
        <ele>2757</ele>
        <time>2014-06-08T07:44:01Z</time>
      </trkpt>
      <trkpt lat="42.80045" lon="0.1172">
        <ele>2753</ele>
        <time>2014-06-08T07:44:03Z</time>
      </trkpt>
      <trkpt lat="42.8003" lon="0.11734">
        <ele>2749</ele>
        <time>2014-06-08T07:44:06Z</time>
      </trkpt>
      <trkpt lat="42.80018" lon="0.11747">
        <ele>2746</ele>
        <time>2014-06-08T07:44:09Z</time>
      </trkpt>
      <trkpt lat="42.80007" lon="0.1176">
        <ele>2747</ele>
        <time>2014-06-08T07:44:18Z</time>
      </trkpt>
      <trkpt lat="42.80007" lon="0.11759">
        <ele>2744</ele>
        <time>2014-06-08T07:44:22Z</time>
      </trkpt>
      <trkpt lat="42.79992" lon="0.11775">
        <ele>2741</ele>
        <time>2014-06-08T07:44:40Z</time>
      </trkpt>
      <trkpt lat="42.79969" lon="0.11796">
        <ele>2738</ele>
        <time>2014-06-08T07:44:52Z</time>
      </trkpt>
      <trkpt lat="42.79958" lon="0.11804">
        <ele>2736</ele>
        <time>2014-06-08T07:44:58Z</time>
      </trkpt>
      <trkpt lat="42.79951" lon="0.11812">
        <ele>2734</ele>
        <time>2014-06-08T07:45:03Z</time>
      </trkpt>
      <trkpt lat="42.7995" lon="0.11818">
        <ele>2732</ele>
        <time>2014-06-08T07:45:05Z</time>
      </trkpt>
      <trkpt lat="42.7996" lon="0.1182">
        <ele>2728</ele>
        <time>2014-06-08T07:45:08Z</time>
      </trkpt>
      <trkpt lat="42.79961" lon="0.11822">
        <ele>2727</ele>
        <time>2014-06-08T07:45:20Z</time>
      </trkpt>
      <trkpt lat="42.79963" lon="0.11822">
        <ele>2725</ele>
        <time>2014-06-08T07:45:30Z</time>
      </trkpt>
      <trkpt lat="42.79961" lon="0.11831">
        <ele>2722</ele>
        <time>2014-06-08T07:45:33Z</time>
      </trkpt>
      <trkpt lat="42.79962" lon="0.1184">
        <ele>2717</ele>
        <time>2014-06-08T07:45:37Z</time>
      </trkpt>
      <trkpt lat="42.79966" lon="0.11843">
        <ele>2713</ele>
        <time>2014-06-08T07:45:39Z</time>
      </trkpt>
      <trkpt lat="42.79969" lon="0.11848">
        <ele>2712</ele>
        <time>2014-06-08T07:45:40Z</time>
      </trkpt>
      <trkpt lat="42.79973" lon="0.11857">
        <ele>2706</ele>
        <time>2014-06-08T07:45:42Z</time>
      </trkpt>
      <trkpt lat="42.79976" lon="0.11862">
        <ele>2704</ele>
        <time>2014-06-08T07:45:43Z</time>
      </trkpt>
      <trkpt lat="42.79977" lon="0.11866">
        <ele>2702</ele>
        <time>2014-06-08T07:45:44Z</time>
      </trkpt>
      <trkpt lat="42.79979" lon="0.11868">
        <ele>2701</ele>
        <time>2014-06-08T07:45:46Z</time>
      </trkpt>
      <trkpt lat="42.79982" lon="0.11873">
        <ele>2699</ele>
        <time>2014-06-08T07:45:48Z</time>
      </trkpt>
      <trkpt lat="42.79984" lon="0.11877">
        <ele>2698</ele>
        <time>2014-06-08T07:45:49Z</time>
      </trkpt>
      <trkpt lat="42.79985" lon="0.1188">
        <ele>2695</ele>
        <time>2014-06-08T07:45:50Z</time>
      </trkpt>
      <trkpt lat="42.7999" lon="0.11881">
        <ele>2691</ele>
        <time>2014-06-08T07:45:52Z</time>
      </trkpt>
      <trkpt lat="42.7999" lon="0.11879">
        <ele>2691</ele>
        <time>2014-06-08T07:45:53Z</time>
      </trkpt>
      <trkpt lat="42.79989" lon="0.11871">
        <ele>2691</ele>
        <time>2014-06-08T07:46:02Z</time>
      </trkpt>
      <trkpt lat="42.7999" lon="0.11884">
        <ele>2687</ele>
        <time>2014-06-08T07:46:07Z</time>
      </trkpt>
      <trkpt lat="42.79988" lon="0.11889">
        <ele>2686</ele>
        <time>2014-06-08T07:46:08Z</time>
      </trkpt>
      <trkpt lat="42.79986" lon="0.11934">
        <ele>2680</ele>
        <time>2014-06-08T07:46:14Z</time>
      </trkpt>
      <trkpt lat="42.79996" lon="0.11956">
        <ele>2678</ele>
        <time>2014-06-08T07:46:17Z</time>
      </trkpt>
      <trkpt lat="42.80008" lon="0.11973">
        <ele>2675</ele>
        <time>2014-06-08T07:46:20Z</time>
      </trkpt>
      <trkpt lat="42.80015" lon="0.1198">
        <ele>2674</ele>
        <time>2014-06-08T07:46:22Z</time>
      </trkpt>
      <trkpt lat="42.80044" lon="0.11988">
        <ele>2671</ele>
        <time>2014-06-08T07:46:33Z</time>
      </trkpt>
      <trkpt lat="42.80049" lon="0.11988">
        <ele>2670</ele>
        <time>2014-06-08T07:46:35Z</time>
      </trkpt>
      <trkpt lat="42.8005" lon="0.11988">
        <ele>2670</ele>
        <time>2014-06-08T07:46:36Z</time>
      </trkpt>
      <trkpt lat="42.80072" lon="0.11989">
        <ele>2668</ele>
        <time>2014-06-08T07:46:46Z</time>
      </trkpt>
      <trkpt lat="42.80075" lon="0.11989">
        <ele>2667</ele>
        <time>2014-06-08T07:46:50Z</time>
      </trkpt>
      <trkpt lat="42.80082" lon="0.11992">
        <ele>2669</ele>
        <time>2014-06-08T07:46:59Z</time>
      </trkpt>
      <trkpt lat="42.80089" lon="0.11997">
        <ele>2668</ele>
        <time>2014-06-08T07:47:11Z</time>
      </trkpt>
      <trkpt lat="42.80093" lon="0.12">
        <ele>2672</ele>
        <time>2014-06-08T07:47:19Z</time>
      </trkpt>
      <trkpt lat="42.80094" lon="0.11999">
        <ele>2672</ele>
        <time>2014-06-08T07:47:20Z</time>
      </trkpt>
      <trkpt lat="42.80094" lon="0.12">
        <ele>2671</ele>
        <time>2014-06-08T07:47:26Z</time>
      </trkpt>
      <trkpt lat="42.80095" lon="0.11998">
        <ele>2669</ele>
        <time>2014-06-08T07:47:44Z</time>
      </trkpt>
      <trkpt lat="42.80098" lon="0.12">
        <ele>2668</ele>
        <time>2014-06-08T07:48:04Z</time>
      </trkpt>
      <trkpt lat="42.80099" lon="0.12">
        <ele>2669</ele>
        <time>2014-06-08T07:48:20Z</time>
      </trkpt>
      <trkpt lat="42.80099" lon="0.12001">
        <ele>2671</ele>
        <time>2014-06-08T07:48:23Z</time>
      </trkpt>
      <trkpt lat="42.80099" lon="0.12001">
        <ele>2669</ele>
        <time>2014-06-08T07:48:36Z</time>
      </trkpt>
      <trkpt lat="42.80099" lon="0.11998">
        <ele>2669</ele>
        <time>2014-06-08T07:48:52Z</time>
      </trkpt>
      <trkpt lat="42.80101" lon="0.12001">
        <ele>2668</ele>
        <time>2014-06-08T07:49:10Z</time>
      </trkpt>
      <trkpt lat="42.80101" lon="0.12005">
        <ele>2667</ele>
        <time>2014-06-08T07:49:41Z</time>
      </trkpt>
      <trkpt lat="42.80098" lon="0.12008">
        <ele>2666</ele>
        <time>2014-06-08T07:50:12Z</time>
      </trkpt>
      <trkpt lat="42.80094" lon="0.12009">
        <ele>2665</ele>
        <time>2014-06-08T07:50:44Z</time>
      </trkpt>
      <trkpt lat="42.80097" lon="0.12005">
        <ele>2664</ele>
        <time>2014-06-08T07:51:11Z</time>
      </trkpt>
      <trkpt lat="42.80097" lon="0.12001">
        <ele>2664</ele>
        <time>2014-06-08T07:51:45Z</time>
      </trkpt>
      <trkpt lat="42.801" lon="0.12003">
        <ele>2663</ele>
        <time>2014-06-08T07:52:19Z</time>
      </trkpt>
      <trkpt lat="42.80095" lon="0.12003">
        <ele>2662</ele>
        <time>2014-06-08T07:52:44Z</time>
      </trkpt>
      <trkpt lat="42.80096" lon="0.12005">
        <ele>2665</ele>
        <time>2014-06-08T07:53:14Z</time>
      </trkpt>
      <trkpt lat="42.80097" lon="0.12001">
        <ele>2667</ele>
        <time>2014-06-08T07:53:50Z</time>
      </trkpt>
      <trkpt lat="42.80099" lon="0.12002">
        <ele>2665</ele>
        <time>2014-06-08T07:54:22Z</time>
      </trkpt>
      <trkpt lat="42.80104" lon="0.12003">
        <ele>2665</ele>
        <time>2014-06-08T07:54:39Z</time>
      </trkpt>
      <trkpt lat="42.80101" lon="0.12002">
        <ele>2662</ele>
        <time>2014-06-08T07:55:06Z</time>
      </trkpt>
      <trkpt lat="42.80102" lon="0.12002">
        <ele>2662</ele>
        <time>2014-06-08T07:55:07Z</time>
      </trkpt>
      <trkpt lat="42.80103" lon="0.12002">
        <ele>2663</ele>
        <time>2014-06-08T07:55:25Z</time>
      </trkpt>
      <trkpt lat="42.80102" lon="0.12003">
        <ele>2663</ele>
        <time>2014-06-08T07:56:03Z</time>
      </trkpt>
      <trkpt lat="42.80103" lon="0.12001">
        <ele>2663</ele>
        <time>2014-06-08T07:56:39Z</time>
      </trkpt>
      <trkpt lat="42.801" lon="0.12004">
        <ele>2663</ele>
        <time>2014-06-08T07:57:13Z</time>
      </trkpt>
      <trkpt lat="42.80101" lon="0.12006">
        <ele>2664</ele>
        <time>2014-06-08T07:57:43Z</time>
      </trkpt>
      <trkpt lat="42.801" lon="0.12007">
        <ele>2666</ele>
        <time>2014-06-08T07:57:50Z</time>
      </trkpt>
      <trkpt lat="42.80101" lon="0.12006">
        <ele>2664</ele>
        <time>2014-06-08T07:57:51Z</time>
      </trkpt>
      <trkpt lat="42.80102" lon="0.12003">
        <ele>2664</ele>
        <time>2014-06-08T07:58:05Z</time>
      </trkpt>
      <trkpt lat="42.80106" lon="0.12">
        <ele>2664</ele>
        <time>2014-06-08T07:58:30Z</time>
      </trkpt>
      <trkpt lat="42.80106" lon="0.12">
        <ele>2663</ele>
        <time>2014-06-08T07:58:52Z</time>
      </trkpt>
      <trkpt lat="42.80109" lon="0.11996">
        <ele>2662</ele>
        <time>2014-06-08T07:59:19Z</time>
      </trkpt>
      <trkpt lat="42.80108" lon="0.11995">
        <ele>2664</ele>
        <time>2014-06-08T07:59:40Z</time>
      </trkpt>
      <trkpt lat="42.80109" lon="0.11994">
        <ele>2662</ele>
        <time>2014-06-08T07:59:44Z</time>
      </trkpt>
      <trkpt lat="42.80113" lon="0.11996">
        <ele>2662</ele>
        <time>2014-06-08T07:59:49Z</time>
      </trkpt>
      <trkpt lat="42.80118" lon="0.11997">
        <ele>2663</ele>
        <time>2014-06-08T08:00:04Z</time>
      </trkpt>
      <trkpt lat="42.80108" lon="0.11997">
        <ele>2667</ele>
        <time>2014-06-08T08:00:13Z</time>
      </trkpt>
      <trkpt lat="42.80109" lon="0.11999">
        <ele>2665</ele>
        <time>2014-06-08T08:00:29Z</time>
      </trkpt>
      <trkpt lat="42.80098" lon="0.12001">
        <ele>2664</ele>
        <time>2014-06-08T08:00:50Z</time>
      </trkpt>
      <trkpt lat="42.80101" lon="0.12003">
        <ele>2664</ele>
        <time>2014-06-08T08:01:10Z</time>
      </trkpt>
      <trkpt lat="42.80102" lon="0.12002">
        <ele>2664</ele>
        <time>2014-06-08T08:01:32Z</time>
      </trkpt>
      <trkpt lat="42.80101" lon="0.12">
        <ele>2663</ele>
        <time>2014-06-08T08:01:44Z</time>
      </trkpt>
      <trkpt lat="42.80106" lon="0.12006">
        <ele>2663</ele>
        <time>2014-06-08T08:01:56Z</time>
      </trkpt>
      <trkpt lat="42.80115" lon="0.12012">
        <ele>2663</ele>
        <time>2014-06-08T08:02:07Z</time>
      </trkpt>
      <trkpt lat="42.80128" lon="0.12021">
        <ele>2664</ele>
        <time>2014-06-08T08:02:20Z</time>
      </trkpt>
      <trkpt lat="42.80132" lon="0.12027">
        <ele>2667</ele>
        <time>2014-06-08T08:02:31Z</time>
      </trkpt>
      <trkpt lat="42.80131" lon="0.12036">
        <ele>2669</ele>
        <time>2014-06-08T08:02:43Z</time>
      </trkpt>
      <trkpt lat="42.8013" lon="0.12048">
        <ele>2671</ele>
        <time>2014-06-08T08:02:55Z</time>
      </trkpt>
      <trkpt lat="42.80137" lon="0.12054">
        <ele>2672</ele>
        <time>2014-06-08T08:03:05Z</time>
      </trkpt>
      <trkpt lat="42.80144" lon="0.12065">
        <ele>2674</ele>
        <time>2014-06-08T08:03:22Z</time>
      </trkpt>
      <trkpt lat="42.80144" lon="0.12066">
        <ele>2673</ele>
        <time>2014-06-08T08:03:23Z</time>
      </trkpt>
      <trkpt lat="42.80148" lon="0.1207">
        <ele>2676</ele>
        <time>2014-06-08T08:03:32Z</time>
      </trkpt>
      <trkpt lat="42.80153" lon="0.12078">
        <ele>2677</ele>
        <time>2014-06-08T08:03:43Z</time>
      </trkpt>
      <trkpt lat="42.80151" lon="0.12083">
        <ele>2679</ele>
        <time>2014-06-08T08:03:49Z</time>
      </trkpt>
      <trkpt lat="42.80151" lon="0.12082">
        <ele>2680</ele>
        <time>2014-06-08T08:04:08Z</time>
      </trkpt>
      <trkpt lat="42.80145" lon="0.12086">
        <ele>2682</ele>
        <time>2014-06-08T08:04:15Z</time>
      </trkpt>
      <trkpt lat="42.80132" lon="0.12087">
        <ele>2683</ele>
        <time>2014-06-08T08:04:30Z</time>
      </trkpt>
      <trkpt lat="42.80124" lon="0.12092">
        <ele>2687</ele>
        <time>2014-06-08T08:04:42Z</time>
      </trkpt>
      <trkpt lat="42.80115" lon="0.12095">
        <ele>2687</ele>
        <time>2014-06-08T08:04:56Z</time>
      </trkpt>
      <trkpt lat="42.80105" lon="0.12098">
        <ele>2687</ele>
        <time>2014-06-08T08:05:12Z</time>
      </trkpt>
      <trkpt lat="42.80099" lon="0.12102">
        <ele>2689</ele>
        <time>2014-06-08T08:05:26Z</time>
      </trkpt>
      <trkpt lat="42.80092" lon="0.12107">
        <ele>2691</ele>
        <time>2014-06-08T08:05:40Z</time>
      </trkpt>
      <trkpt lat="42.80089" lon="0.12108">
        <ele>2695</ele>
        <time>2014-06-08T08:05:49Z</time>
      </trkpt>
      <trkpt lat="42.80088" lon="0.12108">
        <ele>2694</ele>
        <time>2014-06-08T08:05:50Z</time>
      </trkpt>
      <trkpt lat="42.80093" lon="0.12104">
        <ele>2693</ele>
        <time>2014-06-08T08:06:04Z</time>
      </trkpt>
      <trkpt lat="42.801" lon="0.12112">
        <ele>2693</ele>
        <time>2014-06-08T08:06:20Z</time>
      </trkpt>
      <trkpt lat="42.80103" lon="0.12117">
        <ele>2696</ele>
        <time>2014-06-08T08:06:27Z</time>
      </trkpt>
      <trkpt lat="42.80112" lon="0.12126">
        <ele>2698</ele>
        <time>2014-06-08T08:06:43Z</time>
      </trkpt>
      <trkpt lat="42.80115" lon="0.12133">
        <ele>2700</ele>
        <time>2014-06-08T08:06:54Z</time>
      </trkpt>
      <trkpt lat="42.80115" lon="0.12138">
        <ele>2700</ele>
        <time>2014-06-08T08:07:05Z</time>
      </trkpt>
      <trkpt lat="42.80115" lon="0.12139">
        <ele>2701</ele>
        <time>2014-06-08T08:07:12Z</time>
      </trkpt>
      <trkpt lat="42.80107" lon="0.12139">
        <ele>2703</ele>
        <time>2014-06-08T08:07:26Z</time>
      </trkpt>
      <trkpt lat="42.801" lon="0.12142">
        <ele>2705</ele>
        <time>2014-06-08T08:07:38Z</time>
      </trkpt>
      <trkpt lat="42.80095" lon="0.12145">
        <ele>2707</ele>
        <time>2014-06-08T08:07:47Z</time>
      </trkpt>
      <trkpt lat="42.80093" lon="0.12142">
        <ele>2708</ele>
        <time>2014-06-08T08:08:01Z</time>
      </trkpt>
      <trkpt lat="42.80096" lon="0.12143">
        <ele>2708</ele>
        <time>2014-06-08T08:08:10Z</time>
      </trkpt>
      <trkpt lat="42.80102" lon="0.12145">
        <ele>2709</ele>
        <time>2014-06-08T08:08:16Z</time>
      </trkpt>
      <trkpt lat="42.80114" lon="0.12149">
        <ele>2710</ele>
        <time>2014-06-08T08:08:29Z</time>
      </trkpt>
      <trkpt lat="42.80112" lon="0.1215">
        <ele>2712</ele>
        <time>2014-06-08T08:08:40Z</time>
      </trkpt>
      <trkpt lat="42.80112" lon="0.1215">
        <ele>2711</ele>
        <time>2014-06-08T08:08:44Z</time>
      </trkpt>
      <trkpt lat="42.80119" lon="0.12151">
        <ele>2712</ele>
        <time>2014-06-08T08:08:51Z</time>
      </trkpt>
      <trkpt lat="42.80121" lon="0.12152">
        <ele>2710</ele>
        <time>2014-06-08T08:08:54Z</time>
      </trkpt>
      <trkpt lat="42.80125" lon="0.12155">
        <ele>2711</ele>
        <time>2014-06-08T08:09:01Z</time>
      </trkpt>
      <trkpt lat="42.80129" lon="0.1216">
        <ele>2713</ele>
        <time>2014-06-08T08:09:16Z</time>
      </trkpt>
      <trkpt lat="42.80133" lon="0.12164">
        <ele>2714</ele>
        <time>2014-06-08T08:09:30Z</time>
      </trkpt>
      <trkpt lat="42.80136" lon="0.12166">
        <ele>2713</ele>
        <time>2014-06-08T08:09:44Z</time>
      </trkpt>
      <trkpt lat="42.80135" lon="0.12169">
        <ele>2711</ele>
        <time>2014-06-08T08:09:55Z</time>
      </trkpt>
      <trkpt lat="42.80129" lon="0.12167">
        <ele>2710</ele>
        <time>2014-06-08T08:10:17Z</time>
      </trkpt>
      <trkpt lat="42.80128" lon="0.12167">
        <ele>2710</ele>
        <time>2014-06-08T08:10:46Z</time>
      </trkpt>
      <trkpt lat="42.80129" lon="0.12167">
        <ele>2712</ele>
        <time>2014-06-08T08:10:51Z</time>
      </trkpt>
      <trkpt lat="42.80129" lon="0.12165">
        <ele>2709</ele>
        <time>2014-06-08T08:10:55Z</time>
      </trkpt>
      <trkpt lat="42.80126" lon="0.12167">
        <ele>2710</ele>
        <time>2014-06-08T08:11:12Z</time>
      </trkpt>
      <trkpt lat="42.80125" lon="0.12166">
        <ele>2711</ele>
        <time>2014-06-08T08:11:15Z</time>
      </trkpt>
      <trkpt lat="42.80126" lon="0.12163">
        <ele>2712</ele>
        <time>2014-06-08T08:11:28Z</time>
      </trkpt>
      <trkpt lat="42.80126" lon="0.12162">
        <ele>2712</ele>
        <time>2014-06-08T08:11:43Z</time>
      </trkpt>
      <trkpt lat="42.80129" lon="0.12163">
        <ele>2712</ele>
        <time>2014-06-08T08:11:57Z</time>
      </trkpt>
      <trkpt lat="42.80129" lon="0.12165">
        <ele>2712</ele>
        <time>2014-06-08T08:12:12Z</time>
      </trkpt>
      <trkpt lat="42.80133" lon="0.12169">
        <ele>2712</ele>
        <time>2014-06-08T08:12:25Z</time>
      </trkpt>
      <trkpt lat="42.80139" lon="0.12174">
        <ele>2715</ele>
        <time>2014-06-08T08:12:39Z</time>
      </trkpt>
      <trkpt lat="42.80145" lon="0.12178">
        <ele>2717</ele>
        <time>2014-06-08T08:12:52Z</time>
      </trkpt>
      <trkpt lat="42.80152" lon="0.12186">
        <ele>2719</ele>
        <time>2014-06-08T08:13:08Z</time>
      </trkpt>
      <trkpt lat="42.80158" lon="0.12191">
        <ele>2722</ele>
        <time>2014-06-08T08:13:23Z</time>
      </trkpt>
      <trkpt lat="42.80166" lon="0.12195">
        <ele>2723</ele>
        <time>2014-06-08T08:13:36Z</time>
      </trkpt>
      <trkpt lat="42.80169" lon="0.12194">
        <ele>2723</ele>
        <time>2014-06-08T08:13:51Z</time>
      </trkpt>
      <trkpt lat="42.80172" lon="0.12196">
        <ele>2726</ele>
        <time>2014-06-08T08:14:10Z</time>
      </trkpt>
      <trkpt lat="42.80173" lon="0.12197">
        <ele>2727</ele>
        <time>2014-06-08T08:14:12Z</time>
      </trkpt>
      <trkpt lat="42.8018" lon="0.12198">
        <ele>2727</ele>
        <time>2014-06-08T08:14:22Z</time>
      </trkpt>
      <trkpt lat="42.80192" lon="0.12202">
        <ele>2727</ele>
        <time>2014-06-08T08:14:37Z</time>
      </trkpt>
      <trkpt lat="42.80198" lon="0.12207">
        <ele>2728</ele>
        <time>2014-06-08T08:14:51Z</time>
      </trkpt>
      <trkpt lat="42.80197" lon="0.1221">
        <ele>2728</ele>
        <time>2014-06-08T08:15:05Z</time>
      </trkpt>
      <trkpt lat="42.80199" lon="0.12211">
        <ele>2729</ele>
        <time>2014-06-08T08:15:18Z</time>
      </trkpt>
      <trkpt lat="42.80197" lon="0.12213">
        <ele>2731</ele>
        <time>2014-06-08T08:15:25Z</time>
      </trkpt>
      <trkpt lat="42.80192" lon="0.12218">
        <ele>2733</ele>
        <time>2014-06-08T08:15:38Z</time>
      </trkpt>
      <trkpt lat="42.8019" lon="0.1222">
        <ele>2736</ele>
        <time>2014-06-08T08:15:44Z</time>
      </trkpt>
      <trkpt lat="42.80189" lon="0.12221">
        <ele>2737</ele>
        <time>2014-06-08T08:15:45Z</time>
      </trkpt>
      <trkpt lat="42.80185" lon="0.12223">
        <ele>2736</ele>
        <time>2014-06-08T08:15:58Z</time>
      </trkpt>
      <trkpt lat="42.80187" lon="0.12227">
        <ele>2739</ele>
        <time>2014-06-08T08:16:07Z</time>
      </trkpt>
      <trkpt lat="42.80194" lon="0.12234">
        <ele>2742</ele>
        <time>2014-06-08T08:16:19Z</time>
      </trkpt>
      <trkpt lat="42.80194" lon="0.12236">
        <ele>2743</ele>
        <time>2014-06-08T08:16:21Z</time>
      </trkpt>
      <trkpt lat="42.80197" lon="0.1224">
        <ele>2746</ele>
        <time>2014-06-08T08:16:28Z</time>
      </trkpt>
      <trkpt lat="42.80198" lon="0.12242">
        <ele>2748</ele>
        <time>2014-06-08T08:16:31Z</time>
      </trkpt>
      <trkpt lat="42.802" lon="0.12246">
        <ele>2751</ele>
        <time>2014-06-08T08:16:36Z</time>
      </trkpt>
      <trkpt lat="42.80201" lon="0.12247">
        <ele>2751</ele>
        <time>2014-06-08T08:16:37Z</time>
      </trkpt>
      <trkpt lat="42.80204" lon="0.12253">
        <ele>2755</ele>
        <time>2014-06-08T08:16:44Z</time>
      </trkpt>
      <trkpt lat="42.80204" lon="0.12259">
        <ele>2757</ele>
        <time>2014-06-08T08:16:48Z</time>
      </trkpt>
      <trkpt lat="42.80203" lon="0.12265">
        <ele>2754</ele>
        <time>2014-06-08T08:16:53Z</time>
      </trkpt>
      <trkpt lat="42.80202" lon="0.12265">
        <ele>2754</ele>
        <time>2014-06-08T08:16:54Z</time>
      </trkpt>
      <trkpt lat="42.80196" lon="0.12281">
        <ele>2755</ele>
        <time>2014-06-08T08:17:10Z</time>
      </trkpt>
      <trkpt lat="42.80194" lon="0.12286">
        <ele>2754</ele>
        <time>2014-06-08T08:17:14Z</time>
      </trkpt>
      <trkpt lat="42.80193" lon="0.12291">
        <ele>2751</ele>
        <time>2014-06-08T08:17:18Z</time>
      </trkpt>
      <trkpt lat="42.80192" lon="0.12292">
        <ele>2751</ele>
        <time>2014-06-08T08:17:19Z</time>
      </trkpt>
      <trkpt lat="42.80185" lon="0.1231">
        <ele>2749</ele>
        <time>2014-06-08T08:17:35Z</time>
      </trkpt>
      <trkpt lat="42.80178" lon="0.12325">
        <ele>2746</ele>
        <time>2014-06-08T08:17:47Z</time>
      </trkpt>
      <trkpt lat="42.80171" lon="0.12343">
        <ele>2747</ele>
        <time>2014-06-08T08:18:01Z</time>
      </trkpt>
      <trkpt lat="42.80169" lon="0.12352">
        <ele>2746</ele>
        <time>2014-06-08T08:18:08Z</time>
      </trkpt>
      <trkpt lat="42.80166" lon="0.12362">
        <ele>2748</ele>
        <time>2014-06-08T08:18:18Z</time>
      </trkpt>
      <trkpt lat="42.8016" lon="0.12376">
        <ele>2748</ele>
        <time>2014-06-08T08:18:32Z</time>
      </trkpt>
      <trkpt lat="42.80161" lon="0.12383">
        <ele>2748</ele>
        <time>2014-06-08T08:18:39Z</time>
      </trkpt>
      <trkpt lat="42.8016" lon="0.12393">
        <ele>2745</ele>
        <time>2014-06-08T08:18:44Z</time>
      </trkpt>
      <trkpt lat="42.80158" lon="0.12401">
        <ele>2747</ele>
        <time>2014-06-08T08:18:54Z</time>
      </trkpt>
      <trkpt lat="42.80159" lon="0.12404">
        <ele>2748</ele>
        <time>2014-06-08T08:18:57Z</time>
      </trkpt>
      <trkpt lat="42.80163" lon="0.12414">
        <ele>2749</ele>
        <time>2014-06-08T08:19:06Z</time>
      </trkpt>
      <trkpt lat="42.80168" lon="0.12428">
        <ele>2748</ele>
        <time>2014-06-08T08:19:18Z</time>
      </trkpt>
      <trkpt lat="42.80179" lon="0.12447">
        <ele>2749</ele>
        <time>2014-06-08T08:19:34Z</time>
      </trkpt>
      <trkpt lat="42.80179" lon="0.12448">
        <ele>2749</ele>
        <time>2014-06-08T08:19:35Z</time>
      </trkpt>
      <trkpt lat="42.80182" lon="0.12459">
        <ele>2750</ele>
        <time>2014-06-08T08:19:48Z</time>
      </trkpt>
      <trkpt lat="42.80181" lon="0.1246">
        <ele>2749</ele>
        <time>2014-06-08T08:20:04Z</time>
      </trkpt>
      <trkpt lat="42.80179" lon="0.12461">
        <ele>2748</ele>
        <time>2014-06-08T08:20:29Z</time>
      </trkpt>
      <trkpt lat="42.80178" lon="0.12461">
        <ele>2747</ele>
        <time>2014-06-08T08:20:59Z</time>
      </trkpt>
      <trkpt lat="42.80181" lon="0.12458">
        <ele>2748</ele>
        <time>2014-06-08T08:21:20Z</time>
      </trkpt>
      <trkpt lat="42.8018" lon="0.12459">
        <ele>2749</ele>
        <time>2014-06-08T08:21:44Z</time>
      </trkpt>
      <trkpt lat="42.8018" lon="0.12459">
        <ele>2750</ele>
        <time>2014-06-08T08:22:04Z</time>
      </trkpt>
      <trkpt lat="42.80181" lon="0.12461">
        <ele>2750</ele>
        <time>2014-06-08T08:22:19Z</time>
      </trkpt>
      <trkpt lat="42.8018" lon="0.1246">
        <ele>2750</ele>
        <time>2014-06-08T08:22:39Z</time>
      </trkpt>
      <trkpt lat="42.80181" lon="0.12458">
        <ele>2750</ele>
        <time>2014-06-08T08:22:56Z</time>
      </trkpt>
      <trkpt lat="42.8018" lon="0.1246">
        <ele>2750</ele>
        <time>2014-06-08T08:23:15Z</time>
      </trkpt>
      <trkpt lat="42.80177" lon="0.12461">
        <ele>2749</ele>
        <time>2014-06-08T08:23:36Z</time>
      </trkpt>
      <trkpt lat="42.8018" lon="0.12465">
        <ele>2749</ele>
        <time>2014-06-08T08:23:44Z</time>
      </trkpt>
      <trkpt lat="42.80186" lon="0.12477">
        <ele>2747</ele>
        <time>2014-06-08T08:23:58Z</time>
      </trkpt>
      <trkpt lat="42.80196" lon="0.12491">
        <ele>2743</ele>
        <time>2014-06-08T08:24:10Z</time>
      </trkpt>
      <trkpt lat="42.80199" lon="0.12495">
        <ele>2742</ele>
        <time>2014-06-08T08:24:15Z</time>
      </trkpt>
      <trkpt lat="42.80203" lon="0.12502">
        <ele>2740</ele>
        <time>2014-06-08T08:24:26Z</time>
      </trkpt>
      <trkpt lat="42.80207" lon="0.12508">
        <ele>2740</ele>
        <time>2014-06-08T08:24:37Z</time>
      </trkpt>
      <trkpt lat="42.80209" lon="0.12518">
        <ele>2740</ele>
        <time>2014-06-08T08:24:50Z</time>
      </trkpt>
      <trkpt lat="42.80212" lon="0.1253">
        <ele>2740</ele>
        <time>2014-06-08T08:25:03Z</time>
      </trkpt>
      <trkpt lat="42.80214" lon="0.12531">
        <ele>2740</ele>
        <time>2014-06-08T08:25:19Z</time>
      </trkpt>
      <trkpt lat="42.80216" lon="0.12538">
        <ele>2741</ele>
        <time>2014-06-08T08:25:41Z</time>
      </trkpt>
      <trkpt lat="42.8022" lon="0.12546">
        <ele>2741</ele>
        <time>2014-06-08T08:25:53Z</time>
      </trkpt>
      <trkpt lat="42.80222" lon="0.12551">
        <ele>2742</ele>
        <time>2014-06-08T08:26:00Z</time>
      </trkpt>
      <trkpt lat="42.80229" lon="0.1256">
        <ele>2745</ele>
        <time>2014-06-08T08:26:15Z</time>
      </trkpt>
      <trkpt lat="42.80237" lon="0.1257">
        <ele>2747</ele>
        <time>2014-06-08T08:26:29Z</time>
      </trkpt>
      <trkpt lat="42.80238" lon="0.12571">
        <ele>2747</ele>
        <time>2014-06-08T08:26:31Z</time>
      </trkpt>
      <trkpt lat="42.8024" lon="0.12572">
        <ele>2747</ele>
        <time>2014-06-08T08:26:33Z</time>
      </trkpt>
      <trkpt lat="42.80245" lon="0.12577">
        <ele>2749</ele>
        <time>2014-06-08T08:26:45Z</time>
      </trkpt>
      <trkpt lat="42.80242" lon="0.12576">
        <ele>2749</ele>
        <time>2014-06-08T08:27:11Z</time>
      </trkpt>
      <trkpt lat="42.80249" lon="0.1258">
        <ele>2749</ele>
        <time>2014-06-08T08:27:25Z</time>
      </trkpt>
      <trkpt lat="42.80259" lon="0.12589">
        <ele>2749</ele>
        <time>2014-06-08T08:27:38Z</time>
      </trkpt>
      <trkpt lat="42.80265" lon="0.12595">
        <ele>2749</ele>
        <time>2014-06-08T08:27:50Z</time>
      </trkpt>
      <trkpt lat="42.8027" lon="0.126">
        <ele>2749</ele>
        <time>2014-06-08T08:28:01Z</time>
      </trkpt>
      <trkpt lat="42.80275" lon="0.12606">
        <ele>2752</ele>
        <time>2014-06-08T08:28:14Z</time>
      </trkpt>
      <trkpt lat="42.80282" lon="0.12614">
        <ele>2755</ele>
        <time>2014-06-08T08:28:30Z</time>
      </trkpt>
      <trkpt lat="42.8029" lon="0.12619">
        <ele>2754</ele>
        <time>2014-06-08T08:28:43Z</time>
      </trkpt>
      <trkpt lat="42.80291" lon="0.1262">
        <ele>2755</ele>
        <time>2014-06-08T08:28:58Z</time>
      </trkpt>
      <trkpt lat="42.80293" lon="0.12621">
        <ele>2756</ele>
        <time>2014-06-08T08:29:10Z</time>
      </trkpt>
      <trkpt lat="42.80298" lon="0.12627">
        <ele>2759</ele>
        <time>2014-06-08T08:29:23Z</time>
      </trkpt>
      <trkpt lat="42.80301" lon="0.12635">
        <ele>2759</ele>
        <time>2014-06-08T08:29:38Z</time>
      </trkpt>
      <trkpt lat="42.80301" lon="0.12634">
        <ele>2757</ele>
        <time>2014-06-08T08:30:07Z</time>
      </trkpt>
      <trkpt lat="42.80301" lon="0.12633">
        <ele>2757</ele>
        <time>2014-06-08T08:30:24Z</time>
      </trkpt>
      <trkpt lat="42.80305" lon="0.12636">
        <ele>2757</ele>
        <time>2014-06-08T08:30:33Z</time>
      </trkpt>
      <trkpt lat="42.80313" lon="0.12646">
        <ele>2756</ele>
        <time>2014-06-08T08:30:46Z</time>
      </trkpt>
      <trkpt lat="42.80315" lon="0.12645">
        <ele>2757</ele>
        <time>2014-06-08T08:31:06Z</time>
      </trkpt>
      <trkpt lat="42.80316" lon="0.12647">
        <ele>2758</ele>
        <time>2014-06-08T08:31:09Z</time>
      </trkpt>
      <trkpt lat="42.80322" lon="0.12649">
        <ele>2759</ele>
        <time>2014-06-08T08:31:16Z</time>
      </trkpt>
      <trkpt lat="42.80333" lon="0.12647">
        <ele>2761</ele>
        <time>2014-06-08T08:31:29Z</time>
      </trkpt>
      <trkpt lat="42.80339" lon="0.12647">
        <ele>2762</ele>
        <time>2014-06-08T08:31:43Z</time>
      </trkpt>
      <trkpt lat="42.8034" lon="0.12651">
        <ele>2763</ele>
        <time>2014-06-08T08:32:06Z</time>
      </trkpt>
      <trkpt lat="42.80347" lon="0.12653">
        <ele>2765</ele>
        <time>2014-06-08T08:32:22Z</time>
      </trkpt>
      <trkpt lat="42.80354" lon="0.12658">
        <ele>2767</ele>
        <time>2014-06-08T08:32:38Z</time>
      </trkpt>
      <trkpt lat="42.8036" lon="0.12667">
        <ele>2769</ele>
        <time>2014-06-08T08:32:49Z</time>
      </trkpt>
      <trkpt lat="42.80364" lon="0.12679">
        <ele>2772</ele>
        <time>2014-06-08T08:33:04Z</time>
      </trkpt>
      <trkpt lat="42.80365" lon="0.12682">
        <ele>2774</ele>
        <time>2014-06-08T08:33:27Z</time>
      </trkpt>
      <trkpt lat="42.80371" lon="0.12695">
        <ele>2777</ele>
        <time>2014-06-08T08:33:41Z</time>
      </trkpt>
      <trkpt lat="42.80376" lon="0.12702">
        <ele>2776</ele>
        <time>2014-06-08T08:33:54Z</time>
      </trkpt>
      <trkpt lat="42.80377" lon="0.12704">
        <ele>2776</ele>
        <time>2014-06-08T08:33:57Z</time>
      </trkpt>
      <trkpt lat="42.80381" lon="0.12707">
        <ele>2777</ele>
        <time>2014-06-08T08:34:15Z</time>
      </trkpt>
      <trkpt lat="42.80382" lon="0.12712">
        <ele>2777</ele>
        <time>2014-06-08T08:34:23Z</time>
      </trkpt>
      <trkpt lat="42.80384" lon="0.12715">
        <ele>2776</ele>
        <time>2014-06-08T08:34:30Z</time>
      </trkpt>
      <trkpt lat="42.80397" lon="0.1272">
        <ele>2778</ele>
        <time>2014-06-08T08:34:46Z</time>
      </trkpt>
      <trkpt lat="42.80405" lon="0.12722">
        <ele>2778</ele>
        <time>2014-06-08T08:35:00Z</time>
      </trkpt>
      <trkpt lat="42.80409" lon="0.12722">
        <ele>2779</ele>
        <time>2014-06-08T08:35:05Z</time>
      </trkpt>
      <trkpt lat="42.80418" lon="0.12723">
        <ele>2781</ele>
        <time>2014-06-08T08:35:17Z</time>
      </trkpt>
      <trkpt lat="42.80423" lon="0.12722">
        <ele>2782</ele>
        <time>2014-06-08T08:35:29Z</time>
      </trkpt>
      <trkpt lat="42.80425" lon="0.12725">
        <ele>2782</ele>
        <time>2014-06-08T08:35:47Z</time>
      </trkpt>
      <trkpt lat="42.80428" lon="0.12722">
        <ele>2783</ele>
        <time>2014-06-08T08:35:57Z</time>
      </trkpt>
      <trkpt lat="42.80429" lon="0.12721">
        <ele>2783</ele>
        <time>2014-06-08T08:36:06Z</time>
      </trkpt>
      <trkpt lat="42.80439" lon="0.12721">
        <ele>2784</ele>
        <time>2014-06-08T08:36:16Z</time>
      </trkpt>
      <trkpt lat="42.80445" lon="0.12719">
        <ele>2786</ele>
        <time>2014-06-08T08:36:28Z</time>
      </trkpt>
      <trkpt lat="42.8045" lon="0.12716">
        <ele>2787</ele>
        <time>2014-06-08T08:36:40Z</time>
      </trkpt>
      <trkpt lat="42.80454" lon="0.12717">
        <ele>2789</ele>
        <time>2014-06-08T08:36:52Z</time>
      </trkpt>
      <trkpt lat="42.80449" lon="0.12718">
        <ele>2790</ele>
        <time>2014-06-08T08:37:04Z</time>
      </trkpt>
      <trkpt lat="42.80452" lon="0.12717">
        <ele>2790</ele>
        <time>2014-06-08T08:37:22Z</time>
      </trkpt>
      <trkpt lat="42.80456" lon="0.12717">
        <ele>2791</ele>
        <time>2014-06-08T08:37:27Z</time>
      </trkpt>
      <trkpt lat="42.80461" lon="0.12716">
        <ele>2791</ele>
        <time>2014-06-08T08:37:36Z</time>
      </trkpt>
      <trkpt lat="42.80462" lon="0.12716">
        <ele>2792</ele>
        <time>2014-06-08T08:37:37Z</time>
      </trkpt>
      <trkpt lat="42.80468" lon="0.12716">
        <ele>2793</ele>
        <time>2014-06-08T08:37:48Z</time>
      </trkpt>
      <trkpt lat="42.80474" lon="0.12713">
        <ele>2796</ele>
        <time>2014-06-08T08:38:00Z</time>
      </trkpt>
      <trkpt lat="42.80474" lon="0.12712">
        <ele>2796</ele>
        <time>2014-06-08T08:38:18Z</time>
      </trkpt>
      <trkpt lat="42.80478" lon="0.12713">
        <ele>2798</ele>
        <time>2014-06-08T08:38:33Z</time>
      </trkpt>
      <trkpt lat="42.80485" lon="0.12712">
        <ele>2799</ele>
        <time>2014-06-08T08:38:42Z</time>
      </trkpt>
      <trkpt lat="42.80492" lon="0.12709">
        <ele>2801</ele>
        <time>2014-06-08T08:38:56Z</time>
      </trkpt>
      <trkpt lat="42.80499" lon="0.12708">
        <ele>2803</ele>
        <time>2014-06-08T08:39:08Z</time>
      </trkpt>
      <trkpt lat="42.805" lon="0.12704">
        <ele>2804</ele>
        <time>2014-06-08T08:39:21Z</time>
      </trkpt>
      <trkpt lat="42.80499" lon="0.12705">
        <ele>2805</ele>
        <time>2014-06-08T08:39:39Z</time>
      </trkpt>
      <trkpt lat="42.80502" lon="0.12707">
        <ele>2804</ele>
        <time>2014-06-08T08:39:58Z</time>
      </trkpt>
      <trkpt lat="42.805" lon="0.12707">
        <ele>2806</ele>
        <time>2014-06-08T08:40:15Z</time>
      </trkpt>
      <trkpt lat="42.80504" lon="0.12707">
        <ele>2806</ele>
        <time>2014-06-08T08:40:37Z</time>
      </trkpt>
      <trkpt lat="42.80503" lon="0.12708">
        <ele>2805</ele>
        <time>2014-06-08T08:40:59Z</time>
      </trkpt>
      <trkpt lat="42.80502" lon="0.1271">
        <ele>2807</ele>
        <time>2014-06-08T08:41:33Z</time>
      </trkpt>
      <trkpt lat="42.80499" lon="0.12707">
        <ele>2808</ele>
        <time>2014-06-08T08:41:51Z</time>
      </trkpt>
      <trkpt lat="42.805" lon="0.12708">
        <ele>2809</ele>
        <time>2014-06-08T08:42:08Z</time>
      </trkpt>
      <trkpt lat="42.805" lon="0.12713">
        <ele>2811</ele>
        <time>2014-06-08T08:42:20Z</time>
      </trkpt>
      <trkpt lat="42.805" lon="0.12716">
        <ele>2813</ele>
        <time>2014-06-08T08:42:32Z</time>
      </trkpt>
      <trkpt lat="42.80506" lon="0.1272">
        <ele>2814</ele>
        <time>2014-06-08T08:42:46Z</time>
      </trkpt>
      <trkpt lat="42.80505" lon="0.12722">
        <ele>2817</ele>
        <time>2014-06-08T08:42:55Z</time>
      </trkpt>
      <trkpt lat="42.80507" lon="0.12725">
        <ele>2817</ele>
        <time>2014-06-08T08:43:09Z</time>
      </trkpt>
      <trkpt lat="42.80505" lon="0.1273">
        <ele>2818</ele>
        <time>2014-06-08T08:43:25Z</time>
      </trkpt>
      <trkpt lat="42.80504" lon="0.12733">
        <ele>2818</ele>
        <time>2014-06-08T08:43:40Z</time>
      </trkpt>
      <trkpt lat="42.80504" lon="0.12733">
        <ele>2819</ele>
        <time>2014-06-08T08:43:53Z</time>
      </trkpt>
      <trkpt lat="42.805" lon="0.12736">
        <ele>2820</ele>
        <time>2014-06-08T08:44:06Z</time>
      </trkpt>
      <trkpt lat="42.80502" lon="0.12736">
        <ele>2820</ele>
        <time>2014-06-08T08:44:26Z</time>
      </trkpt>
      <trkpt lat="42.80503" lon="0.12738">
        <ele>2821</ele>
        <time>2014-06-08T08:44:41Z</time>
      </trkpt>
      <trkpt lat="42.80502" lon="0.12741">
        <ele>2823</ele>
        <time>2014-06-08T08:44:53Z</time>
      </trkpt>
      <trkpt lat="42.80503" lon="0.12744">
        <ele>2824</ele>
        <time>2014-06-08T08:45:07Z</time>
      </trkpt>
      <trkpt lat="42.80502" lon="0.12743">
        <ele>2826</ele>
        <time>2014-06-08T08:45:19Z</time>
      </trkpt>
      <trkpt lat="42.80501" lon="0.12746">
        <ele>2827</ele>
        <time>2014-06-08T08:45:34Z</time>
      </trkpt>
      <trkpt lat="42.805" lon="0.12747">
        <ele>2828</ele>
        <time>2014-06-08T08:45:46Z</time>
      </trkpt>
      <trkpt lat="42.805" lon="0.12749">
        <ele>2830</ele>
        <time>2014-06-08T08:46:03Z</time>
      </trkpt>
      <trkpt lat="42.80501" lon="0.1275">
        <ele>2832</ele>
        <time>2014-06-08T08:46:08Z</time>
      </trkpt>
      <trkpt lat="42.80502" lon="0.12751">
        <ele>2834</ele>
        <time>2014-06-08T08:46:20Z</time>
      </trkpt>
      <trkpt lat="42.80498" lon="0.12756">
        <ele>2834</ele>
        <time>2014-06-08T08:46:36Z</time>
      </trkpt>
      <trkpt lat="42.80495" lon="0.12757">
        <ele>2836</ele>
        <time>2014-06-08T08:46:49Z</time>
      </trkpt>
      <trkpt lat="42.80493" lon="0.1276">
        <ele>2838</ele>
        <time>2014-06-08T08:47:05Z</time>
      </trkpt>
      <trkpt lat="42.80496" lon="0.12761">
        <ele>2839</ele>
        <time>2014-06-08T08:47:14Z</time>
      </trkpt>
      <trkpt lat="42.80493" lon="0.12765">
        <ele>2841</ele>
        <time>2014-06-08T08:47:27Z</time>
      </trkpt>
      <trkpt lat="42.80492" lon="0.12766">
        <ele>2843</ele>
        <time>2014-06-08T08:47:44Z</time>
      </trkpt>
      <trkpt lat="42.8049" lon="0.1277">
        <ele>2847</ele>
        <time>2014-06-08T08:47:54Z</time>
      </trkpt>
      <trkpt lat="42.80487" lon="0.12773">
        <ele>2849</ele>
        <time>2014-06-08T08:48:06Z</time>
      </trkpt>
      <trkpt lat="42.80485" lon="0.1278">
        <ele>2849</ele>
        <time>2014-06-08T08:48:19Z</time>
      </trkpt>
      <trkpt lat="42.80484" lon="0.12782">
        <ele>2847</ele>
        <time>2014-06-08T08:48:23Z</time>
      </trkpt>
      <trkpt lat="42.80477" lon="0.12787">
        <ele>2847</ele>
        <time>2014-06-08T08:48:36Z</time>
      </trkpt>
      <trkpt lat="42.80473" lon="0.12789">
        <ele>2846</ele>
        <time>2014-06-08T08:48:48Z</time>
      </trkpt>
      <trkpt lat="42.80472" lon="0.12789">
        <ele>2846</ele>
        <time>2014-06-08T08:49:02Z</time>
      </trkpt>
      <trkpt lat="42.80467" lon="0.12787">
        <ele>2848</ele>
        <time>2014-06-08T08:49:19Z</time>
      </trkpt>
      <trkpt lat="42.80469" lon="0.12789">
        <ele>2849</ele>
        <time>2014-06-08T08:49:35Z</time>
      </trkpt>
      <trkpt lat="42.80467" lon="0.12788">
        <ele>2849</ele>
        <time>2014-06-08T08:49:51Z</time>
      </trkpt>
      <trkpt lat="42.80468" lon="0.12786">
        <ele>2848</ele>
        <time>2014-06-08T08:50:22Z</time>
      </trkpt>
      <trkpt lat="42.80468" lon="0.12786">
        <ele>2849</ele>
        <time>2014-06-08T08:51:01Z</time>
      </trkpt>
      <trkpt lat="42.80467" lon="0.12787">
        <ele>2849</ele>
        <time>2014-06-08T08:51:05Z</time>
      </trkpt>
      <trkpt lat="42.80467" lon="0.12786">
        <ele>2851</ele>
        <time>2014-06-08T08:51:37Z</time>
      </trkpt>
      <trkpt lat="42.80465" lon="0.12785">
        <ele>2849</ele>
        <time>2014-06-08T08:52:11Z</time>
      </trkpt>
      <trkpt lat="42.80467" lon="0.12785">
        <ele>2847</ele>
        <time>2014-06-08T08:52:50Z</time>
      </trkpt>
      <trkpt lat="42.80469" lon="0.12787">
        <ele>2848</ele>
        <time>2014-06-08T08:53:26Z</time>
      </trkpt>
      <trkpt lat="42.80473" lon="0.12787">
        <ele>2844</ele>
        <time>2014-06-08T08:53:52Z</time>
      </trkpt>
      <trkpt lat="42.80468" lon="0.12786">
        <ele>2848</ele>
        <time>2014-06-08T08:54:11Z</time>
      </trkpt>
      <trkpt lat="42.80469" lon="0.12786">
        <ele>2849</ele>
        <time>2014-06-08T08:54:23Z</time>
      </trkpt>
      <trkpt lat="42.80468" lon="0.12786">
        <ele>2851</ele>
        <time>2014-06-08T08:54:37Z</time>
      </trkpt>
      <trkpt lat="42.80469" lon="0.12785">
        <ele>2852</ele>
        <time>2014-06-08T08:54:41Z</time>
      </trkpt>
      <trkpt lat="42.80469" lon="0.12785">
        <ele>2854</ele>
        <time>2014-06-08T08:54:44Z</time>
      </trkpt>
      <trkpt lat="42.8047" lon="0.12785">
        <ele>2857</ele>
        <time>2014-06-08T08:54:50Z</time>
      </trkpt>
      <trkpt lat="42.8047" lon="0.12785">
        <ele>2858</ele>
        <time>2014-06-08T08:54:51Z</time>
      </trkpt>
      <trkpt lat="42.8047" lon="0.12786">
        <ele>2854</ele>
        <time>2014-06-08T08:55:00Z</time>
      </trkpt>
      <trkpt lat="42.80466" lon="0.12784">
        <ele>2852</ele>
        <time>2014-06-08T08:55:04Z</time>
      </trkpt>
      <trkpt lat="42.8046" lon="0.12783">
        <ele>2849</ele>
        <time>2014-06-08T08:55:29Z</time>
      </trkpt>
      <trkpt lat="42.80466" lon="0.12783">
        <ele>2848</ele>
        <time>2014-06-08T08:55:56Z</time>
      </trkpt>
      <trkpt lat="42.80468" lon="0.12786">
        <ele>2848</ele>
        <time>2014-06-08T08:56:30Z</time>
      </trkpt>
      <trkpt lat="42.80467" lon="0.12784">
        <ele>2849</ele>
        <time>2014-06-08T08:57:07Z</time>
      </trkpt>
      <trkpt lat="42.8047" lon="0.12788">
        <ele>2849</ele>
        <time>2014-06-08T08:57:35Z</time>
      </trkpt>
      <trkpt lat="42.80473" lon="0.1279">
        <ele>2850</ele>
        <time>2014-06-08T08:57:54Z</time>
      </trkpt>
      <trkpt lat="42.8047" lon="0.1279">
        <ele>2849</ele>
        <time>2014-06-08T08:58:17Z</time>
      </trkpt>
      <trkpt lat="42.80469" lon="0.12789">
        <ele>2849</ele>
        <time>2014-06-08T08:58:39Z</time>
      </trkpt>
      <trkpt lat="42.80467" lon="0.12789">
        <ele>2849</ele>
        <time>2014-06-08T08:58:50Z</time>
      </trkpt>
      <trkpt lat="42.80469" lon="0.1279">
        <ele>2849</ele>
        <time>2014-06-08T08:59:07Z</time>
      </trkpt>
      <trkpt lat="42.80468" lon="0.12788">
        <ele>2850</ele>
        <time>2014-06-08T08:59:31Z</time>
      </trkpt>
      <trkpt lat="42.80467" lon="0.12788">
        <ele>2849</ele>
        <time>2014-06-08T08:59:48Z</time>
      </trkpt>
      <trkpt lat="42.80468" lon="0.12789">
        <ele>2849</ele>
        <time>2014-06-08T09:00:06Z</time>
      </trkpt>
      <trkpt lat="42.80467" lon="0.12788">
        <ele>2851</ele>
        <time>2014-06-08T09:00:22Z</time>
      </trkpt>
      <trkpt lat="42.80467" lon="0.12789">
        <ele>2849</ele>
        <time>2014-06-08T09:00:42Z</time>
      </trkpt>
      <trkpt lat="42.80467" lon="0.1279">
        <ele>2849</ele>
        <time>2014-06-08T09:00:50Z</time>
      </trkpt>
      <trkpt lat="42.80469" lon="0.12795">
        <ele>2849</ele>
        <time>2014-06-08T09:00:53Z</time>
      </trkpt>
      <trkpt lat="42.80471" lon="0.128">
        <ele>2847</ele>
        <time>2014-06-08T09:00:56Z</time>
      </trkpt>
      <trkpt lat="42.80469" lon="0.12807">
        <ele>2844</ele>
        <time>2014-06-08T09:00:59Z</time>
      </trkpt>
      <trkpt lat="42.80465" lon="0.12815">
        <ele>2839</ele>
        <time>2014-06-08T09:01:02Z</time>
      </trkpt>
      <trkpt lat="42.80464" lon="0.12823">
        <ele>2836</ele>
        <time>2014-06-08T09:01:05Z</time>
      </trkpt>
      <trkpt lat="42.80463" lon="0.12824">
        <ele>2836</ele>
        <time>2014-06-08T09:01:06Z</time>
      </trkpt>
      <trkpt lat="42.80457" lon="0.12827">
        <ele>2833</ele>
        <time>2014-06-08T09:01:09Z</time>
      </trkpt>
      <trkpt lat="42.80453" lon="0.12829">
        <ele>2829</ele>
        <time>2014-06-08T09:01:10Z</time>
      </trkpt>
      <trkpt lat="42.80449" lon="0.12831">
        <ele>2828</ele>
        <time>2014-06-08T09:01:12Z</time>
      </trkpt>
      <trkpt lat="42.80449" lon="0.1284">
        <ele>2824</ele>
        <time>2014-06-08T09:01:14Z</time>
      </trkpt>
      <trkpt lat="42.80439" lon="0.12841">
        <ele>2821</ele>
        <time>2014-06-08T09:01:17Z</time>
      </trkpt>
      <trkpt lat="42.80427" lon="0.12841">
        <ele>2816</ele>
        <time>2014-06-08T09:01:20Z</time>
      </trkpt>
      <trkpt lat="42.80414" lon="0.12843">
        <ele>2812</ele>
        <time>2014-06-08T09:01:24Z</time>
      </trkpt>
      <trkpt lat="42.80404" lon="0.12849">
        <ele>2810</ele>
        <time>2014-06-08T09:01:28Z</time>
      </trkpt>
      <trkpt lat="42.80405" lon="0.12859">
        <ele>2805</ele>
        <time>2014-06-08T09:01:31Z</time>
      </trkpt>
      <trkpt lat="42.80405" lon="0.12861">
        <ele>2802</ele>
        <time>2014-06-08T09:01:32Z</time>
      </trkpt>
      <trkpt lat="42.80402" lon="0.12872">
        <ele>2798</ele>
        <time>2014-06-08T09:01:35Z</time>
      </trkpt>
      <trkpt lat="42.804" lon="0.12878">
        <ele>2797</ele>
        <time>2014-06-08T09:01:37Z</time>
      </trkpt>
      <trkpt lat="42.80392" lon="0.12889">
        <ele>2797</ele>
        <time>2014-06-08T09:01:47Z</time>
      </trkpt>
      <trkpt lat="42.80392" lon="0.12889">
        <ele>2796</ele>
        <time>2014-06-08T09:01:48Z</time>
      </trkpt>
      <trkpt lat="42.80385" lon="0.12905">
        <ele>2792</ele>
        <time>2014-06-08T09:01:52Z</time>
      </trkpt>
      <trkpt lat="42.80378" lon="0.12916">
        <ele>2788</ele>
        <time>2014-06-08T09:01:55Z</time>
      </trkpt>
      <trkpt lat="42.80375" lon="0.12919">
        <ele>2788</ele>
        <time>2014-06-08T09:01:56Z</time>
      </trkpt>
      <trkpt lat="42.80371" lon="0.12925">
        <ele>2786</ele>
        <time>2014-06-08T09:01:58Z</time>
      </trkpt>
      <trkpt lat="42.80367" lon="0.1293">
        <ele>2785</ele>
        <time>2014-06-08T09:02:00Z</time>
      </trkpt>
      <trkpt lat="42.80366" lon="0.12935">
        <ele>2783</ele>
        <time>2014-06-08T09:02:01Z</time>
      </trkpt>
      <trkpt lat="42.80367" lon="0.12939">
        <ele>2782</ele>
        <time>2014-06-08T09:02:02Z</time>
      </trkpt>
      <trkpt lat="42.80368" lon="0.12945">
        <ele>2779</ele>
        <time>2014-06-08T09:02:04Z</time>
      </trkpt>
      <trkpt lat="42.8037" lon="0.12947">
        <ele>2778</ele>
        <time>2014-06-08T09:02:06Z</time>
      </trkpt>
      <trkpt lat="42.80371" lon="0.12951">
        <ele>2778</ele>
        <time>2014-06-08T09:02:07Z</time>
      </trkpt>
      <trkpt lat="42.80371" lon="0.12955">
        <ele>2774</ele>
        <time>2014-06-08T09:02:09Z</time>
      </trkpt>
      <trkpt lat="42.80383" lon="0.12951">
        <ele>2774</ele>
        <time>2014-06-08T09:02:18Z</time>
      </trkpt>
      <trkpt lat="42.80384" lon="0.1296">
        <ele>2771</ele>
        <time>2014-06-08T09:02:22Z</time>
      </trkpt>
      <trkpt lat="42.8039" lon="0.12964">
        <ele>2769</ele>
        <time>2014-06-08T09:02:24Z</time>
      </trkpt>
      <trkpt lat="42.80396" lon="0.12975">
        <ele>2762</ele>
        <time>2014-06-08T09:02:28Z</time>
      </trkpt>
      <trkpt lat="42.80392" lon="0.12981">
        <ele>2760</ele>
        <time>2014-06-08T09:02:30Z</time>
      </trkpt>
      <trkpt lat="42.80392" lon="0.12987">
        <ele>2756</ele>
        <time>2014-06-08T09:02:31Z</time>
      </trkpt>
      <trkpt lat="42.80394" lon="0.12997">
        <ele>2751</ele>
        <time>2014-06-08T09:02:33Z</time>
      </trkpt>
      <trkpt lat="42.8039" lon="0.1301">
        <ele>2749</ele>
        <time>2014-06-08T09:02:36Z</time>
      </trkpt>
      <trkpt lat="42.80393" lon="0.1302">
        <ele>2750</ele>
        <time>2014-06-08T09:02:51Z</time>
      </trkpt>
      <trkpt lat="42.80383" lon="0.13024">
        <ele>2747</ele>
        <time>2014-06-08T09:02:56Z</time>
      </trkpt>
      <trkpt lat="42.80374" lon="0.13032">
        <ele>2744</ele>
        <time>2014-06-08T09:02:59Z</time>
      </trkpt>
      <trkpt lat="42.80368" lon="0.13037">
        <ele>2742</ele>
        <time>2014-06-08T09:03:01Z</time>
      </trkpt>
      <trkpt lat="42.80365" lon="0.13041">
        <ele>2741</ele>
        <time>2014-06-08T09:03:02Z</time>
      </trkpt>
      <trkpt lat="42.80362" lon="0.13046">
        <ele>2740</ele>
        <time>2014-06-08T09:03:03Z</time>
      </trkpt>
      <trkpt lat="42.80349" lon="0.13067">
        <ele>2736</ele>
        <time>2014-06-08T09:03:07Z</time>
      </trkpt>
      <trkpt lat="42.80337" lon="0.13085">
        <ele>2732</ele>
        <time>2014-06-08T09:03:12Z</time>
      </trkpt>
      <trkpt lat="42.80336" lon="0.13097">
        <ele>2729</ele>
        <time>2014-06-08T09:03:14Z</time>
      </trkpt>
      <trkpt lat="42.80337" lon="0.13107">
        <ele>2724</ele>
        <time>2014-06-08T09:03:17Z</time>
      </trkpt>
      <trkpt lat="42.80341" lon="0.13112">
        <ele>2719</ele>
        <time>2014-06-08T09:03:19Z</time>
      </trkpt>
      <trkpt lat="42.80342" lon="0.13117">
        <ele>2717</ele>
        <time>2014-06-08T09:03:21Z</time>
      </trkpt>
      <trkpt lat="42.80345" lon="0.13121">
        <ele>2712</ele>
        <time>2014-06-08T09:03:22Z</time>
      </trkpt>
      <trkpt lat="42.80348" lon="0.13126">
        <ele>2711</ele>
        <time>2014-06-08T09:03:23Z</time>
      </trkpt>
      <trkpt lat="42.80342" lon="0.13133">
        <ele>2706</ele>
        <time>2014-06-08T09:03:26Z</time>
      </trkpt>
      <trkpt lat="42.80339" lon="0.13135">
        <ele>2705</ele>
        <time>2014-06-08T09:03:27Z</time>
      </trkpt>
      <trkpt lat="42.80328" lon="0.13141">
        <ele>2705</ele>
        <time>2014-06-08T09:03:31Z</time>
      </trkpt>
      <trkpt lat="42.80307" lon="0.13155">
        <ele>2701</ele>
        <time>2014-06-08T09:03:36Z</time>
      </trkpt>
      <trkpt lat="42.80302" lon="0.13169">
        <ele>2700</ele>
        <time>2014-06-08T09:03:39Z</time>
      </trkpt>
      <trkpt lat="42.80295" lon="0.13194">
        <ele>2696</ele>
        <time>2014-06-08T09:03:45Z</time>
      </trkpt>
      <trkpt lat="42.8029" lon="0.13217">
        <ele>2693</ele>
        <time>2014-06-08T09:03:49Z</time>
      </trkpt>
      <trkpt lat="42.80281" lon="0.13237">
        <ele>2689</ele>
        <time>2014-06-08T09:03:53Z</time>
      </trkpt>
      <trkpt lat="42.80271" lon="0.13248">
        <ele>2687</ele>
        <time>2014-06-08T09:03:56Z</time>
      </trkpt>
      <trkpt lat="42.80266" lon="0.13254">
        <ele>2687</ele>
        <time>2014-06-08T09:03:58Z</time>
      </trkpt>
      <trkpt lat="42.80272" lon="0.13252">
        <ele>2687</ele>
        <time>2014-06-08T09:04:11Z</time>
      </trkpt>
      <trkpt lat="42.80265" lon="0.13241">
        <ele>2688</ele>
        <time>2014-06-08T09:04:22Z</time>
      </trkpt>
      <trkpt lat="42.80258" lon="0.13228">
        <ele>2690</ele>
        <time>2014-06-08T09:04:36Z</time>
      </trkpt>
      <trkpt lat="42.8025" lon="0.13219">
        <ele>2691</ele>
        <time>2014-06-08T09:04:48Z</time>
      </trkpt>
      <trkpt lat="42.8024" lon="0.13217">
        <ele>2692</ele>
        <time>2014-06-08T09:05:01Z</time>
      </trkpt>
      <trkpt lat="42.80224" lon="0.13227">
        <ele>2688</ele>
        <time>2014-06-08T09:05:11Z</time>
      </trkpt>
      <trkpt lat="42.80219" lon="0.1323">
        <ele>2688</ele>
        <time>2014-06-08T09:05:13Z</time>
      </trkpt>
      <trkpt lat="42.80212" lon="0.13234">
        <ele>2685</ele>
        <time>2014-06-08T09:05:17Z</time>
      </trkpt>
      <trkpt lat="42.80211" lon="0.13235">
        <ele>2685</ele>
        <time>2014-06-08T09:05:18Z</time>
      </trkpt>
      <trkpt lat="42.80211" lon="0.13236">
        <ele>2685</ele>
        <time>2014-06-08T09:05:19Z</time>
      </trkpt>
      <trkpt lat="42.80205" lon="0.13249">
        <ele>2681</ele>
        <time>2014-06-08T09:05:22Z</time>
      </trkpt>
      <trkpt lat="42.80204" lon="0.13253">
        <ele>2680</ele>
        <time>2014-06-08T09:05:23Z</time>
      </trkpt>
      <trkpt lat="42.80202" lon="0.13253">
        <ele>2680</ele>
        <time>2014-06-08T09:05:28Z</time>
      </trkpt>
      <trkpt lat="42.80191" lon="0.13261">
        <ele>2678</ele>
        <time>2014-06-08T09:05:37Z</time>
      </trkpt>
      <trkpt lat="42.80188" lon="0.13262">
        <ele>2678</ele>
        <time>2014-06-08T09:05:47Z</time>
      </trkpt>
      <trkpt lat="42.8018" lon="0.13266">
        <ele>2679</ele>
        <time>2014-06-08T09:06:00Z</time>
      </trkpt>
      <trkpt lat="42.8018" lon="0.13271">
        <ele>2679</ele>
        <time>2014-06-08T09:06:07Z</time>
      </trkpt>
      <trkpt lat="42.80166" lon="0.1328">
        <ele>2678</ele>
        <time>2014-06-08T09:06:22Z</time>
      </trkpt>
      <trkpt lat="42.80163" lon="0.13281">
        <ele>2678</ele>
        <time>2014-06-08T09:06:26Z</time>
      </trkpt>
      <trkpt lat="42.8016" lon="0.13286">
        <ele>2679</ele>
        <time>2014-06-08T09:06:40Z</time>
      </trkpt>
      <trkpt lat="42.8016" lon="0.13285">
        <ele>2679</ele>
        <time>2014-06-08T09:06:55Z</time>
      </trkpt>
      <trkpt lat="42.80155" lon="0.13284">
        <ele>2680</ele>
        <time>2014-06-08T09:07:07Z</time>
      </trkpt>
      <trkpt lat="42.80153" lon="0.13285">
        <ele>2679</ele>
        <time>2014-06-08T09:07:15Z</time>
      </trkpt>
      <trkpt lat="42.80144" lon="0.13292">
        <ele>2678</ele>
        <time>2014-06-08T09:07:21Z</time>
      </trkpt>
      <trkpt lat="42.80133" lon="0.13307">
        <ele>2675</ele>
        <time>2014-06-08T09:07:26Z</time>
      </trkpt>
      <trkpt lat="42.80122" lon="0.13323">
        <ele>2672</ele>
        <time>2014-06-08T09:07:32Z</time>
      </trkpt>
      <trkpt lat="42.80118" lon="0.13324">
        <ele>2672</ele>
        <time>2014-06-08T09:07:42Z</time>
      </trkpt>
      <trkpt lat="42.80122" lon="0.13325">
        <ele>2672</ele>
        <time>2014-06-08T09:08:05Z</time>
      </trkpt>
      <trkpt lat="42.80119" lon="0.13328">
        <ele>2673</ele>
        <time>2014-06-08T09:08:24Z</time>
      </trkpt>
      <trkpt lat="42.8012" lon="0.13327">
        <ele>2673</ele>
        <time>2014-06-08T09:08:42Z</time>
      </trkpt>
      <trkpt lat="42.80123" lon="0.13328">
        <ele>2674</ele>
        <time>2014-06-08T09:09:01Z</time>
      </trkpt>
      <trkpt lat="42.80121" lon="0.13327">
        <ele>2674</ele>
        <time>2014-06-08T09:09:22Z</time>
      </trkpt>
      <trkpt lat="42.80131" lon="0.13334">
        <ele>2674</ele>
        <time>2014-06-08T09:09:39Z</time>
      </trkpt>
      <trkpt lat="42.80124" lon="0.13331">
        <ele>2675</ele>
        <time>2014-06-08T09:09:53Z</time>
      </trkpt>
      <trkpt lat="42.80129" lon="0.13334">
        <ele>2673</ele>
        <time>2014-06-08T09:10:04Z</time>
      </trkpt>
      <trkpt lat="42.80129" lon="0.13335">
        <ele>2670</ele>
        <time>2014-06-08T09:10:10Z</time>
      </trkpt>
      <trkpt lat="42.80132" lon="0.13334">
        <ele>2667</ele>
        <time>2014-06-08T09:10:22Z</time>
      </trkpt>
      <trkpt lat="42.80134" lon="0.13332">
        <ele>2665</ele>
        <time>2014-06-08T09:10:39Z</time>
      </trkpt>
      <trkpt lat="42.80135" lon="0.13332">
        <ele>2664</ele>
        <time>2014-06-08T09:10:52Z</time>
      </trkpt>
      <trkpt lat="42.80136" lon="0.13329">
        <ele>2662</ele>
        <time>2014-06-08T09:11:07Z</time>
      </trkpt>
      <trkpt lat="42.80135" lon="0.1333">
        <ele>2663</ele>
        <time>2014-06-08T09:11:30Z</time>
      </trkpt>
      <trkpt lat="42.80132" lon="0.13334">
        <ele>2664</ele>
        <time>2014-06-08T09:11:40Z</time>
      </trkpt>
      <trkpt lat="42.80125" lon="0.1333">
        <ele>2668</ele>
        <time>2014-06-08T09:11:51Z</time>
      </trkpt>
      <trkpt lat="42.80124" lon="0.13334">
        <ele>2670</ele>
        <time>2014-06-08T09:12:01Z</time>
      </trkpt>
      <trkpt lat="42.80121" lon="0.13337">
        <ele>2670</ele>
        <time>2014-06-08T09:12:19Z</time>
      </trkpt>
      <trkpt lat="42.8012" lon="0.13339">
        <ele>2669</ele>
        <time>2014-06-08T09:12:32Z</time>
      </trkpt>
      <trkpt lat="42.80118" lon="0.13339">
        <ele>2670</ele>
        <time>2014-06-08T09:12:45Z</time>
      </trkpt>
      <trkpt lat="42.80115" lon="0.1334">
        <ele>2669</ele>
        <time>2014-06-08T09:12:57Z</time>
      </trkpt>
      <trkpt lat="42.80116" lon="0.13342">
        <ele>2669</ele>
        <time>2014-06-08T09:13:13Z</time>
      </trkpt>
      <trkpt lat="42.80114" lon="0.13345">
        <ele>2670</ele>
        <time>2014-06-08T09:13:28Z</time>
      </trkpt>
      <trkpt lat="42.80107" lon="0.1335">
        <ele>2672</ele>
        <time>2014-06-08T09:13:42Z</time>
      </trkpt>
      <trkpt lat="42.80103" lon="0.13351">
        <ele>2674</ele>
        <time>2014-06-08T09:13:55Z</time>
      </trkpt>
      <trkpt lat="42.80095" lon="0.13348">
        <ele>2676</ele>
        <time>2014-06-08T09:14:13Z</time>
      </trkpt>
      <trkpt lat="42.80092" lon="0.13345">
        <ele>2677</ele>
        <time>2014-06-08T09:14:27Z</time>
      </trkpt>
      <trkpt lat="42.80086" lon="0.13342">
        <ele>2677</ele>
        <time>2014-06-08T09:14:42Z</time>
      </trkpt>
      <trkpt lat="42.8008" lon="0.13339">
        <ele>2680</ele>
        <time>2014-06-08T09:14:57Z</time>
      </trkpt>
      <trkpt lat="42.80077" lon="0.13335">
        <ele>2681</ele>
        <time>2014-06-08T09:15:12Z</time>
      </trkpt>
      <trkpt lat="42.80079" lon="0.13335">
        <ele>2681</ele>
        <time>2014-06-08T09:15:30Z</time>
      </trkpt>
      <trkpt lat="42.80085" lon="0.13331">
        <ele>2679</ele>
        <time>2014-06-08T09:15:45Z</time>
      </trkpt>
      <trkpt lat="42.80084" lon="0.1333">
        <ele>2679</ele>
        <time>2014-06-08T09:16:13Z</time>
      </trkpt>
      <trkpt lat="42.8008" lon="0.13333">
        <ele>2681</ele>
        <time>2014-06-08T09:16:30Z</time>
      </trkpt>
      <trkpt lat="42.80081" lon="0.13333">
        <ele>2681</ele>
        <time>2014-06-08T09:16:50Z</time>
      </trkpt>
      <trkpt lat="42.80079" lon="0.13334">
        <ele>2679</ele>
        <time>2014-06-08T09:17:06Z</time>
      </trkpt>
      <trkpt lat="42.80076" lon="0.1333">
        <ele>2679</ele>
        <time>2014-06-08T09:17:28Z</time>
      </trkpt>
      <trkpt lat="42.80076" lon="0.1333">
        <ele>2679</ele>
        <time>2014-06-08T09:17:43Z</time>
      </trkpt>
      <trkpt lat="42.80074" lon="0.13331">
        <ele>2678</ele>
        <time>2014-06-08T09:17:59Z</time>
      </trkpt>
      <trkpt lat="42.80075" lon="0.13334">
        <ele>2679</ele>
        <time>2014-06-08T09:18:21Z</time>
      </trkpt>
      <trkpt lat="42.80077" lon="0.13335">
        <ele>2678</ele>
        <time>2014-06-08T09:18:41Z</time>
      </trkpt>
      <trkpt lat="42.80073" lon="0.13334">
        <ele>2678</ele>
        <time>2014-06-08T09:19:02Z</time>
      </trkpt>
      <trkpt lat="42.80074" lon="0.13336">
        <ele>2678</ele>
        <time>2014-06-08T09:19:19Z</time>
      </trkpt>
      <trkpt lat="42.80067" lon="0.13345">
        <ele>2678</ele>
        <time>2014-06-08T09:19:32Z</time>
      </trkpt>
      <trkpt lat="42.80056" lon="0.13359">
        <ele>2674</ele>
        <time>2014-06-08T09:19:37Z</time>
      </trkpt>
      <trkpt lat="42.80054" lon="0.13362">
        <ele>2674</ele>
        <time>2014-06-08T09:19:38Z</time>
      </trkpt>
      <trkpt lat="42.80048" lon="0.13368">
        <ele>2673</ele>
        <time>2014-06-08T09:19:41Z</time>
      </trkpt>
      <trkpt lat="42.80039" lon="0.13386">
        <ele>2669</ele>
        <time>2014-06-08T09:19:49Z</time>
      </trkpt>
      <trkpt lat="42.80033" lon="0.13401">
        <ele>2667</ele>
        <time>2014-06-08T09:19:54Z</time>
      </trkpt>
      <trkpt lat="42.80025" lon="0.1342">
        <ele>2663</ele>
        <time>2014-06-08T09:19:59Z</time>
      </trkpt>
      <trkpt lat="42.80024" lon="0.13424">
        <ele>2663</ele>
        <time>2014-06-08T09:20:00Z</time>
      </trkpt>
      <trkpt lat="42.80019" lon="0.13441">
        <ele>2660</ele>
        <time>2014-06-08T09:20:05Z</time>
      </trkpt>
      <trkpt lat="42.80012" lon="0.13453">
        <ele>2657</ele>
        <time>2014-06-08T09:20:14Z</time>
      </trkpt>
      <trkpt lat="42.8002" lon="0.13463">
        <ele>2652</ele>
        <time>2014-06-08T09:20:20Z</time>
      </trkpt>
      <trkpt lat="42.80022" lon="0.13468">
        <ele>2649</ele>
        <time>2014-06-08T09:20:22Z</time>
      </trkpt>
      <trkpt lat="42.80028" lon="0.13471">
        <ele>2645</ele>
        <time>2014-06-08T09:20:26Z</time>
      </trkpt>
      <trkpt lat="42.80029" lon="0.13471">
        <ele>2643</ele>
        <time>2014-06-08T09:20:27Z</time>
      </trkpt>
      <trkpt lat="42.80029" lon="0.13472">
        <ele>2643</ele>
        <time>2014-06-08T09:20:28Z</time>
      </trkpt>
      <trkpt lat="42.80034" lon="0.13478">
        <ele>2639</ele>
        <time>2014-06-08T09:20:32Z</time>
      </trkpt>
      <trkpt lat="42.80032" lon="0.13481">
        <ele>2637</ele>
        <time>2014-06-08T09:20:41Z</time>
      </trkpt>
      <trkpt lat="42.80032" lon="0.13493">
        <ele>2635</ele>
        <time>2014-06-08T09:20:49Z</time>
      </trkpt>
      <trkpt lat="42.80031" lon="0.13501">
        <ele>2631</ele>
        <time>2014-06-08T09:20:54Z</time>
      </trkpt>
      <trkpt lat="42.80031" lon="0.13522">
        <ele>2627</ele>
        <time>2014-06-08T09:21:02Z</time>
      </trkpt>
      <trkpt lat="42.80028" lon="0.13529">
        <ele>2625</ele>
        <time>2014-06-08T09:21:10Z</time>
      </trkpt>
      <trkpt lat="42.80028" lon="0.1353">
        <ele>2625</ele>
        <time>2014-06-08T09:21:12Z</time>
      </trkpt>
      <trkpt lat="42.80035" lon="0.13536">
        <ele>2622</ele>
        <time>2014-06-08T09:21:17Z</time>
      </trkpt>
      <trkpt lat="42.8004" lon="0.13536">
        <ele>2617</ele>
        <time>2014-06-08T09:21:19Z</time>
      </trkpt>
      <trkpt lat="42.80041" lon="0.1354">
        <ele>2616</ele>
        <time>2014-06-08T09:21:20Z</time>
      </trkpt>
      <trkpt lat="42.80044" lon="0.13556">
        <ele>2613</ele>
        <time>2014-06-08T09:21:26Z</time>
      </trkpt>
      <trkpt lat="42.80044" lon="0.13555">
        <ele>2613</ele>
        <time>2014-06-08T09:21:31Z</time>
      </trkpt>
      <trkpt lat="42.80052" lon="0.13549">
        <ele>2609</ele>
        <time>2014-06-08T09:21:35Z</time>
      </trkpt>
      <trkpt lat="42.80054" lon="0.13546">
        <ele>2607</ele>
        <time>2014-06-08T09:21:36Z</time>
      </trkpt>
      <trkpt lat="42.80055" lon="0.1354">
        <ele>2605</ele>
        <time>2014-06-08T09:21:38Z</time>
      </trkpt>
      <trkpt lat="42.80062" lon="0.13528">
        <ele>2602</ele>
        <time>2014-06-08T09:21:44Z</time>
      </trkpt>
      <trkpt lat="42.80065" lon="0.13533">
        <ele>2599</ele>
        <time>2014-06-08T09:21:47Z</time>
      </trkpt>
      <trkpt lat="42.80065" lon="0.13539">
        <ele>2598</ele>
        <time>2014-06-08T09:21:49Z</time>
      </trkpt>
      <trkpt lat="42.80065" lon="0.1355">
        <ele>2595</ele>
        <time>2014-06-08T09:21:56Z</time>
      </trkpt>
      <trkpt lat="42.80067" lon="0.13548">
        <ele>2596</ele>
        <time>2014-06-08T09:22:08Z</time>
      </trkpt>
      <trkpt lat="42.80071" lon="0.1355">
        <ele>2593</ele>
        <time>2014-06-08T09:22:11Z</time>
      </trkpt>
      <trkpt lat="42.80077" lon="0.13545">
        <ele>2589</ele>
        <time>2014-06-08T09:22:15Z</time>
      </trkpt>
      <trkpt lat="42.8008" lon="0.13553">
        <ele>2588</ele>
        <time>2014-06-08T09:22:17Z</time>
      </trkpt>
      <trkpt lat="42.80081" lon="0.13573">
        <ele>2585</ele>
        <time>2014-06-08T09:22:23Z</time>
      </trkpt>
      <trkpt lat="42.80085" lon="0.13573">
        <ele>2579</ele>
        <time>2014-06-08T09:22:27Z</time>
      </trkpt>
      <trkpt lat="42.80087" lon="0.13573">
        <ele>2578</ele>
        <time>2014-06-08T09:22:28Z</time>
      </trkpt>
      <trkpt lat="42.80084" lon="0.13575">
        <ele>2578</ele>
        <time>2014-06-08T09:22:45Z</time>
      </trkpt>
      <trkpt lat="42.80084" lon="0.13575">
        <ele>2578</ele>
        <time>2014-06-08T09:22:46Z</time>
      </trkpt>
      <trkpt lat="42.80088" lon="0.1359">
        <ele>2575</ele>
        <time>2014-06-08T09:22:50Z</time>
      </trkpt>
      <trkpt lat="42.80092" lon="0.13605">
        <ele>2572</ele>
        <time>2014-06-08T09:22:57Z</time>
      </trkpt>
      <trkpt lat="42.80093" lon="0.13609">
        <ele>2571</ele>
        <time>2014-06-08T09:22:58Z</time>
      </trkpt>
      <trkpt lat="42.80094" lon="0.13616">
        <ele>2570</ele>
        <time>2014-06-08T09:23:00Z</time>
      </trkpt>
      <trkpt lat="42.80101" lon="0.13646">
        <ele>2566</ele>
        <time>2014-06-08T09:23:07Z</time>
      </trkpt>
      <trkpt lat="42.80103" lon="0.13654">
        <ele>2566</ele>
        <time>2014-06-08T09:23:09Z</time>
      </trkpt>
      <trkpt lat="42.80117" lon="0.13675">
        <ele>2563</ele>
        <time>2014-06-08T09:23:15Z</time>
      </trkpt>
      <trkpt lat="42.80129" lon="0.13694">
        <ele>2559</ele>
        <time>2014-06-08T09:23:21Z</time>
      </trkpt>
      <trkpt lat="42.80141" lon="0.1371">
        <ele>2556</ele>
        <time>2014-06-08T09:23:27Z</time>
      </trkpt>
      <trkpt lat="42.80149" lon="0.13728">
        <ele>2553</ele>
        <time>2014-06-08T09:23:39Z</time>
      </trkpt>
      <trkpt lat="42.80148" lon="0.13732">
        <ele>2554</ele>
        <time>2014-06-08T09:23:52Z</time>
      </trkpt>
      <trkpt lat="42.80153" lon="0.1374">
        <ele>2554</ele>
        <time>2014-06-08T09:24:02Z</time>
      </trkpt>
      <trkpt lat="42.80167" lon="0.13761">
        <ele>2550</ele>
        <time>2014-06-08T09:24:09Z</time>
      </trkpt>
      <trkpt lat="42.80173" lon="0.13771">
        <ele>2549</ele>
        <time>2014-06-08T09:24:12Z</time>
      </trkpt>
      <trkpt lat="42.80188" lon="0.13791">
        <ele>2546</ele>
        <time>2014-06-08T09:24:18Z</time>
      </trkpt>
      <trkpt lat="42.80202" lon="0.13827">
        <ele>2543</ele>
        <time>2014-06-08T09:24:32Z</time>
      </trkpt>
      <trkpt lat="42.80206" lon="0.1385">
        <ele>2540</ele>
        <time>2014-06-08T09:24:42Z</time>
      </trkpt>
      <trkpt lat="42.80204" lon="0.13853">
        <ele>2539</ele>
        <time>2014-06-08T09:24:54Z</time>
      </trkpt>
      <trkpt lat="42.80203" lon="0.13856">
        <ele>2539</ele>
        <time>2014-06-08T09:25:08Z</time>
      </trkpt>
      <trkpt lat="42.80203" lon="0.13862">
        <ele>2540</ele>
        <time>2014-06-08T09:25:21Z</time>
      </trkpt>
      <trkpt lat="42.80203" lon="0.13868">
        <ele>2539</ele>
        <time>2014-06-08T09:25:32Z</time>
      </trkpt>
      <trkpt lat="42.80213" lon="0.13896">
        <ele>2536</ele>
        <time>2014-06-08T09:25:40Z</time>
      </trkpt>
      <trkpt lat="42.80215" lon="0.139">
        <ele>2536</ele>
        <time>2014-06-08T09:25:41Z</time>
      </trkpt>
      <trkpt lat="42.80219" lon="0.13908">
        <ele>2535</ele>
        <time>2014-06-08T09:25:43Z</time>
      </trkpt>
      <trkpt lat="42.80228" lon="0.13921">
        <ele>2531</ele>
        <time>2014-06-08T09:25:47Z</time>
      </trkpt>
      <trkpt lat="42.80232" lon="0.13928">
        <ele>2530</ele>
        <time>2014-06-08T09:25:50Z</time>
      </trkpt>
      <trkpt lat="42.80233" lon="0.13929">
        <ele>2528</ele>
        <time>2014-06-08T09:25:57Z</time>
      </trkpt>
      <trkpt lat="42.8024" lon="0.13916">
        <ele>2526</ele>
        <time>2014-06-08T09:26:02Z</time>
      </trkpt>
      <trkpt lat="42.80246" lon="0.13914">
        <ele>2522</ele>
        <time>2014-06-08T09:26:04Z</time>
      </trkpt>
      <trkpt lat="42.80252" lon="0.13911">
        <ele>2517</ele>
        <time>2014-06-08T09:26:06Z</time>
      </trkpt>
      <trkpt lat="42.80255" lon="0.13909">
        <ele>2517</ele>
        <time>2014-06-08T09:26:07Z</time>
      </trkpt>
      <trkpt lat="42.80259" lon="0.13909">
        <ele>2514</ele>
        <time>2014-06-08T09:26:08Z</time>
      </trkpt>
      <trkpt lat="42.80265" lon="0.13912">
        <ele>2510</ele>
        <time>2014-06-08T09:26:10Z</time>
      </trkpt>
      <trkpt lat="42.80271" lon="0.13907">
        <ele>2506</ele>
        <time>2014-06-08T09:26:11Z</time>
      </trkpt>
      <trkpt lat="42.80273" lon="0.13904">
        <ele>2504</ele>
        <time>2014-06-08T09:26:12Z</time>
      </trkpt>
      <trkpt lat="42.80279" lon="0.13903">
        <ele>2502</ele>
        <time>2014-06-08T09:26:13Z</time>
      </trkpt>
      <trkpt lat="42.80283" lon="0.13903">
        <ele>2500</ele>
        <time>2014-06-08T09:26:14Z</time>
      </trkpt>
      <trkpt lat="42.80293" lon="0.13905">
        <ele>2496</ele>
        <time>2014-06-08T09:26:16Z</time>
      </trkpt>
      <trkpt lat="42.80305" lon="0.13912">
        <ele>2491</ele>
        <time>2014-06-08T09:26:18Z</time>
      </trkpt>
      <trkpt lat="42.80313" lon="0.13917">
        <ele>2488</ele>
        <time>2014-06-08T09:26:19Z</time>
      </trkpt>
      <trkpt lat="42.80323" lon="0.13937">
        <ele>2485</ele>
        <time>2014-06-08T09:26:22Z</time>
      </trkpt>
      <trkpt lat="42.80329" lon="0.13956">
        <ele>2482</ele>
        <time>2014-06-08T09:26:26Z</time>
      </trkpt>
      <trkpt lat="42.80321" lon="0.14002">
        <ele>2480</ele>
        <time>2014-06-08T09:26:40Z</time>
      </trkpt>
      <trkpt lat="42.80311" lon="0.14033">
        <ele>2477</ele>
        <time>2014-06-08T09:26:50Z</time>
      </trkpt>
      <trkpt lat="42.80309" lon="0.14036">
        <ele>2477</ele>
        <time>2014-06-08T09:26:51Z</time>
      </trkpt>
      <trkpt lat="42.803" lon="0.14066">
        <ele>2474</ele>
        <time>2014-06-08T09:27:02Z</time>
      </trkpt>
      <trkpt lat="42.803" lon="0.14076">
        <ele>2472</ele>
        <time>2014-06-08T09:27:04Z</time>
      </trkpt>
      <trkpt lat="42.80298" lon="0.1409">
        <ele>2469</ele>
        <time>2014-06-08T09:27:07Z</time>
      </trkpt>
      <trkpt lat="42.80295" lon="0.14107">
        <ele>2466</ele>
        <time>2014-06-08T09:27:10Z</time>
      </trkpt>
      <trkpt lat="42.80294" lon="0.14112">
        <ele>2466</ele>
        <time>2014-06-08T09:27:11Z</time>
      </trkpt>
      <trkpt lat="42.80288" lon="0.14146">
        <ele>2463</ele>
        <time>2014-06-08T09:27:22Z</time>
      </trkpt>
      <trkpt lat="42.80288" lon="0.14158">
        <ele>2461</ele>
        <time>2014-06-08T09:27:25Z</time>
      </trkpt>
      <trkpt lat="42.80285" lon="0.14187">
        <ele>2458</ele>
        <time>2014-06-08T09:27:32Z</time>
      </trkpt>
      <trkpt lat="42.80284" lon="0.14215">
        <ele>2455</ele>
        <time>2014-06-08T09:27:39Z</time>
      </trkpt>
      <trkpt lat="42.80281" lon="0.14246">
        <ele>2451</ele>
        <time>2014-06-08T09:27:47Z</time>
      </trkpt>
      <trkpt lat="42.80282" lon="0.14249">
        <ele>2450</ele>
        <time>2014-06-08T09:27:55Z</time>
      </trkpt>
      <trkpt lat="42.80278" lon="0.14264">
        <ele>2448</ele>
        <time>2014-06-08T09:28:05Z</time>
      </trkpt>
      <trkpt lat="42.80277" lon="0.14283">
        <ele>2446</ele>
        <time>2014-06-08T09:28:09Z</time>
      </trkpt>
      <trkpt lat="42.8028" lon="0.14307">
        <ele>2442</ele>
        <time>2014-06-08T09:28:15Z</time>
      </trkpt>
      <trkpt lat="42.80288" lon="0.1434">
        <ele>2439</ele>
        <time>2014-06-08T09:28:26Z</time>
      </trkpt>
      <trkpt lat="42.80292" lon="0.14346">
        <ele>2439</ele>
        <time>2014-06-08T09:28:28Z</time>
      </trkpt>
      <trkpt lat="42.80301" lon="0.14348">
        <ele>2434</ele>
        <time>2014-06-08T09:28:29Z</time>
      </trkpt>
      <trkpt lat="42.803" lon="0.14365">
        <ele>2428</ele>
        <time>2014-06-08T09:28:32Z</time>
      </trkpt>
      <trkpt lat="42.80302" lon="0.14374">
        <ele>2427</ele>
        <time>2014-06-08T09:28:33Z</time>
      </trkpt>
      <trkpt lat="42.803" lon="0.14396">
        <ele>2426</ele>
        <time>2014-06-08T09:28:36Z</time>
      </trkpt>
      <trkpt lat="42.80298" lon="0.14402">
        <ele>2425</ele>
        <time>2014-06-08T09:28:37Z</time>
      </trkpt>
      <trkpt lat="42.80299" lon="0.14428">
        <ele>2422</ele>
        <time>2014-06-08T09:28:42Z</time>
      </trkpt>
      <trkpt lat="42.80305" lon="0.1444">
        <ele>2421</ele>
        <time>2014-06-08T09:28:45Z</time>
      </trkpt>
      <trkpt lat="42.80311" lon="0.14443">
        <ele>2417</ele>
        <time>2014-06-08T09:28:47Z</time>
      </trkpt>
      <trkpt lat="42.80318" lon="0.14442">
        <ele>2414</ele>
        <time>2014-06-08T09:28:48Z</time>
      </trkpt>
      <trkpt lat="42.80328" lon="0.14442">
        <ele>2411</ele>
        <time>2014-06-08T09:28:50Z</time>
      </trkpt>
      <trkpt lat="42.80334" lon="0.1444">
        <ele>2407</ele>
        <time>2014-06-08T09:28:51Z</time>
      </trkpt>
      <trkpt lat="42.8034" lon="0.14438">
        <ele>2404</ele>
        <time>2014-06-08T09:28:52Z</time>
      </trkpt>
      <trkpt lat="42.80355" lon="0.14436">
        <ele>2401</ele>
        <time>2014-06-08T09:28:53Z</time>
      </trkpt>
      <trkpt lat="42.80362" lon="0.14435">
        <ele>2397</ele>
        <time>2014-06-08T09:28:54Z</time>
      </trkpt>
      <trkpt lat="42.80375" lon="0.14438">
        <ele>2393</ele>
        <time>2014-06-08T09:28:56Z</time>
      </trkpt>
      <trkpt lat="42.80389" lon="0.14439">
        <ele>2388</ele>
        <time>2014-06-08T09:28:58Z</time>
      </trkpt>
      <trkpt lat="42.80405" lon="0.14438">
        <ele>2383</ele>
        <time>2014-06-08T09:29:00Z</time>
      </trkpt>
      <trkpt lat="42.8041" lon="0.14441">
        <ele>2382</ele>
        <time>2014-06-08T09:29:01Z</time>
      </trkpt>
      <trkpt lat="42.80415" lon="0.14444">
        <ele>2382</ele>
        <time>2014-06-08T09:29:02Z</time>
      </trkpt>
      <trkpt lat="42.80426" lon="0.14459">
        <ele>2377</ele>
        <time>2014-06-08T09:29:05Z</time>
      </trkpt>
      <trkpt lat="42.80436" lon="0.14463">
        <ele>2371</ele>
        <time>2014-06-08T09:29:07Z</time>
      </trkpt>
      <trkpt lat="42.80443" lon="0.14467">
        <ele>2367</ele>
        <time>2014-06-08T09:29:08Z</time>
      </trkpt>
      <trkpt lat="42.80447" lon="0.14471">
        <ele>2367</ele>
        <time>2014-06-08T09:29:09Z</time>
      </trkpt>
      <trkpt lat="42.80451" lon="0.14475">
        <ele>2366</ele>
        <time>2014-06-08T09:29:10Z</time>
      </trkpt>
      <trkpt lat="42.80454" lon="0.14486">
        <ele>2364</ele>
        <time>2014-06-08T09:29:12Z</time>
      </trkpt>
      <trkpt lat="42.80456" lon="0.145">
        <ele>2363</ele>
        <time>2014-06-08T09:29:19Z</time>
      </trkpt>
      <trkpt lat="42.80454" lon="0.14505">
        <ele>2364</ele>
        <time>2014-06-08T09:29:24Z</time>
      </trkpt>
      <trkpt lat="42.80458" lon="0.14519">
        <ele>2362</ele>
        <time>2014-06-08T09:29:29Z</time>
      </trkpt>
      <trkpt lat="42.80466" lon="0.14529">
        <ele>2360</ele>
        <time>2014-06-08T09:29:32Z</time>
      </trkpt>
      <trkpt lat="42.80483" lon="0.14541">
        <ele>2357</ele>
        <time>2014-06-08T09:29:39Z</time>
      </trkpt>
      <trkpt lat="42.80495" lon="0.14533">
        <ele>2352</ele>
        <time>2014-06-08T09:29:41Z</time>
      </trkpt>
      <trkpt lat="42.80501" lon="0.1453">
        <ele>2350</ele>
        <time>2014-06-08T09:29:42Z</time>
      </trkpt>
      <trkpt lat="42.80509" lon="0.14529">
        <ele>2345</ele>
        <time>2014-06-08T09:29:43Z</time>
      </trkpt>
      <trkpt lat="42.80518" lon="0.14521">
        <ele>2340</ele>
        <time>2014-06-08T09:29:45Z</time>
      </trkpt>
      <trkpt lat="42.80529" lon="0.14514">
        <ele>2337</ele>
        <time>2014-06-08T09:29:47Z</time>
      </trkpt>
      <trkpt lat="42.8054" lon="0.14509">
        <ele>2332</ele>
        <time>2014-06-08T09:29:49Z</time>
      </trkpt>
      <trkpt lat="42.80546" lon="0.14504">
        <ele>2329</ele>
        <time>2014-06-08T09:29:50Z</time>
      </trkpt>
      <trkpt lat="42.80549" lon="0.14502">
        <ele>2328</ele>
        <time>2014-06-08T09:29:51Z</time>
      </trkpt>
      <trkpt lat="42.80554" lon="0.14503">
        <ele>2327</ele>
        <time>2014-06-08T09:29:52Z</time>
      </trkpt>
      <trkpt lat="42.80576" lon="0.14513">
        <ele>2323</ele>
        <time>2014-06-08T09:29:56Z</time>
      </trkpt>
      <trkpt lat="42.80583" lon="0.14518">
        <ele>2320</ele>
        <time>2014-06-08T09:29:57Z</time>
      </trkpt>
      <trkpt lat="42.80603" lon="0.14528">
        <ele>2315</ele>
        <time>2014-06-08T09:30:00Z</time>
      </trkpt>
      <trkpt lat="42.80621" lon="0.14534">
        <ele>2312</ele>
        <time>2014-06-08T09:30:02Z</time>
      </trkpt>
      <trkpt lat="42.80638" lon="0.1454">
        <ele>2308</ele>
        <time>2014-06-08T09:30:04Z</time>
      </trkpt>
      <trkpt lat="42.80654" lon="0.14546">
        <ele>2305</ele>
        <time>2014-06-08T09:30:06Z</time>
      </trkpt>
      <trkpt lat="42.8068" lon="0.14561">
        <ele>2301</ele>
        <time>2014-06-08T09:30:10Z</time>
      </trkpt>
      <trkpt lat="42.80685" lon="0.14565">
        <ele>2301</ele>
        <time>2014-06-08T09:30:11Z</time>
      </trkpt>
      <trkpt lat="42.80704" lon="0.14577">
        <ele>2297</ele>
        <time>2014-06-08T09:30:15Z</time>
      </trkpt>
      <trkpt lat="42.80721" lon="0.14585">
        <ele>2293</ele>
        <time>2014-06-08T09:30:18Z</time>
      </trkpt>
      <trkpt lat="42.80729" lon="0.14587">
        <ele>2292</ele>
        <time>2014-06-08T09:30:19Z</time>
      </trkpt>
      <trkpt lat="42.80744" lon="0.14586">
        <ele>2288</ele>
        <time>2014-06-08T09:30:22Z</time>
      </trkpt>
      <trkpt lat="42.80766" lon="0.14578">
        <ele>2284</ele>
        <time>2014-06-08T09:30:26Z</time>
      </trkpt>
      <trkpt lat="42.80785" lon="0.14579">
        <ele>2283</ele>
        <time>2014-06-08T09:30:29Z</time>
      </trkpt>
      <trkpt lat="42.80796" lon="0.14598">
        <ele>2280</ele>
        <time>2014-06-08T09:30:36Z</time>
      </trkpt>
      <trkpt lat="42.80797" lon="0.14601">
        <ele>2280</ele>
        <time>2014-06-08T09:30:37Z</time>
      </trkpt>
      <trkpt lat="42.80791" lon="0.14603">
        <ele>2279</ele>
        <time>2014-06-08T09:30:47Z</time>
      </trkpt>
      <trkpt lat="42.8078" lon="0.146">
        <ele>2280</ele>
        <time>2014-06-08T09:31:12Z</time>
      </trkpt>
      <trkpt lat="42.80763" lon="0.14606">
        <ele>2281</ele>
        <time>2014-06-08T09:31:31Z</time>
      </trkpt>
      <trkpt lat="42.8078" lon="0.14609">
        <ele>2278</ele>
        <time>2014-06-08T09:31:37Z</time>
      </trkpt>
      <trkpt lat="42.80782" lon="0.14603">
        <ele>2275</ele>
        <time>2014-06-08T09:31:38Z</time>
      </trkpt>
      <trkpt lat="42.80788" lon="0.14596">
        <ele>2271</ele>
        <time>2014-06-08T09:31:40Z</time>
      </trkpt>
      <trkpt lat="42.80799" lon="0.14594">
        <ele>2266</ele>
        <time>2014-06-08T09:31:42Z</time>
      </trkpt>
      <trkpt lat="42.80814" lon="0.14586">
        <ele>2261</ele>
        <time>2014-06-08T09:31:45Z</time>
      </trkpt>
      <trkpt lat="42.80817" lon="0.14587">
        <ele>2261</ele>
        <time>2014-06-08T09:31:46Z</time>
      </trkpt>
      <trkpt lat="42.80821" lon="0.14587">
        <ele>2259</ele>
        <time>2014-06-08T09:31:47Z</time>
      </trkpt>
      <trkpt lat="42.80824" lon="0.14586">
        <ele>2257</ele>
        <time>2014-06-08T09:31:48Z</time>
      </trkpt>
      <trkpt lat="42.80835" lon="0.14584">
        <ele>2254</ele>
        <time>2014-06-08T09:31:50Z</time>
      </trkpt>
      <trkpt lat="42.80849" lon="0.14581">
        <ele>2250</ele>
        <time>2014-06-08T09:31:52Z</time>
      </trkpt>
      <trkpt lat="42.80854" lon="0.14579">
        <ele>2248</ele>
        <time>2014-06-08T09:31:53Z</time>
      </trkpt>
      <trkpt lat="42.80865" lon="0.14577">
        <ele>2244</ele>
        <time>2014-06-08T09:31:56Z</time>
      </trkpt>
      <trkpt lat="42.80871" lon="0.14572">
        <ele>2241</ele>
        <time>2014-06-08T09:31:57Z</time>
      </trkpt>
      <trkpt lat="42.80876" lon="0.14569">
        <ele>2240</ele>
        <time>2014-06-08T09:31:58Z</time>
      </trkpt>
      <trkpt lat="42.80879" lon="0.14568">
        <ele>2239</ele>
        <time>2014-06-08T09:31:59Z</time>
      </trkpt>
      <trkpt lat="42.80889" lon="0.14563">
        <ele>2235</ele>
        <time>2014-06-08T09:32:01Z</time>
      </trkpt>
      <trkpt lat="42.80908" lon="0.14553">
        <ele>2228</ele>
        <time>2014-06-08T09:32:05Z</time>
      </trkpt>
      <trkpt lat="42.80914" lon="0.1455">
        <ele>2227</ele>
        <time>2014-06-08T09:32:06Z</time>
      </trkpt>
      <trkpt lat="42.80927" lon="0.14552">
        <ele>2224</ele>
        <time>2014-06-08T09:32:09Z</time>
      </trkpt>
      <trkpt lat="42.80937" lon="0.1456">
        <ele>2223</ele>
        <time>2014-06-08T09:32:18Z</time>
      </trkpt>
      <trkpt lat="42.80936" lon="0.1456">
        <ele>2223</ele>
        <time>2014-06-08T09:32:24Z</time>
      </trkpt>
      <trkpt lat="42.80959" lon="0.14564">
        <ele>2219</ele>
        <time>2014-06-08T09:32:32Z</time>
      </trkpt>
      <trkpt lat="42.80974" lon="0.14572">
        <ele>2216</ele>
        <time>2014-06-08T09:32:36Z</time>
      </trkpt>
      <trkpt lat="42.80988" lon="0.1459">
        <ele>2214</ele>
        <time>2014-06-08T09:32:43Z</time>
      </trkpt>
      <trkpt lat="42.80998" lon="0.14586">
        <ele>2211</ele>
        <time>2014-06-08T09:32:46Z</time>
      </trkpt>
      <trkpt lat="42.81" lon="0.14583">
        <ele>2210</ele>
        <time>2014-06-08T09:32:47Z</time>
      </trkpt>
      <trkpt lat="42.81012" lon="0.14573">
        <ele>2206</ele>
        <time>2014-06-08T09:32:49Z</time>
      </trkpt>
      <trkpt lat="42.81016" lon="0.14569">
        <ele>2203</ele>
        <time>2014-06-08T09:32:50Z</time>
      </trkpt>
      <trkpt lat="42.81025" lon="0.14563">
        <ele>2201</ele>
        <time>2014-06-08T09:32:52Z</time>
      </trkpt>
      <trkpt lat="42.81031" lon="0.14558">
        <ele>2199</ele>
        <time>2014-06-08T09:32:53Z</time>
      </trkpt>
      <trkpt lat="42.81036" lon="0.14554">
        <ele>2198</ele>
        <time>2014-06-08T09:32:54Z</time>
      </trkpt>
      <trkpt lat="42.8104" lon="0.14549">
        <ele>2196</ele>
        <time>2014-06-08T09:33:01Z</time>
      </trkpt>
      <trkpt lat="42.81041" lon="0.14545">
        <ele>2196</ele>
        <time>2014-06-08T09:33:04Z</time>
      </trkpt>
      <trkpt lat="42.8104" lon="0.14543">
        <ele>2196</ele>
        <time>2014-06-08T09:33:16Z</time>
      </trkpt>
      <trkpt lat="42.81038" lon="0.14543">
        <ele>2195</ele>
        <time>2014-06-08T09:33:20Z</time>
      </trkpt>
      <trkpt lat="42.81044" lon="0.14545">
        <ele>2194</ele>
        <time>2014-06-08T09:33:25Z</time>
      </trkpt>
      <trkpt lat="42.81075" lon="0.14546">
        <ele>2192</ele>
        <time>2014-06-08T09:33:38Z</time>
      </trkpt>
      <trkpt lat="42.81102" lon="0.14563">
        <ele>2189</ele>
        <time>2014-06-08T09:33:49Z</time>
      </trkpt>
      <trkpt lat="42.81104" lon="0.14566">
        <ele>2190</ele>
        <time>2014-06-08T09:33:50Z</time>
      </trkpt>
      <trkpt lat="42.81127" lon="0.14587">
        <ele>2186</ele>
        <time>2014-06-08T09:33:59Z</time>
      </trkpt>
      <trkpt lat="42.81157" lon="0.14618">
        <ele>2183</ele>
        <time>2014-06-08T09:34:10Z</time>
      </trkpt>
      <trkpt lat="42.81179" lon="0.14644">
        <ele>2181</ele>
        <time>2014-06-08T09:34:20Z</time>
      </trkpt>
      <trkpt lat="42.81203" lon="0.14672">
        <ele>2180</ele>
        <time>2014-06-08T09:34:30Z</time>
      </trkpt>
      <trkpt lat="42.81227" lon="0.14684">
        <ele>2178</ele>
        <time>2014-06-08T09:34:41Z</time>
      </trkpt>
      <trkpt lat="42.81228" lon="0.14692">
        <ele>2178</ele>
        <time>2014-06-08T09:34:55Z</time>
      </trkpt>
      <trkpt lat="42.81225" lon="0.1469">
        <ele>2178</ele>
        <time>2014-06-08T09:35:11Z</time>
      </trkpt>
      <trkpt lat="42.81225" lon="0.14691">
        <ele>2178</ele>
        <time>2014-06-08T09:35:27Z</time>
      </trkpt>
      <trkpt lat="42.81221" lon="0.1469">
        <ele>2178</ele>
        <time>2014-06-08T09:35:43Z</time>
      </trkpt>
      <trkpt lat="42.81219" lon="0.1469">
        <ele>2178</ele>
        <time>2014-06-08T09:35:56Z</time>
      </trkpt>
      <trkpt lat="42.81212" lon="0.14695">
        <ele>2178</ele>
        <time>2014-06-08T09:36:26Z</time>
      </trkpt>
      <trkpt lat="42.81208" lon="0.14694">
        <ele>2178</ele>
        <time>2014-06-08T09:36:42Z</time>
      </trkpt>
      <trkpt lat="42.81207" lon="0.14695">
        <ele>2177</ele>
        <time>2014-06-08T09:37:08Z</time>
      </trkpt>
      <trkpt lat="42.81207" lon="0.14695">
        <ele>2177</ele>
        <time>2014-06-08T09:37:23Z</time>
      </trkpt>
      <trkpt lat="42.81206" lon="0.14692">
        <ele>2177</ele>
        <time>2014-06-08T09:37:43Z</time>
      </trkpt>
      <trkpt lat="42.81207" lon="0.14696">
        <ele>2177</ele>
        <time>2014-06-08T09:38:04Z</time>
      </trkpt>
      <trkpt lat="42.81206" lon="0.14692">
        <ele>2178</ele>
        <time>2014-06-08T09:38:26Z</time>
      </trkpt>
      <trkpt lat="42.81207" lon="0.14693">
        <ele>2177</ele>
        <time>2014-06-08T09:38:40Z</time>
      </trkpt>
      <trkpt lat="42.81207" lon="0.14692">
        <ele>2178</ele>
        <time>2014-06-08T09:38:42Z</time>
      </trkpt>
      <trkpt lat="42.8121" lon="0.14693">
        <ele>2178</ele>
        <time>2014-06-08T09:38:46Z</time>
      </trkpt>
      <trkpt lat="42.81222" lon="0.14694">
        <ele>2178</ele>
        <time>2014-06-08T09:39:01Z</time>
      </trkpt>
      <trkpt lat="42.81228" lon="0.14696">
        <ele>2178</ele>
        <time>2014-06-08T09:39:05Z</time>
      </trkpt>
      <trkpt lat="42.81231" lon="0.14697">
        <ele>2177</ele>
        <time>2014-06-08T09:39:07Z</time>
      </trkpt>
      <trkpt lat="42.81239" lon="0.14701">
        <ele>2176</ele>
        <time>2014-06-08T09:39:13Z</time>
      </trkpt>
      <trkpt lat="42.81241" lon="0.147">
        <ele>2174</ele>
        <time>2014-06-08T09:39:16Z</time>
      </trkpt>
      <trkpt lat="42.8125" lon="0.147">
        <ele>2173</ele>
        <time>2014-06-08T09:39:23Z</time>
      </trkpt>
      <trkpt lat="42.81262" lon="0.14704">
        <ele>2171</ele>
        <time>2014-06-08T09:39:34Z</time>
      </trkpt>
      <trkpt lat="42.8128" lon="0.14706">
        <ele>2170</ele>
        <time>2014-06-08T09:39:48Z</time>
      </trkpt>
      <trkpt lat="42.81287" lon="0.14712">
        <ele>2169</ele>
        <time>2014-06-08T09:39:55Z</time>
      </trkpt>
      <trkpt lat="42.8129" lon="0.14712">
        <ele>2168</ele>
        <time>2014-06-08T09:39:58Z</time>
      </trkpt>
      <trkpt lat="42.81303" lon="0.14714">
        <ele>2166</ele>
        <time>2014-06-08T09:40:09Z</time>
      </trkpt>
      <trkpt lat="42.81304" lon="0.14715">
        <ele>2166</ele>
        <time>2014-06-08T09:40:11Z</time>
      </trkpt>
      <trkpt lat="42.81311" lon="0.14719">
        <ele>2164</ele>
        <time>2014-06-08T09:40:17Z</time>
      </trkpt>
      <trkpt lat="42.81322" lon="0.14724">
        <ele>2162</ele>
        <time>2014-06-08T09:40:29Z</time>
      </trkpt>
      <trkpt lat="42.81325" lon="0.14723">
        <ele>2162</ele>
        <time>2014-06-08T09:40:31Z</time>
      </trkpt>
      <trkpt lat="42.81344" lon="0.14724">
        <ele>2160</ele>
        <time>2014-06-08T09:40:46Z</time>
      </trkpt>
      <trkpt lat="42.81364" lon="0.14723">
        <ele>2157</ele>
        <time>2014-06-08T09:40:59Z</time>
      </trkpt>
      <trkpt lat="42.81372" lon="0.14724">
        <ele>2156</ele>
        <time>2014-06-08T09:41:04Z</time>
      </trkpt>
      <trkpt lat="42.81386" lon="0.14727">
        <ele>2154</ele>
        <time>2014-06-08T09:41:14Z</time>
      </trkpt>
      <trkpt lat="42.81393" lon="0.14728">
        <ele>2153</ele>
        <time>2014-06-08T09:41:19Z</time>
      </trkpt>
      <trkpt lat="42.81403" lon="0.14731">
        <ele>2149</ele>
        <time>2014-06-08T09:41:29Z</time>
      </trkpt>
      <trkpt lat="42.81412" lon="0.14729">
        <ele>2147</ele>
        <time>2014-06-08T09:41:39Z</time>
      </trkpt>
      <trkpt lat="42.81423" lon="0.1472">
        <ele>2143</ele>
        <time>2014-06-08T09:41:49Z</time>
      </trkpt>
      <trkpt lat="42.81423" lon="0.14719">
        <ele>2144</ele>
        <time>2014-06-08T09:41:50Z</time>
      </trkpt>
      <trkpt lat="42.81425" lon="0.1471">
        <ele>2144</ele>
        <time>2014-06-08T09:41:56Z</time>
      </trkpt>
      <trkpt lat="42.81428" lon="0.1471">
        <ele>2141</ele>
        <time>2014-06-08T09:41:59Z</time>
      </trkpt>
      <trkpt lat="42.81437" lon="0.14712">
        <ele>2139</ele>
        <time>2014-06-08T09:42:10Z</time>
      </trkpt>
      <trkpt lat="42.81446" lon="0.14713">
        <ele>2137</ele>
        <time>2014-06-08T09:42:18Z</time>
      </trkpt>
      <trkpt lat="42.81454" lon="0.14714">
        <ele>2136</ele>
        <time>2014-06-08T09:42:26Z</time>
      </trkpt>
      <trkpt lat="42.81459" lon="0.14717">
        <ele>2134</ele>
        <time>2014-06-08T09:42:33Z</time>
      </trkpt>
      <trkpt lat="42.81464" lon="0.14717">
        <ele>2132</ele>
        <time>2014-06-08T09:42:38Z</time>
      </trkpt>
      <trkpt lat="42.81468" lon="0.14715">
        <ele>2130</ele>
        <time>2014-06-08T09:42:43Z</time>
      </trkpt>
      <trkpt lat="42.81471" lon="0.14715">
        <ele>2130</ele>
        <time>2014-06-08T09:42:46Z</time>
      </trkpt>
      <trkpt lat="42.81478" lon="0.14713">
        <ele>2128</ele>
        <time>2014-06-08T09:42:52Z</time>
      </trkpt>
      <trkpt lat="42.81484" lon="0.1471">
        <ele>2127</ele>
        <time>2014-06-08T09:42:58Z</time>
      </trkpt>
      <trkpt lat="42.81487" lon="0.14707">
        <ele>2126</ele>
        <time>2014-06-08T09:43:01Z</time>
      </trkpt>
      <trkpt lat="42.81499" lon="0.14707">
        <ele>2124</ele>
        <time>2014-06-08T09:43:14Z</time>
      </trkpt>
      <trkpt lat="42.81512" lon="0.14713">
        <ele>2121</ele>
        <time>2014-06-08T09:43:26Z</time>
      </trkpt>
      <trkpt lat="42.81521" lon="0.14709">
        <ele>2119</ele>
        <time>2014-06-08T09:43:33Z</time>
      </trkpt>
      <trkpt lat="42.81523" lon="0.14708">
        <ele>2118</ele>
        <time>2014-06-08T09:43:35Z</time>
      </trkpt>
      <trkpt lat="42.81529" lon="0.14701">
        <ele>2115</ele>
        <time>2014-06-08T09:43:45Z</time>
      </trkpt>
      <trkpt lat="42.81533" lon="0.14696">
        <ele>2113</ele>
        <time>2014-06-08T09:43:51Z</time>
      </trkpt>
      <trkpt lat="42.81536" lon="0.1469">
        <ele>2113</ele>
        <time>2014-06-08T09:43:55Z</time>
      </trkpt>
      <trkpt lat="42.81538" lon="0.14684">
        <ele>2113</ele>
        <time>2014-06-08T09:43:59Z</time>
      </trkpt>
      <trkpt lat="42.81537" lon="0.14676">
        <ele>2113</ele>
        <time>2014-06-08T09:44:04Z</time>
      </trkpt>
      <trkpt lat="42.81533" lon="0.14669">
        <ele>2113</ele>
        <time>2014-06-08T09:44:16Z</time>
      </trkpt>
      <trkpt lat="42.81537" lon="0.14668">
        <ele>2113</ele>
        <time>2014-06-08T09:44:25Z</time>
      </trkpt>
      <trkpt lat="42.8155" lon="0.14656">
        <ele>2112</ele>
        <time>2014-06-08T09:44:40Z</time>
      </trkpt>
      <trkpt lat="42.81555" lon="0.14656">
        <ele>2112</ele>
        <time>2014-06-08T09:44:53Z</time>
      </trkpt>
      <trkpt lat="42.81553" lon="0.14655">
        <ele>2111</ele>
        <time>2014-06-08T09:45:05Z</time>
      </trkpt>
      <trkpt lat="42.81554" lon="0.14657">
        <ele>2111</ele>
        <time>2014-06-08T09:45:18Z</time>
      </trkpt>
      <trkpt lat="42.81554" lon="0.14656">
        <ele>2110</ele>
        <time>2014-06-08T09:45:30Z</time>
      </trkpt>
      <trkpt lat="42.8156" lon="0.14651">
        <ele>2110</ele>
        <time>2014-06-08T09:45:53Z</time>
      </trkpt>
      <trkpt lat="42.81556" lon="0.14656">
        <ele>2109</ele>
        <time>2014-06-08T09:46:22Z</time>
      </trkpt>
      <trkpt lat="42.81561" lon="0.14654">
        <ele>2109</ele>
        <time>2014-06-08T09:47:05Z</time>
      </trkpt>
      <trkpt lat="42.8156" lon="0.14655">
        <ele>2108</ele>
        <time>2014-06-08T09:47:44Z</time>
      </trkpt>
      <trkpt lat="42.81559" lon="0.14655">
        <ele>2108</ele>
        <time>2014-06-08T09:48:28Z</time>
      </trkpt>
      <trkpt lat="42.81561" lon="0.14659">
        <ele>2108</ele>
        <time>2014-06-08T09:49:01Z</time>
      </trkpt>
      <trkpt lat="42.81562" lon="0.14661">
        <ele>2107</ele>
        <time>2014-06-08T09:49:36Z</time>
      </trkpt>
      <trkpt lat="42.81559" lon="0.14662">
        <ele>2106</ele>
        <time>2014-06-08T09:50:04Z</time>
      </trkpt>
      <trkpt lat="42.81553" lon="0.14659">
        <ele>2107</ele>
        <time>2014-06-08T09:50:36Z</time>
      </trkpt>
      <trkpt lat="42.81558" lon="0.14654">
        <ele>2106</ele>
        <time>2014-06-08T09:51:16Z</time>
      </trkpt>
      <trkpt lat="42.81555" lon="0.14653">
        <ele>2106</ele>
        <time>2014-06-08T09:52:01Z</time>
      </trkpt>
      <trkpt lat="42.81557" lon="0.14652">
        <ele>2105</ele>
        <time>2014-06-08T09:52:48Z</time>
      </trkpt>
      <trkpt lat="42.8155" lon="0.14649">
        <ele>2104</ele>
        <time>2014-06-08T09:53:33Z</time>
      </trkpt>
      <trkpt lat="42.81552" lon="0.14654">
        <ele>2104</ele>
        <time>2014-06-08T09:54:15Z</time>
      </trkpt>
      <trkpt lat="42.81552" lon="0.14652">
        <ele>2103</ele>
        <time>2014-06-08T09:54:54Z</time>
      </trkpt>
      <trkpt lat="42.81548" lon="0.14652">
        <ele>2103</ele>
        <time>2014-06-08T09:55:29Z</time>
      </trkpt>
      <trkpt lat="42.81562" lon="0.14658">
        <ele>2104</ele>
        <time>2014-06-08T09:55:58Z</time>
      </trkpt>
      <trkpt lat="42.81557" lon="0.14656">
        <ele>2103</ele>
        <time>2014-06-08T09:56:29Z</time>
      </trkpt>
      <trkpt lat="42.81558" lon="0.14656">
        <ele>2103</ele>
        <time>2014-06-08T09:57:01Z</time>
      </trkpt>
      <trkpt lat="42.81561" lon="0.14658">
        <ele>2103</ele>
        <time>2014-06-08T09:57:29Z</time>
      </trkpt>
      <trkpt lat="42.81559" lon="0.14653">
        <ele>2102</ele>
        <time>2014-06-08T09:57:53Z</time>
      </trkpt>
      <trkpt lat="42.81554" lon="0.14651">
        <ele>2102</ele>
        <time>2014-06-08T09:58:14Z</time>
      </trkpt>
      <trkpt lat="42.81557" lon="0.1465">
        <ele>2102</ele>
        <time>2014-06-08T09:58:32Z</time>
      </trkpt>
      <trkpt lat="42.81558" lon="0.14651">
        <ele>2103</ele>
        <time>2014-06-08T09:58:49Z</time>
      </trkpt>
    </trkseg>
  </trk>
</gpx>